Date/Time EST BROAD KEY-Water Temp BROAD KEY-Linear Conductivity BROAD KEY-Non Linear Conductivity BROAD KEY-Water Level BROAD KEY-Salinity BROAD KEY-TDS BROAD KEY-Air Temp BROAD KEY-Water Temp in F BROAD KEY-Air Temp in F
20-Nov-2017 18:40 23.97 1,533.89 1,534.48 4.43 0.77 750.23 105.93 75.15 222.67
20-Nov-2017 18:30 23.92 1,532.82 1,533.41 4.39 0.77 749.44 105.93 75.06 222.67
20-Nov-2017 18:05 23.93 1,535.39 1,535.98 4.29 0.77 751.35 105.93 75.07 222.67
19-Nov-2017 19:20 24.53 1,553.69 1,554.32 4.65 0.78 759.82 104.72 76.15 220.50
19-Nov-2017 19:15 24.54 1,554.27 1,554.90 4.67 0.78 760.96 103.80 76.17 218.84
19-Nov-2017 19:10 24.53 1,552.53 1,553.17 4.66 0.78 760.06 102.26 76.15 216.07
19-Nov-2017 19:05 24.53 1,553.81 1,554.44 4.64 0.78 761.02 103.23 76.15 217.81
19-Nov-2017 18:55 24.53 1,554.50 1,555.14 4.63 0.78 759.66 104.35 76.15 219.83
19-Nov-2017 18:50 24.54 1,554.15 1,554.79 4.61 0.78 760.51 104.99 76.17 220.98
19-Nov-2017 18:45 24.55 1,554.03 1,554.66 4.58 0.78 760.05 105.23 76.19 221.41
19-Nov-2017 18:40 24.56 1,554.37 1,555.01 4.57 0.78 760.84 104.38 76.21 219.88
19-Nov-2017 18:35 24.57 1,553.89 1,554.53 4.55 0.78 760.38 105.55 76.23 221.99
19-Nov-2017 18:30 24.57 1,554.59 1,555.23 4.53 0.78 760.72 105.81 76.23 222.46
19-Nov-2017 18:25 24.54 1,554.27 1,554.90 4.49 0.78 760.51 105.85 76.17 222.53
19-Nov-2017 18:20 24.51 1,553.70 1,554.34 4.48 0.78 760.29 105.76 76.12 222.37
19-Nov-2017 18:15 24.48 1,554.20 1,554.83 4.47 0.78 760.13 105.27 76.06 221.49
19-Nov-2017 18:10 24.47 1,555.95 1,556.59 4.46 0.78 760.99 105.47 76.05 221.85
19-Nov-2017 18:05 24.44 1,556.67 1,557.30 4.45 0.78 761.40 105.23 75.99 221.41
19-Nov-2017 18:00 24.48 1,558.39 1,559.03 4.44 0.78 762.52 95.18 76.06 203.32
19-Nov-2017 17:50 24.52 1,561.76 1,562.40 4.43 0.78 763.54 105.85 76.14 222.53
19-Nov-2017 17:40 24.54 1,561.29 1,561.93 4.33 0.78 763.99 105.91 76.17 222.64
19-Nov-2017 15:50 24.85 1,578.66 1,579.30 3.86 0.79 772.48 105.93 76.73 222.67
19-Nov-2017 15:45 24.89 1,580.47 1,581.10 3.87 0.79 773.36 105.94 76.80 222.69
19-Nov-2017 15:40 24.93 1,582.77 1,583.40 3.94 0.79 773.83 105.94 76.87 222.69
19-Nov-2017 15:25 24.94 1,588.14 1,588.78 3.95 0.80 776.75 105.93 76.89 222.67
19-Nov-2017 15:10 24.92 1,596.90 1,597.54 3.97 0.80 780.96 105.93 76.86 222.67
19-Nov-2017 14:10 24.90 1,621.80 1,622.45 4.14 0.82 793.87 105.93 76.82 222.67
19-Nov-2017 13:55 24.82 1,628.41 1,629.07 4.16 0.82 796.73 105.93 76.68 222.67
19-Nov-2017 03:30 23.56 1,537.33 1,537.85 3.73 0.77 751.65 105.85 74.41 222.53
19-Nov-2017 03:10 23.60 1,550.36 1,550.89 3.75 0.78 758.23 104.31 74.48 219.76
19-Nov-2017 03:05 23.61 1,554.56 1,555.10 3.76 0.78 760.39 103.84 74.50 218.91
19-Nov-2017 03:00 23.63 1,558.90 1,559.45 3.77 0.78 762.18 105.09 74.53 221.16
19-Nov-2017 02:50 23.65 1,561.08 1,561.63 3.79 0.78 763.91 105.17 74.57 221.31
19-Nov-2017 02:45 23.66 1,564.19 1,564.75 3.80 0.78 765.04 105.31 74.59 221.56
19-Nov-2017 02:40 23.67 1,566.39 1,566.95 3.81 0.79 766.45 104.46 74.61 220.03
19-Nov-2017 02:35 23.68 1,568.24 1,568.80 3.82 0.79 767.01 104.31 74.62 219.76
19-Nov-2017 02:30 23.68 1,570.93 1,571.49 3.83 0.79 767.98 104.58 74.62 220.24
19-Nov-2017 02:25 23.69 1,571.39 1,571.95 3.84 0.79 768.95 103.03 74.64 217.45
19-Nov-2017 02:20 23.69 1,574.90 1,575.47 3.86 0.79 770.27 103.33 74.64 217.99
19-Nov-2017 02:15 23.70 1,579.50 1,580.06 3.91 0.79 772.22 103.20 74.66 217.76
19-Nov-2017 02:05 23.71 1,580.68 1,581.25 3.91 0.79 772.80 102.45 74.68 216.41
19-Nov-2017 02:00 23.72 1,582.45 1,583.03 3.96 0.79 774.30 102.09 74.70 215.76
19-Nov-2017 01:55 23.73 1,585.78 1,586.36 3.99 0.80 775.58 102.61 74.71 216.70
19-Nov-2017 01:45 23.73 1,587.93 1,588.51 4.01 0.80 776.62 101.65 74.71 214.97
19-Nov-2017 01:35 23.74 1,593.33 1,593.90 4.05 0.80 779.20 102.48 74.73 216.46
19-Nov-2017 01:25 23.75 1,599.98 1,600.56 4.11 0.80 782.50 103.20 74.75 217.76
19-Nov-2017 01:20 23.77 1,603.87 1,604.46 4.13 0.81 784.41 102.71 74.79 216.88
19-Nov-2017 01:15 23.79 1,606.94 1,607.53 4.17 0.81 785.96 102.71 74.82 216.88
19-Nov-2017 01:10 23.80 1,611.73 1,612.33 4.21 0.81 787.58 102.23 74.84 216.01
19-Nov-2017 01:05 23.81 1,619.30 1,619.90 4.27 0.81 791.57 103.37 74.86 218.07
19-Nov-2017 01:00 23.83 1,623.30 1,623.91 4.31 0.82 793.83 101.54 74.89 214.77
19-Nov-2017 00:50 23.84 1,626.57 1,627.18 4.35 0.82 795.18 101.04 74.91 213.87
19-Nov-2017 00:45 23.86 1,631.38 1,631.99 4.40 0.82 797.46 100.39 74.95 212.70
19-Nov-2017 00:40 23.87 1,634.69 1,635.30 4.43 0.82 799.45 99.70 74.97 211.46
19-Nov-2017 00:35 23.88 1,638.14 1,638.76 4.49 0.82 801.19 101.10 74.98 213.98
19-Nov-2017 00:30 23.89 1,643.26 1,643.89 4.57 0.83 803.75 99.62 75.00 211.32
19-Nov-2017 00:25 23.88 1,652.68 1,653.31 4.64 0.83 807.85 98.83 74.98 209.89
19-Nov-2017 00:20 23.90 1,655.84 1,656.47 4.69 0.83 809.77 100.27 75.02 212.49
19-Nov-2017 00:15 23.94 1,658.63 1,659.27 4.72 0.83 811.19 101.53 75.09 214.75
19-Nov-2017 00:10 23.94 1,659.29 1,659.93 4.74 0.83 811.07 100.56 75.09 213.01
19-Nov-2017 00:05 23.92 1,657.69 1,658.32 4.80 0.83 810.61 101.08 75.06 213.94
18-Nov-2017 23:55 23.89 1,660.26 1,660.89 4.83 0.83 811.54 103.58 75.00 218.44
18-Nov-2017 23:45 23.89 1,669.75 1,670.38 4.88 0.84 816.11 100.90 75.00 213.62
18-Nov-2017 23:40 23.89 1,676.26 1,676.90 4.92 0.84 819.41 101.78 75.00 215.20
18-Nov-2017 23:35 23.88 1,683.76 1,684.40 4.95 0.85 823.73 100.93 74.98 213.67
18-Nov-2017 23:30 23.88 1,691.76 1,692.40 4.98 0.85 827.36 101.31 74.98 214.36
18-Nov-2017 23:20 23.94 1,712.98 1,713.64 5.06 0.86 837.66 99.83 75.09 211.69
18-Nov-2017 23:10 23.94 1,718.03 1,718.68 5.07 0.87 840.66 102.01 75.09 215.62
18-Nov-2017 23:05 24.01 1,728.74 1,729.42 5.14 0.87 845.35 103.23 75.22 217.81
18-Nov-2017 23:00 24.02 1,733.49 1,734.17 5.17 0.87 848.15 102.34 75.24 216.21
18-Nov-2017 22:50 24.02 1,733.49 1,734.17 5.20 0.87 848.50 103.39 75.24 218.10
18-Nov-2017 22:45 24.05 1,725.60 1,726.27 5.22 0.87 845.06 104.14 75.29 219.45
18-Nov-2017 22:40 24.26 1,992.01 1,992.81 5.25 1.01 971.09 101.87 75.67 215.37
18-Nov-2017 22:35 24.28 1,994.85 1,995.65 5.30 1.01 972.46 102.37 75.70 216.27
18-Nov-2017 22:30 24.30 1,993.12 1,993.92 5.34 1.01 971.36 102.38 75.74 216.28
18-Nov-2017 22:10 24.32 1,990.63 1,991.43 5.39 1.01 970.16 102.30 75.78 216.14
18-Nov-2017 22:05 24.32 1,990.26 1,991.07 5.39 1.01 969.91 100.58 75.78 213.04
18-Nov-2017 21:55 24.31 1,993.16 1,993.96 5.42 1.01 969.80 100.45 75.76 212.81
18-Nov-2017 21:50 24.31 1,732.44 1,733.15 5.41 0.87 848.47 102.77 75.76 216.99
18-Nov-2017 21:40 24.30 1,730.98 1,731.68 5.42 0.87 847.27 100.88 75.74 213.58
18-Nov-2017 21:35 24.30 1,986.26 1,987.07 5.42 1.00 965.90 102.00 75.74 215.60
18-Nov-2017 21:30 24.29 1,980.96 1,981.76 5.40 1.00 962.13 99.14 75.72 210.45
18-Nov-2017 21:25 24.30 1,725.10 1,725.80 5.41 0.87 844.46 100.01 75.74 212.02
18-Nov-2017 21:15 24.29 1,732.97 1,733.67 5.40 0.87 847.46 100.79 75.72 213.42
18-Nov-2017 21:05 24.29 1,730.51 1,731.21 5.40 0.87 846.56 100.81 75.72 213.46
18-Nov-2017 21:00 24.30 1,725.95 1,726.65 5.40 0.87 843.62 99.88 75.74 211.78
18-Nov-2017 20:55 24.29 1,722.79 1,723.49 5.41 0.87 842.37 97.66 75.72 207.79
18-Nov-2017 20:50 24.29 1,719.26 1,719.95 5.40 0.87 841.19 98.84 75.72 209.91
18-Nov-2017 20:45 24.30 1,714.88 1,715.58 5.38 0.86 839.46 100.97 75.74 213.75
18-Nov-2017 20:35 24.30 1,713.19 1,713.89 5.38 0.86 837.40 100.64 75.74 213.15
18-Nov-2017 20:30 24.31 1,702.73 1,703.42 5.36 0.86 832.30 102.31 75.76 216.16
18-Nov-2017 20:25 24.32 1,698.18 1,698.87 5.36 0.86 830.42 102.60 75.78 216.68
18-Nov-2017 20:20 24.33 1,692.95 1,693.64 5.35 0.85 827.47 103.22 75.79 217.80
18-Nov-2017 20:10 24.34 1,678.40 1,679.08 5.33 0.84 820.76 102.44 75.81 216.39
18-Nov-2017 20:05 24.35 1,669.14 1,669.82 5.31 0.84 816.37 103.43 75.83 218.17
18-Nov-2017 20:00 24.35 1,659.69 1,660.36 5.29 0.84 811.63 103.70 75.83 218.66
18-Nov-2017 19:55 24.35 1,648.78 1,649.45 5.27 0.83 805.99 102.76 75.83 216.97
18-Nov-2017 19:25 24.25 1,578.10 1,578.74 5.13 0.79 772.51 102.44 75.65 216.39
18-Nov-2017 19:20 24.22 1,566.39 1,567.02 5.09 0.79 766.44 100.32 75.60 212.58
18-Nov-2017 19:15 24.19 1,556.60 1,557.22 5.08 0.78 761.03 101.96 75.54 215.53
18-Nov-2017 19:10 24.18 1,549.34 1,549.96 5.06 0.78 757.43 102.46 75.52 216.43
18-Nov-2017 19:05 24.17 1,541.70 1,542.32 5.04 0.77 754.10 103.05 75.51 217.49
18-Nov-2017 18:55 24.17 1,536.03 1,536.64 4.99 0.77 751.33 103.92 75.51 219.06
18-Nov-2017 18:50 24.18 1,535.24 1,535.85 4.97 0.77 750.94 104.09 75.52 219.36
18-Nov-2017 18:45 24.17 1,536.27 1,536.88 4.95 0.77 751.39 104.20 75.51 219.56
18-Nov-2017 18:40 24.16 1,537.06 1,537.67 4.96 0.77 751.77 104.50 75.49 220.10
18-Nov-2017 18:35 24.15 1,537.41 1,538.02 4.96 0.77 751.95 103.65 75.47 218.57
18-Nov-2017 18:30 24.18 1,540.43 1,541.05 4.88 0.77 753.48 102.92 75.52 217.26
18-Nov-2017 18:15 24.19 1,539.64 1,540.25 4.85 0.77 753.03 104.16 75.54 219.49
18-Nov-2017 18:10 24.19 1,540.76 1,541.38 4.81 0.77 753.97 104.32 75.54 219.78
18-Nov-2017 18:05 24.19 1,542.13 1,542.75 4.77 0.77 754.70 104.63 75.54 220.33
18-Nov-2017 17:50 24.18 1,545.34 1,545.95 4.72 0.77 755.15 103.28 75.52 217.90
18-Nov-2017 17:45 24.15 1,546.16 1,546.77 4.69 0.78 756.22 104.83 75.47 220.69
18-Nov-2017 17:40 24.13 1,546.86 1,547.48 4.64 0.78 756.62 104.64 75.43 220.35
18-Nov-2017 17:35 24.13 1,547.66 1,548.28 4.61 0.78 756.01 103.83 75.43 218.89
18-Nov-2017 17:25 24.13 1,544.35 1,544.97 4.56 0.77 755.28 103.26 75.43 217.87
18-Nov-2017 17:20 24.13 1,540.03 1,540.64 4.50 0.77 752.95 105.68 75.43 222.22
18-Nov-2017 17:15 24.13 1,537.31 1,537.93 4.47 0.77 751.68 105.31 75.43 221.56
18-Nov-2017 17:10 24.14 1,533.82 1,534.43 4.45 0.77 749.53 105.33 75.45 221.59
18-Nov-2017 16:50 24.15 1,526.09 1,526.69 4.35 0.76 745.76 103.07 75.47 217.53
18-Nov-2017 16:25 24.15 1,520.53 1,521.13 4.19 0.76 743.65 104.74 75.47 220.53
18-Nov-2017 16:10 24.15 1,525.30 1,525.91 4.10 0.76 746.03 104.89 75.47 220.80
18-Nov-2017 15:55 24.16 1,534.35 1,534.96 4.09 0.77 750.45 105.58 75.49 222.04
18-Nov-2017 15:45 24.18 1,537.95 1,538.56 4.07 0.77 752.27 105.69 75.52 222.24
18-Nov-2017 15:35 24.19 1,541.00 1,541.62 4.06 0.77 753.15 105.75 75.54 222.35
18-Nov-2017 14:55 24.23 1,566.50 1,567.13 4.16 0.79 766.21 104.99 75.61 220.98
18-Nov-2017 14:30 24.31 1,589.76 1,590.41 4.28 0.80 776.85 105.42 75.76 221.76
18-Nov-2017 12:25 24.15 1,670.90 1,671.56 4.75 0.84 816.78 105.92 75.47 222.66
18-Nov-2017 12:20 24.14 1,676.10 1,676.77 4.73 0.84 819.71 105.93 75.45 222.67
18-Nov-2017 12:05 24.08 1,684.48 1,685.15 4.75 0.85 823.74 105.93 75.34 222.67
18-Nov-2017 11:45 23.98 1,702.15 1,702.80 4.85 0.86 832.37 105.93 75.16 222.67
18-Nov-2017 11:40 23.97 1,709.31 1,709.97 4.89 0.86 835.46 105.92 75.15 222.66
18-Nov-2017 11:35 23.95 1,719.33 1,719.99 4.91 0.87 840.34 105.93 75.11 222.67
18-Nov-2017 11:30 23.93 1,728.33 1,728.99 4.94 0.87 845.15 105.91 75.07 222.64
18-Nov-2017 11:10 23.91 1,746.35 1,747.01 5.04 1.01 974.98 105.92 75.04 222.66
18-Nov-2017 10:50 23.82 2,013.19 2,013.94 5.10 1.02 980.89 105.92 74.88 222.66
18-Nov-2017 10:40 23.81 2,014.51 2,015.26 5.10 1.02 981.12 105.93 74.86 222.67
18-Nov-2017 10:35 23.80 2,012.74 2,013.48 5.12 1.02 979.74 105.93 74.84 222.67
18-Nov-2017 10:25 23.79 2,015.24 2,015.99 5.15 1.02 980.79 105.94 74.82 222.69
18-Nov-2017 10:20 23.76 2,016.83 2,017.57 5.15 1.02 980.92 105.93 74.77 222.67
18-Nov-2017 10:15 23.73 2,015.24 2,015.97 5.15 1.02 980.48 105.94 74.71 222.69
18-Nov-2017 10:10 23.72 2,014.98 2,015.71 5.15 1.02 979.18 105.93 74.70 222.67
18-Nov-2017 10:05 23.69 2,014.51 2,015.23 5.17 1.02 979.05 105.93 74.64 222.67
18-Nov-2017 09:55 23.67 2,011.59 2,012.31 5.18 1.02 977.47 105.94 74.61 222.69
18-Nov-2017 09:50 23.66 2,013.40 2,014.11 5.18 1.02 978.10 105.94 74.59 222.69
18-Nov-2017 09:45 23.64 2,015.69 2,016.40 5.18 1.02 978.38 105.93 74.55 222.67
18-Nov-2017 09:40 23.62 2,017.83 2,018.53 5.16 1.02 978.50 105.93 74.52 222.67
18-Nov-2017 09:30 23.59 2,020.45 2,021.14 5.16 1.02 979.44 105.94 74.46 222.69
18-Nov-2017 09:15 23.52 2,060.62 2,061.31 5.13 1.03 990.81 105.93 74.34 222.67
18-Nov-2017 09:10 23.51 2,127.68 2,128.39 5.11 1.06 1,009.65 105.93 74.32 222.67
18-Nov-2017 09:05 23.49 2,135.81 2,136.51 5.10 1.06 1,012.24 105.93 74.28 222.67
18-Nov-2017 09:00 23.47 2,155.75 2,156.45 5.09 1.07 1,018.35 105.94 74.25 222.69
18-Nov-2017 08:55 23.47 2,153.54 2,154.25 5.08 1.07 1,017.60 105.93 74.25 222.67
18-Nov-2017 08:50 23.46 2,156.15 2,156.86 5.07 1.07 1,017.73 105.94 74.23 222.69
18-Nov-2017 08:45 23.45 2,148.03 2,148.73 5.09 1.06 1,014.74 105.93 74.21 222.67
18-Nov-2017 08:35 23.44 2,166.63 2,167.32 5.12 1.07 1,020.51 105.93 74.19 222.67
18-Nov-2017 08:20 23.40 2,102.39 2,103.05 5.01 1.04 994.75 105.94 74.12 222.69
18-Nov-2017 08:15 23.39 2,061.98 2,062.63 5.00 1.02 979.90 105.94 74.10 222.69
18-Nov-2017 08:05 23.36 2,026.39 2,027.02 5.02 1.01 968.13 105.94 74.05 222.69
18-Nov-2017 07:55 23.34 2,014.50 2,015.11 4.90 1.00 962.51 105.94 74.01 222.69
18-Nov-2017 07:45 23.32 2,003.60 2,004.20 4.88 1.00 955.08 105.94 73.98 222.69
18-Nov-2017 07:35 23.30 1,984.03 1,984.63 4.96 0.99 945.85 105.94 73.94 222.69
18-Nov-2017 07:30 23.31 1,974.78 1,975.37 4.92 0.98 940.41 105.94 73.96 222.69
18-Nov-2017 07:15 23.29 1,936.11 1,936.69 4.89 0.96 923.10 105.94 73.92 222.69
18-Nov-2017 07:05 23.27 1,748.77 1,749.28 4.87 0.88 852.63 105.94 73.89 222.69
18-Nov-2017 07:00 23.27 1,741.06 1,741.57 4.84 0.87 848.42 105.94 73.89 222.69
18-Nov-2017 06:55 23.26 1,731.39 1,731.90 4.81 0.87 843.39 105.94 73.87 222.69
18-Nov-2017 06:50 23.22 1,727.04 1,727.53 4.79 0.87 842.03 105.94 73.80 222.69
18-Nov-2017 06:45 23.22 1,740.56 1,741.06 4.76 0.87 848.24 105.94 73.80 222.69
18-Nov-2017 06:40 23.22 1,731.96 1,732.45 4.73 0.87 844.07 105.94 73.80 222.69
18-Nov-2017 06:35 23.23 1,734.95 1,735.45 4.69 0.87 844.70 105.94 73.81 222.69
18-Nov-2017 06:30 23.23 1,715.13 1,715.62 4.64 0.86 836.38 105.93 73.81 222.67
18-Nov-2017 06:25 23.21 1,718.37 1,718.86 4.59 0.86 836.62 105.94 73.78 222.69
18-Nov-2017 06:15 23.21 1,742.78 1,743.28 4.56 0.88 849.80 105.93 73.78 222.67
18-Nov-2017 06:10 23.20 1,749.04 1,749.53 4.54 0.88 850.34 105.93 73.76 222.67
18-Nov-2017 06:05 23.20 1,731.04 1,731.53 4.52 0.87 843.22 105.94 73.76 222.69
18-Nov-2017 06:00 23.21 1,745.35 1,745.84 4.49 0.88 851.05 105.93 73.78 222.67
18-Nov-2017 05:55 23.21 1,746.80 1,747.30 4.45 0.88 849.20 105.94 73.78 222.69
18-Nov-2017 05:45 23.27 1,710.30 1,710.80 4.40 0.86 831.98 105.93 73.89 222.67
18-Nov-2017 05:40 23.30 1,734.20 1,734.72 4.37 0.87 842.76 105.93 73.94 222.67
18-Nov-2017 05:35 23.32 1,718.32 1,718.84 4.34 0.86 835.10 105.93 73.98 222.67
18-Nov-2017 05:25 23.31 1,709.60 1,710.12 4.31 0.86 830.90 105.93 73.96 222.67
18-Nov-2017 05:20 23.33 1,711.44 1,711.96 4.31 0.86 830.93 105.93 73.99 222.67
18-Nov-2017 05:15 23.25 1,709.29 1,709.79 4.32 0.86 831.09 105.92 73.85 222.66
18-Nov-2017 05:10 23.24 1,712.27 1,712.76 4.33 0.86 832.14 105.63 73.83 222.13
18-Nov-2017 05:05 23.34 1,714.94 1,715.46 4.35 0.86 833.47 105.61 74.01 222.10
18-Nov-2017 05:00 23.46 1,719.62 1,720.18 4.35 0.86 835.64 105.75 74.23 222.35
18-Nov-2017 04:55 23.46 1,719.04 1,719.60 4.32 0.86 834.90 105.46 74.23 221.83
18-Nov-2017 04:40 23.46 1,704.96 1,705.51 4.25 0.86 828.58 105.64 74.23 222.15
18-Nov-2017 04:35 23.46 1,700.74 1,701.29 4.20 0.85 826.48 105.63 74.23 222.13
18-Nov-2017 04:30 23.44 1,703.01 1,703.56 4.16 0.85 828.04 105.68 74.19 222.22
18-Nov-2017 04:25 23.45 1,699.36 1,699.91 4.15 0.85 825.88 105.78 74.21 222.40
18-Nov-2017 04:20 23.45 1,705.91 1,706.46 4.14 0.86 829.16 105.76 74.21 222.37
18-Nov-2017 04:15 23.46 1,707.30 1,707.86 4.12 0.86 830.17 105.44 74.23 221.79
18-Nov-2017 04:10 23.46 1,706.60 1,707.16 4.12 0.86 829.77 105.57 74.23 222.03
18-Nov-2017 03:50 23.47 1,689.11 1,689.67 4.04 0.85 822.50 105.63 74.25 222.13
18-Nov-2017 03:45 23.46 1,683.74 1,684.29 4.04 0.85 820.29 105.70 74.23 222.26
18-Nov-2017 03:30 23.46 1,700.04 1,700.60 4.04 0.85 827.79 105.52 74.23 221.94
18-Nov-2017 03:15 23.47 1,710.09 1,710.65 4.05 0.86 832.25 105.63 74.25 222.13
18-Nov-2017 03:10 23.49 1,719.56 1,720.12 4.05 0.86 836.82 105.16 74.28 221.29
18-Nov-2017 03:05 23.50 1,716.67 1,717.24 4.06 0.86 834.28 105.47 74.30 221.85
18-Nov-2017 02:55 23.52 1,688.03 1,688.60 4.08 0.85 821.64 105.19 74.34 221.34
18-Nov-2017 02:50 23.53 1,688.59 1,689.15 4.09 0.85 822.24 104.88 74.35 220.78
18-Nov-2017 02:45 23.53 1,686.72 1,687.29 4.11 0.85 821.66 104.96 74.35 220.93
18-Nov-2017 02:40 23.54 1,687.15 1,687.72 4.12 0.85 820.76 104.86 74.37 220.75
18-Nov-2017 02:35 23.54 1,692.81 1,693.38 4.13 0.85 823.89 105.01 74.37 221.02
18-Nov-2017 02:30 23.55 1,687.83 1,688.40 4.15 0.85 821.93 105.12 74.39 221.22
18-Nov-2017 02:25 23.55 1,695.81 1,696.38 4.16 0.85 824.94 105.16 74.39 221.29
18-Nov-2017 02:20 23.55 1,697.44 1,698.01 4.18 0.85 826.58 104.71 74.39 220.48
18-Nov-2017 02:15 23.55 1,707.28 1,707.86 4.20 0.86 830.09 104.88 74.39 220.78
18-Nov-2017 02:10 23.54 1,703.42 1,704.00 4.23 0.85 829.02 104.52 74.37 220.14
18-Nov-2017 02:05 23.54 1,703.42 1,704.00 4.29 0.86 829.02 104.42 74.37 219.96
18-Nov-2017 02:00 23.55 1,710.72 1,711.30 4.30 0.86 832.67 104.47 74.39 220.05
18-Nov-2017 01:55 23.55 1,709.89 1,710.47 4.34 0.86 832.14 104.65 74.39 220.37
18-Nov-2017 01:50 23.56 1,715.32 1,715.90 4.33 0.86 835.29 104.67 74.41 220.41
18-Nov-2017 01:45 23.57 1,721.63 1,722.22 4.33 0.87 838.34 104.59 74.43 220.26
18-Nov-2017 01:40 23.57 1,724.99 1,725.58 4.36 0.87 840.26 105.14 74.43 221.25
18-Nov-2017 01:35 23.57 1,728.24 1,728.83 4.36 0.87 842.18 104.88 74.43 220.78
18-Nov-2017 01:30 23.57 1,739.31 1,739.91 4.38 0.87 847.60 105.11 74.43 221.20
18-Nov-2017 01:25 23.58 1,748.53 1,749.13 4.39 0.88 851.72 105.00 74.44 221.00
18-Nov-2017 01:20 23.58 1,749.40 1,750.00 4.40 0.88 852.13 104.87 74.44 220.77
18-Nov-2017 01:15 23.58 1,743.35 1,743.95 4.41 0.88 850.46 105.08 74.44 221.14
18-Nov-2017 01:10 23.58 1,944.05 1,944.71 4.43 0.97 934.29 105.06 74.44 221.11
18-Nov-2017 01:05 23.58 1,738.92 1,739.52 4.45 0.87 848.73 105.08 74.44 221.14
18-Nov-2017 00:55 23.58 1,743.35 1,743.95 4.51 0.88 850.39 104.82 74.44 220.68
18-Nov-2017 00:50 23.59 1,949.91 1,950.58 4.52 0.97 938.11 104.64 74.46 220.35
18-Nov-2017 00:45 23.60 1,744.89 1,745.49 4.53 0.88 851.62 104.72 74.48 220.50
18-Nov-2017 00:35 23.66 1,958.37 1,959.06 4.60 0.98 941.54 104.51 74.59 220.12
18-Nov-2017 00:30 23.68 1,749.07 1,749.69 4.65 0.88 853.16 104.45 74.62 220.01
18-Nov-2017 00:25 23.67 1,960.55 1,961.25 4.66 0.98 943.65 104.39 74.61 219.90
18-Nov-2017 00:15 23.67 1,960.88 1,961.57 4.71 0.98 944.81 104.73 74.61 220.51
18-Nov-2017 00:10 23.66 1,742.80 1,743.42 4.73 0.88 851.86 104.24 74.59 219.63
17-Nov-2017 23:40 23.58 1,969.80 1,970.47 4.91 0.99 950.79 104.57 74.44 220.23
17-Nov-2017 23:10 23.61 1,753.30 1,753.91 5.10 0.88 856.14 103.15 74.50 217.67
17-Nov-2017 23:05 23.62 1,751.17 1,751.78 5.14 0.88 855.52 102.50 74.52 216.50
17-Nov-2017 22:55 23.63 1,979.67 1,980.36 5.19 1.00 959.22 102.40 74.53 216.32
17-Nov-2017 22:50 23.65 1,749.38 1,750.00 5.21 0.88 855.07 102.38 74.57 216.28
17-Nov-2017 22:45 23.65 1,997.80 1,998.50 5.24 1.01 967.25 102.20 74.57 215.96
17-Nov-2017 21:25 23.94 2,032.91 2,033.69 5.60 1.03 985.14 100.31 75.09 212.56
17-Nov-2017 21:20 23.94 2,035.75 2,036.53 5.60 1.03 985.32 102.31 75.09 216.16
17-Nov-2017 21:15 23.96 2,033.18 2,033.97 5.60 1.02 984.43 103.02 75.13 217.44
17-Nov-2017 20:50 24.02 2,018.11 2,018.90 5.58 1.02 978.80 102.83 75.24 217.09
17-Nov-2017 20:10 24.18 1,982.08 1,982.87 5.51 1.00 962.19 102.91 75.52 217.24
17-Nov-2017 19:50 24.29 1,731.51 1,732.21 5.47 0.87 846.40 103.33 75.72 217.99
17-Nov-2017 19:35 24.33 1,719.78 1,720.47 5.42 0.87 839.78 103.72 75.79 218.70
17-Nov-2017 18:40 24.32 1,602.47 1,603.12 5.24 0.81 783.40 103.10 75.78 217.58
17-Nov-2017 18:35 24.32 1,596.58 1,597.23 5.21 0.80 779.46 102.77 75.78 216.99
17-Nov-2017 18:30 24.32 1,585.77 1,586.41 5.19 0.80 773.79 104.06 75.78 219.31
17-Nov-2017 18:20 24.31 1,554.90 1,555.53 5.15 0.78 759.52 103.69 75.76 218.64
17-Nov-2017 18:10 24.28 1,539.43 1,540.05 5.11 0.77 751.88 102.95 75.70 217.31
17-Nov-2017 18:05 24.28 1,537.27 1,537.90 5.09 0.77 750.82 103.98 75.70 219.16
17-Nov-2017 18:00 24.30 1,537.37 1,537.99 5.06 0.77 750.98 105.08 75.74 221.14
17-Nov-2017 17:55 24.31 1,537.58 1,538.20 5.03 0.77 750.76 105.59 75.76 222.06
17-Nov-2017 17:50 24.32 1,534.63 1,535.25 5.01 0.77 749.98 105.30 75.78 221.54
17-Nov-2017 17:45 24.30 1,531.71 1,532.33 4.98 0.77 747.57 105.61 75.74 222.10
17-Nov-2017 17:10 24.31 1,516.89 1,517.50 4.79 0.76 741.01 102.50 75.76 216.50
17-Nov-2017 16:35 24.31 1,496.63 1,497.24 4.61 0.75 730.78 104.38 75.76 219.88
17-Nov-2017 16:05 24.34 1,493.56 1,494.17 4.49 0.75 729.90 102.69 75.81 216.84
17-Nov-2017 15:35 24.39 1,504.26 1,504.87 4.34 0.75 735.44 105.94 75.90 222.69
17-Nov-2017 14:35 24.44 1,562.28 1,562.92 4.32 0.78 764.20 105.93 75.99 222.67
17-Nov-2017 14:10 24.51 1,583.09 1,583.74 4.32 0.79 773.59 105.93 76.12 222.67
17-Nov-2017 12:35 24.22 1,587.58 1,588.22 4.54 0.80 776.85 105.93 75.60 222.67
17-Nov-2017 11:35 24.12 1,629.61 1,630.26 4.71 0.82 797.39 105.92 75.42 222.66
17-Nov-2017 11:25 24.07 1,629.18 1,629.82 4.76 0.82 796.81 105.93 75.33 222.67
17-Nov-2017 11:15 24.01 1,638.92 1,639.56 4.78 0.82 801.57 105.69 75.22 222.24
17-Nov-2017 10:40 24.01 1,729.73 1,730.40 4.85 0.87 846.66 105.94 75.22 222.69
17-Nov-2017 10:20 24.23 2,008.60 2,009.41 4.92 1.02 979.29 105.94 75.61 222.69
17-Nov-2017 10:15 24.23 2,008.60 2,009.41 4.94 1.02 980.14 105.94 75.61 222.69
17-Nov-2017 10:10 24.23 2,010.34 2,011.15 4.97 1.02 980.91 105.93 75.61 222.67
17-Nov-2017 03:35 23.83 1,488.18 1,488.74 4.22 0.74 727.30 105.93 74.89 222.67
16-Nov-2017 23:30 24.13 1,636.37 1,637.02 4.86 0.82 799.88 105.92 75.43 222.66
16-Nov-2017 19:45 24.55 1,705.73 1,706.43 5.57 0.86 834.03 105.90 76.19 222.62
16-Nov-2017 19:30 24.56 1,685.38 1,686.07 5.58 0.85 824.29 105.89 76.21 222.60
16-Nov-2017 13:50 24.73 1,600.47 1,601.12 4.26 0.80 783.08 105.94 76.51 222.69
16-Nov-2017 13:45 24.73 1,603.57 1,604.23 4.27 0.81 784.71 105.94 76.51 222.69
16-Nov-2017 12:20 24.45 1,622.78 1,623.44 4.44 0.81 792.87 105.93 76.01 222.67
16-Nov-2017 05:05 24.14 1,564.09 1,564.71 5.03 0.78 764.69 105.92 75.45 222.66
16-Nov-2017 02:40 24.36 1,554.51 1,555.15 4.44 0.78 759.67 105.93 75.85 222.67
16-Nov-2017 02:00 24.45 1,574.23 1,574.87 4.33 0.79 770.32 105.93 76.01 222.67
16-Nov-2017 00:35 24.51 1,631.49 1,632.16 4.47 0.82 797.93 105.93 76.12 222.67
16-Nov-2017 00:20 24.52 1,644.30 1,644.97 4.54 0.83 803.80 105.93 76.14 222.67
15-Nov-2017 23:45 24.55 1,665.46 1,666.14 4.56 0.84 814.51 105.93 76.19 222.67
15-Nov-2017 23:35 24.56 1,672.46 1,673.14 4.62 0.84 817.01 105.93 76.21 222.67
15-Nov-2017 22:10 24.60 1,709.94 1,710.64 5.15 0.86 836.63 105.93 76.28 222.67
15-Nov-2017 19:40 24.88 2,002.90 2,003.71 5.76 1.01 974.51 105.93 76.78 222.67
15-Nov-2017 19:25 24.89 1,988.30 1,989.10 5.74 1.01 968.12 105.92 76.80 222.66
15-Nov-2017 19:10 24.90 1,974.95 1,975.74 5.67 1.00 961.18 105.84 76.82 222.51
15-Nov-2017 17:55 24.91 1,665.52 1,666.18 5.25 0.84 813.73 105.93 76.84 222.67
15-Nov-2017 15:40 24.92 1,538.86 1,539.47 4.16 0.77 752.23 105.93 76.86 222.67
15-Nov-2017 15:35 24.91 1,536.57 1,537.19 4.18 0.77 751.18 105.90 76.84 222.62
15-Nov-2017 04:40 24.87 1,630.64 1,631.30 4.95 0.82 797.50 103.23 76.77 217.81
15-Nov-2017 04:20 24.89 1,626.92 1,627.57 4.85 0.82 795.30 102.31 76.80 216.16
15-Nov-2017 02:40 25.15 1,610.22 1,610.84 4.40 0.81 787.15 103.26 77.27 217.87
15-Nov-2017 00:10 25.41 1,686.00 1,686.61 4.43 0.85 825.32 103.63 77.74 218.53
14-Nov-2017 18:55 25.66 2,010.34 2,011.00 5.66 1.02 977.14 102.43 78.19 216.37
14-Nov-2017 18:30 25.71 2,003.49 2,004.13 5.54 1.01 973.47 105.62 78.28 222.12
14-Nov-2017 18:15 25.76 1,999.83 2,000.45 5.54 1.01 971.71 105.81 78.37 222.46
14-Nov-2017 15:25 26.07 1,893.92 1,894.41 4.69 0.96 921.15 102.41 78.93 216.34
14-Nov-2017 13:55 25.85 1,902.20 1,902.77 4.31 0.96 925.09 102.01 78.53 215.62
14-Nov-2017 13:50 25.83 1,904.90 1,905.48 4.29 0.96 925.78 102.49 78.49 216.48
14-Nov-2017 12:50 25.66 1,930.88 1,931.51 4.16 0.97 938.48 101.94 78.19 215.49
14-Nov-2017 12:30 25.59 1,934.93 1,935.59 4.14 0.98 940.20 101.77 78.06 215.19
14-Nov-2017 05:40 25.10 2,008.53 2,009.31 5.36 1.02 975.93 105.49 77.18 221.88
14-Nov-2017 05:25 25.12 2,001.06 2,001.84 5.31 1.01 972.65 105.79 77.22 222.42
14-Nov-2017 05:15 25.14 1,997.45 1,998.22 5.28 1.01 971.15 105.75 77.25 222.35
14-Nov-2017 04:45 25.17 1,972.68 1,973.43 5.16 1.00 959.23 105.55 77.31 221.99
14-Nov-2017 04:40 25.18 1,967.59 1,968.35 5.13 0.99 956.68 105.42 77.32 221.76
14-Nov-2017 04:30 25.22 1,954.57 1,955.31 5.09 0.99 949.89 105.66 77.40 222.19
14-Nov-2017 04:25 25.24 1,947.62 1,948.36 5.07 0.98 946.94 105.46 77.43 221.83
14-Nov-2017 04:10 25.27 1,929.04 1,929.76 4.99 0.97 936.55 105.22 77.49 221.40
14-Nov-2017 04:05 25.28 1,923.50 1,924.22 5.00 0.97 932.87 105.03 77.50 221.05
14-Nov-2017 03:50 25.30 1,687.32 1,687.95 4.92 0.85 824.74 105.65 77.54 222.17
14-Nov-2017 03:45 25.28 1,682.97 1,683.60 4.89 0.85 822.15 105.37 77.50 221.67
14-Nov-2017 03:40 25.24 1,677.91 1,678.55 4.87 0.84 820.50 105.18 77.43 221.32
14-Nov-2017 03:35 25.24 1,677.09 1,677.72 4.83 0.84 819.69 105.11 77.43 221.20
14-Nov-2017 03:25 25.24 1,676.00 1,676.64 4.79 0.84 819.50 104.89 77.43 220.80
14-Nov-2017 03:15 25.25 1,674.92 1,675.55 4.73 0.84 818.69 104.17 77.45 219.51
14-Nov-2017 03:10 25.26 1,673.70 1,674.33 4.71 0.84 818.84 103.69 77.47 218.64
14-Nov-2017 03:05 25.29 1,672.78 1,673.41 4.69 0.84 818.06 103.39 77.52 218.10
14-Nov-2017 02:50 25.32 1,671.87 1,672.49 4.59 0.84 817.61 103.54 77.58 218.37
14-Nov-2017 02:45 25.33 1,671.22 1,671.83 4.57 0.84 816.89 103.96 77.59 219.13
14-Nov-2017 02:35 25.38 1,668.69 1,669.30 4.55 0.84 815.99 102.85 77.68 217.13
14-Nov-2017 02:30 25.41 1,668.73 1,669.33 4.52 0.84 816.01 103.67 77.74 218.61
14-Nov-2017 02:25 25.42 1,668.08 1,668.68 4.50 0.84 815.75 103.91 77.76 219.04
14-Nov-2017 02:15 25.43 1,666.31 1,666.90 4.45 0.84 814.83 103.23 77.77 217.81
14-Nov-2017 02:05 25.44 1,666.73 1,667.33 4.41 0.84 815.37 103.24 77.79 217.83
14-Nov-2017 01:55 25.44 1,666.05 1,666.64 4.37 0.84 815.16 104.65 77.79 220.37
14-Nov-2017 01:35 25.46 1,671.83 1,672.42 4.28 0.84 817.52 104.05 77.83 219.29
14-Nov-2017 01:25 25.46 1,674.17 1,674.77 4.28 0.84 818.73 103.76 77.83 218.77
14-Nov-2017 00:40 25.48 1,687.68 1,688.27 4.18 0.85 826.62 104.61 77.86 220.30
14-Nov-2017 00:10 25.53 1,685.12 1,685.70 4.17 0.97 927.90 103.21 77.95 217.78
13-Nov-2017 23:50 25.56 1,908.98 1,909.63 4.20 0.96 928.17 103.28 78.01 217.90
13-Nov-2017 23:30 25.59 1,921.26 1,921.91 4.25 0.97 933.63 103.68 78.06 218.62
13-Nov-2017 23:25 25.59 1,923.90 1,924.55 4.26 0.97 934.73 103.70 78.06 218.66
13-Nov-2017 23:20 25.60 1,924.89 1,925.54 4.27 0.97 934.66 103.38 78.08 218.08
13-Nov-2017 23:15 25.60 1,927.21 1,927.86 4.30 0.97 935.78 103.51 78.08 218.32
13-Nov-2017 16:40 25.91 1,966.52 1,967.08 5.08 0.99 954.12 105.42 78.64 221.76
13-Nov-2017 11:30 25.64 1,915.21 1,915.85 3.93 0.97 931.10 105.93 78.15 222.67
13-Nov-2017 09:40 25.29 1,951.66 1,952.39 4.14 0.98 947.84 105.92 77.52 222.66
13-Nov-2017 03:40 25.31 1,926.04 1,926.76 4.97 0.97 936.22 105.90 77.56 222.62
13-Nov-2017 03:35 25.30 1,924.23 1,924.95 4.95 0.97 934.15 105.91 77.54 222.64
13-Nov-2017 02:25 25.26 1,695.37 1,696.00 4.62 0.86 829.42 105.84 77.47 222.51
12-Nov-2017 17:35 25.48 2,071.81 2,072.55 5.46 1.05 1,002.79 104.45 77.86 220.01
12-Nov-2017 16:35 25.47 2,097.50 2,098.24 5.27 1.05 1,008.02 105.72 77.85 222.30
12-Nov-2017 11:05 25.32 1,976.43 1,977.17 4.34 0.98 939.87 105.16 77.58 221.29
12-Nov-2017 10:50 25.34 1,980.17 1,980.90 4.26 0.98 943.66 105.86 77.61 222.55
12-Nov-2017 10:45 25.35 1,985.06 1,985.79 4.10 0.99 945.66 104.50 77.63 220.10
12-Nov-2017 09:15 25.11 2,032.93 2,033.72 3.84 1.01 968.72 105.92 77.20 222.66
12-Nov-2017 08:20 25.02 2,051.01 2,051.82 4.23 1.02 978.86 105.90 77.04 222.62
12-Nov-2017 08:15 25.02 2,052.35 2,053.16 4.25 1.02 979.75 105.92 77.04 222.66
12-Nov-2017 08:05 25.04 2,063.94 2,064.75 4.34 1.03 984.86 105.91 77.07 222.64
12-Nov-2017 07:55 25.02 2,069.48 2,070.30 4.40 1.03 987.36 105.91 77.04 222.64
12-Nov-2017 07:40 25.09 2,080.90 2,081.72 4.43 1.04 993.41 105.91 77.16 222.64
12-Nov-2017 07:35 25.14 2,083.20 2,084.01 4.43 1.04 994.55 105.92 77.25 222.66
12-Nov-2017 07:30 25.15 2,085.80 2,086.61 4.51 1.04 995.22 105.90 77.27 222.62
12-Nov-2017 07:20 25.20 2,090.72 2,091.52 4.58 1.04 996.24 105.89 77.36 222.60
12-Nov-2017 07:15 25.17 2,089.94 2,090.75 4.75 1.04 995.72 105.89 77.31 222.60
12-Nov-2017 07:10 25.23 2,087.91 2,088.70 4.63 1.04 995.71 105.90 77.41 222.62
12-Nov-2017 07:05 25.21 2,084.73 2,085.53 4.65 1.04 995.04 105.89 77.38 222.60
12-Nov-2017 06:55 25.23 2,088.71 2,089.50 4.70 1.04 996.18 105.87 77.41 222.57
12-Nov-2017 06:45 25.27 2,085.93 2,086.71 4.77 1.04 995.85 105.87 77.49 222.57
12-Nov-2017 06:30 25.29 2,084.18 2,084.96 4.84 1.04 995.64 105.87 77.52 222.57
12-Nov-2017 06:15 25.31 2,086.79 2,087.57 4.87 1.04 996.84 105.87 77.56 222.57
12-Nov-2017 06:10 25.32 2,087.10 2,087.87 4.87 1.04 996.61 105.84 77.58 222.51
12-Nov-2017 05:55 25.29 2,088.54 2,089.32 4.92 1.04 998.04 105.88 77.52 222.58
12-Nov-2017 05:50 25.32 2,090.37 2,091.14 4.93 1.04 999.13 105.86 77.58 222.55
12-Nov-2017 05:35 25.38 2,092.71 2,093.47 5.00 1.05 1,000.11 105.84 77.68 222.51
12-Nov-2017 05:30 25.39 2,091.67 2,092.43 5.01 1.04 999.61 105.85 77.70 222.53
12-Nov-2017 05:15 25.40 2,083.67 2,084.42 5.03 1.04 995.25 105.59 77.72 222.06
12-Nov-2017 05:00 25.41 2,080.28 2,081.03 5.07 1.04 994.47 105.74 77.74 222.33
12-Nov-2017 04:55 25.41 2,071.73 2,072.48 5.05 1.04 993.41 105.61 77.74 222.10
12-Nov-2017 04:40 25.42 2,063.45 2,064.19 5.05 1.03 988.55 105.76 77.76 222.37
12-Nov-2017 04:30 25.41 2,056.67 2,057.41 5.05 1.03 985.47 105.68 77.74 222.22
12-Nov-2017 04:25 25.41 2,053.68 2,054.42 5.03 1.03 983.54 105.64 77.74 222.15
12-Nov-2017 04:20 25.42 2,051.15 2,051.89 5.01 1.03 982.18 105.64 77.76 222.15
12-Nov-2017 04:15 25.42 2,048.53 2,049.26 5.00 1.03 981.47 105.59 77.76 222.06
12-Nov-2017 03:45 25.36 2,035.43 2,036.18 5.01 1.02 975.30 104.87 77.65 220.77
12-Nov-2017 03:35 25.36 2,032.67 2,033.42 4.95 1.02 974.16 103.73 77.65 218.71
12-Nov-2017 03:10 25.32 2,013.82 2,014.57 4.88 1.01 966.34 105.02 77.58 221.04
12-Nov-2017 03:00 25.32 2,004.41 2,005.15 4.84 1.00 960.84 105.07 77.58 221.13
12-Nov-2017 02:50 25.31 1,989.40 1,990.14 4.81 0.99 954.14 104.94 77.56 220.89
12-Nov-2017 02:45 25.31 1,982.12 1,982.85 4.80 0.99 949.90 104.97 77.56 220.95
12-Nov-2017 02:20 25.36 1,961.07 1,961.79 4.72 0.98 939.46 104.11 77.65 219.40
12-Nov-2017 02:15 25.38 1,958.95 1,959.66 4.70 0.98 937.27 104.23 77.68 219.61
12-Nov-2017 02:10 25.39 1,955.80 1,956.51 4.67 0.98 936.10 104.60 77.70 220.28
12-Nov-2017 02:05 25.39 1,955.97 1,956.68 4.67 0.98 936.49 104.89 77.70 220.80
12-Nov-2017 01:35 25.33 1,929.74 1,930.45 4.53 0.97 928.96 104.60 77.59 220.28
12-Nov-2017 01:15 25.36 1,925.42 1,926.12 4.45 0.96 926.99 105.09 77.65 221.16
12-Nov-2017 01:05 25.39 1,922.09 1,922.78 4.39 0.96 925.25 104.89 77.70 220.80
12-Nov-2017 01:00 25.41 1,917.91 1,918.60 4.37 0.96 924.04 104.22 77.74 219.60
12-Nov-2017 00:55 25.43 1,916.99 1,917.67 4.36 0.96 922.74 102.94 77.77 217.29
12-Nov-2017 00:50 25.44 1,914.91 1,915.60 4.34 0.96 922.15 103.25 77.79 217.85
12-Nov-2017 00:45 25.46 1,914.98 1,915.66 4.32 0.96 921.71 104.59 77.83 220.26
12-Nov-2017 00:40 25.48 1,916.18 1,916.85 4.31 0.96 921.65 104.65 77.86 220.37
12-Nov-2017 00:30 25.56 1,911.55 1,912.20 4.31 0.96 919.83 104.69 78.01 220.44
12-Nov-2017 00:25 25.60 1,910.22 1,910.87 4.31 0.96 919.19 104.90 78.08 220.82
12-Nov-2017 00:20 25.64 1,912.62 1,913.25 4.29 0.96 920.14 105.14 78.15 221.25
12-Nov-2017 00:15 25.65 1,915.72 1,916.36 4.27 0.96 920.77 105.32 78.17 221.58
12-Nov-2017 00:10 25.64 1,911.79 1,912.42 4.25 0.96 919.22 104.88 78.15 220.78
11-Nov-2017 23:55 25.64 1,906.30 1,906.93 4.18 0.95 917.02 103.77 78.15 218.79
11-Nov-2017 23:10 25.66 1,915.12 1,915.75 4.05 0.96 922.40 103.52 78.19 218.34
11-Nov-2017 22:50 25.65 1,937.00 1,937.64 4.03 0.97 932.21 104.29 78.17 219.72
11-Nov-2017 22:30 25.67 1,953.89 1,954.53 3.98 0.98 938.66 103.13 78.21 217.63
11-Nov-2017 22:05 25.72 1,986.55 1,987.19 4.00 0.99 951.23 101.57 78.30 214.83
11-Nov-2017 21:25 25.79 2,189.93 2,190.61 4.06 1.09 1,030.93 103.22 78.42 217.80
11-Nov-2017 20:35 25.85 2,202.70 2,203.36 4.21 1.09 1,036.37 103.73 78.53 218.71
11-Nov-2017 20:25 25.88 2,164.03 2,164.66 4.24 1.07 1,018.41 103.74 78.58 218.73
11-Nov-2017 20:20 25.89 2,168.96 2,169.59 4.26 1.08 1,022.50 105.00 78.60 221.00
11-Nov-2017 20:10 25.90 2,185.40 2,186.04 4.28 1.08 1,029.85 103.91 78.62 219.04
11-Nov-2017 19:45 25.96 2,175.79 2,176.40 4.40 1.08 1,024.09 103.98 78.73 219.16
11-Nov-2017 19:40 25.97 2,166.56 2,167.16 4.43 1.07 1,020.68 104.13 78.75 219.43
11-Nov-2017 19:35 25.98 2,173.45 2,174.05 4.47 1.08 1,023.41 103.27 78.76 217.89
11-Nov-2017 19:25 26.00 2,182.94 2,183.54 4.50 1.08 1,027.42 104.12 78.80 219.42
11-Nov-2017 19:15 26.01 2,185.19 2,185.79 4.55 1.08 1,029.20 104.24 78.82 219.63
11-Nov-2017 19:10 26.02 2,188.56 2,189.15 4.58 1.08 1,030.69 104.13 78.84 219.43
11-Nov-2017 19:00 26.02 2,184.92 2,185.51 4.62 1.08 1,029.53 104.44 78.84 219.99
11-Nov-2017 18:45 26.02 2,189.42 2,190.01 4.69 1.09 1,031.86 104.13 78.84 219.43
11-Nov-2017 18:30 26.03 2,182.23 2,182.81 4.75 1.08 1,029.56 105.16 78.85 221.29
11-Nov-2017 18:15 26.06 2,181.40 2,181.97 4.81 1.08 1,029.96 105.23 78.91 221.41
11-Nov-2017 18:05 26.07 2,185.65 2,186.22 4.85 1.09 1,031.57 105.65 78.93 222.17
11-Nov-2017 17:55 26.07 2,189.72 2,190.29 4.88 1.09 1,031.86 105.85 78.93 222.53
11-Nov-2017 17:35 26.11 2,185.36 2,185.91 4.93 1.08 1,030.54 105.87 79.00 222.57
11-Nov-2017 17:25 26.10 2,180.12 2,180.68 4.97 1.08 1,029.05 105.85 78.98 222.53
11-Nov-2017 17:15 26.11 2,178.71 2,179.26 5.00 1.08 1,029.19 105.87 79.00 222.57
11-Nov-2017 14:20 26.25 2,055.23 2,055.69 4.93 1.03 983.44 103.96 79.25 219.13
11-Nov-2017 14:00 26.25 2,027.16 2,027.61 4.80 1.01 970.91 105.43 79.25 221.77
11-Nov-2017 13:50 26.26 2,009.97 2,010.42 4.68 1.01 962.95 105.44 79.27 221.79
11-Nov-2017 13:10 26.38 1,950.64 1,951.02 4.55 0.98 936.15 104.98 79.48 220.96
11-Nov-2017 12:50 26.47 1,936.48 1,936.81 4.45 0.97 930.73 105.10 79.65 221.18
11-Nov-2017 12:45 26.45 1,934.89 1,935.23 4.42 0.97 929.91 104.78 79.61 220.60
11-Nov-2017 11:30 26.01 1,934.75 1,935.27 4.09 0.97 927.87 105.35 78.82 221.63
11-Nov-2017 11:15 25.97 1,949.96 1,950.50 4.04 0.97 933.91 105.75 78.75 222.35
11-Nov-2017 10:55 25.91 1,975.89 1,976.46 4.01 0.98 943.06 105.78 78.64 222.40
11-Nov-2017 10:50 25.90 1,986.52 1,987.10 4.01 0.99 947.43 105.43 78.62 221.77
11-Nov-2017 10:40 25.87 2,008.65 2,009.24 3.98 1.00 956.47 105.76 78.57 222.37
11-Nov-2017 10:15 25.78 2,116.98 2,117.64 3.85 1.05 999.29 105.90 78.40 222.62
11-Nov-2017 09:55 25.71 2,478.48 2,479.27 3.82 1.26 1,191.47 105.91 78.28 222.64
11-Nov-2017 09:25 25.62 2,459.32 2,460.14 3.72 1.24 1,176.43 105.93 78.12 222.67
11-Nov-2017 09:20 25.60 2,455.47 2,456.29 3.73 1.24 1,172.55 105.92 78.08 222.66
11-Nov-2017 09:15 25.58 2,446.23 2,447.07 3.72 1.23 1,166.78 105.92 78.04 222.66
11-Nov-2017 08:55 25.51 2,417.70 2,418.55 3.79 1.22 1,151.65 105.92 77.92 222.66
11-Nov-2017 08:50 25.50 2,413.69 2,414.54 3.80 1.22 1,147.89 105.92 77.90 222.66
11-Nov-2017 08:40 25.47 2,403.14 2,403.99 3.84 1.21 1,141.63 105.90 77.85 222.62
11-Nov-2017 08:35 25.47 2,390.55 2,391.40 3.88 1.20 1,134.09 105.91 77.85 222.64
11-Nov-2017 08:25 25.45 2,392.06 2,392.91 3.88 1.20 1,133.49 105.91 77.81 222.64
11-Nov-2017 08:20 25.45 2,356.35 2,357.19 3.91 1.18 1,112.74 105.90 77.81 222.62
11-Nov-2017 08:05 25.46 2,286.45 2,287.27 3.90 1.14 1,075.73 105.92 77.83 222.66
11-Nov-2017 07:55 25.48 2,219.38 2,220.16 3.91 1.10 1,044.80 105.91 77.86 222.64
11-Nov-2017 07:40 25.51 2,227.83 2,228.61 3.97 1.11 1,048.03 105.88 77.92 222.58
11-Nov-2017 07:35 25.53 2,228.89 2,229.66 4.03 1.11 1,048.86 105.91 77.95 222.64
11-Nov-2017 07:30 25.53 2,225.59 2,226.37 4.07 1.11 1,048.28 105.88 77.95 222.58
11-Nov-2017 07:25 25.56 2,243.48 2,244.25 4.13 1.11 1,056.34 105.89 78.01 222.60
11-Nov-2017 07:15 25.57 2,251.24 2,252.01 4.17 1.12 1,059.14 105.90 78.03 222.62
11-Nov-2017 07:10 25.59 2,251.92 2,252.68 4.20 1.12 1,060.15 105.62 78.06 222.12
11-Nov-2017 07:05 25.62 2,254.74 2,255.49 4.25 1.12 1,061.48 105.60 78.12 222.08
11-Nov-2017 07:00 25.64 2,259.14 2,259.89 4.28 1.12 1,063.86 105.69 78.15 222.24
11-Nov-2017 06:55 25.67 2,267.96 2,268.70 4.32 1.13 1,067.01 104.80 78.21 220.64
11-Nov-2017 06:45 25.73 2,275.59 2,276.31 4.37 1.13 1,069.02 99.78 78.31 211.60
11-Nov-2017 06:40 25.77 2,267.31 2,268.02 4.39 1.12 1,065.59 100.10 78.39 212.18
11-Nov-2017 06:35 25.79 2,269.21 2,269.91 4.42 1.13 1,066.01 99.56 78.42 211.21
11-Nov-2017 06:25 25.83 2,244.55 2,245.23 4.46 1.11 1,055.16 99.72 78.49 211.50
11-Nov-2017 06:20 25.85 2,235.43 2,236.09 4.47 1.11 1,051.15 99.85 78.53 211.73
11-Nov-2017 06:15 25.88 2,232.85 2,233.51 4.48 1.11 1,050.26 100.35 78.58 212.63
11-Nov-2017 06:10 25.91 2,226.99 2,227.64 4.50 1.10 1,048.17 100.38 78.64 212.68
11-Nov-2017 06:05 25.94 2,218.30 2,218.93 4.52 1.10 1,044.83 100.69 78.69 213.24
11-Nov-2017 06:00 25.95 2,218.43 2,219.05 4.52 1.10 1,044.98 100.26 78.71 212.47
11-Nov-2017 05:55 25.98 2,212.11 2,212.72 4.56 1.10 1,041.32 100.48 78.76 212.86
11-Nov-2017 05:50 26.00 2,209.78 2,210.38 4.57 1.10 1,041.02 99.60 78.80 211.28
11-Nov-2017 05:45 26.02 2,207.15 2,207.75 4.59 1.10 1,040.39 99.14 78.84 210.45
11-Nov-2017 05:40 26.04 2,198.59 2,199.18 4.61 1.09 1,037.09 99.78 78.87 211.60
11-Nov-2017 05:35 26.05 2,202.44 2,203.02 4.64 1.09 1,038.44 100.13 78.89 212.23
11-Nov-2017 05:30 26.08 2,199.69 2,200.26 4.66 1.09 1,038.16 99.76 78.94 211.57
11-Nov-2017 05:20 26.08 2,206.91 2,207.48 4.70 1.09 1,039.74 101.53 78.94 214.75
11-Nov-2017 05:15 26.09 2,200.29 2,200.85 4.72 1.09 1,037.80 98.94 78.96 210.09
11-Nov-2017 05:05 26.13 2,190.11 2,190.65 4.76 1.09 1,033.96 100.43 79.03 212.77
11-Nov-2017 05:00 26.16 2,188.84 2,189.38 4.77 1.09 1,034.23 99.41 79.09 210.94
11-Nov-2017 04:55 26.20 2,192.05 2,192.56 4.79 1.09 1,034.77 99.32 79.16 210.78
11-Nov-2017 04:45 26.20 2,205.37 2,205.89 4.81 1.09 1,037.89 99.06 79.16 210.31
11-Nov-2017 04:40 26.25 2,208.03 2,208.52 4.82 1.09 1,038.84 98.68 79.25 209.62
11-Nov-2017 04:35 26.22 2,209.27 2,209.77 4.83 1.09 1,039.60 98.54 79.20 209.37
11-Nov-2017 04:30 26.23 2,203.26 2,203.76 4.84 1.09 1,037.68 100.89 79.21 213.60
11-Nov-2017 04:25 26.26 2,200.55 2,201.03 4.86 1.09 1,036.41 100.74 79.27 213.33
11-Nov-2017 04:20 26.25 2,197.85 2,198.34 4.88 1.09 1,035.50 99.60 79.25 211.28
11-Nov-2017 04:15 26.22 2,203.58 2,204.08 4.89 1.09 1,037.52 100.84 79.20 213.51
11-Nov-2017 04:10 26.33 2,190.21 2,190.66 4.93 1.09 1,033.16 100.27 79.39 212.49
11-Nov-2017 04:05 26.33 2,191.94 2,192.39 4.96 1.09 1,033.24 102.33 79.39 216.19
11-Nov-2017 04:00 26.33 2,184.57 2,185.02 4.98 1.08 1,030.60 100.47 79.39 212.85
11-Nov-2017 03:55 26.34 2,182.33 2,182.77 4.99 1.08 1,030.06 102.17 79.41 215.91
11-Nov-2017 03:50 26.35 2,179.19 2,179.63 5.03 1.08 1,028.41 98.37 79.43 209.07
11-Nov-2017 03:45 26.35 2,178.12 2,178.56 5.05 1.08 1,027.25 89.18 79.43 192.52
11-Nov-2017 03:40 26.35 2,178.76 2,179.20 5.11 1.08 1,027.46 48.05 79.43 118.49
11-Nov-2017 03:35 26.34 2,177.02 2,177.46 5.13 1.08 1,026.48 46.70 79.41 116.06
11-Nov-2017 03:25 26.34 2,160.49 2,160.93 5.10 1.07 1,019.82 48.10 79.41 118.58
11-Nov-2017 03:20 26.34 2,162.10 2,162.54 5.07 1.07 1,020.00 47.50 79.41 117.50
11-Nov-2017 03:15 26.33 2,157.86 2,158.30 5.04 1.07 1,017.81 48.31 79.39 118.96
11-Nov-2017 03:05 26.29 2,139.39 2,139.85 5.02 1.06 1,010.19 48.96 79.32 120.13
11-Nov-2017 02:50 26.19 2,118.79 2,119.29 4.96 1.05 1,002.43 48.39 79.14 119.10
11-Nov-2017 01:55 26.09 2,066.76 2,067.29 4.80 1.03 981.72 50.94 78.96 123.69
11-Nov-2017 01:40 26.10 2,052.93 2,053.45 4.79 1.02 975.16 51.75 78.98 125.15
11-Nov-2017 00:50 26.27 2,006.00 2,006.44 4.67 1.00 955.46 25.19 79.29 77.34
10-Nov-2017 22:55 26.52 1,966.07 1,966.39 4.09 0.98 939.41 26.50 79.74 79.70
10-Nov-2017 21:20 26.65 1,955.27 1,955.52 3.92 0.98 937.64 26.49 79.97 79.68
10-Nov-2017 21:15 26.67 1,959.17 1,959.41 3.90 0.98 939.79 26.48 80.01 79.66
10-Nov-2017 21:10 26.68 1,959.56 1,959.80 3.89 0.98 939.65 26.48 80.02 79.66
10-Nov-2017 20:50 26.75 1,961.90 1,962.10 3.90 0.98 942.11 26.54 80.15 79.77
10-Nov-2017 20:20 26.79 1,965.74 1,965.92 3.94 0.98 944.81 26.50 80.22 79.70
10-Nov-2017 20:05 26.82 1,970.80 1,970.96 4.00 0.99 946.85 26.42 80.28 79.56
10-Nov-2017 19:25 26.89 1,974.99 1,975.11 4.12 0.99 951.06 26.43 80.40 79.57
10-Nov-2017 19:15 26.91 1,975.79 1,975.90 4.17 0.99 952.10 26.40 80.44 79.52
10-Nov-2017 18:25 27.05 2,002.76 2,002.79 4.42 1.01 964.15 26.38 80.69 79.48
10-Nov-2017 17:50 27.03 2,040.21 2,040.25 4.56 1.02 979.16 101.75 80.65 215.15
10-Nov-2017 16:50 27.15 2,078.74 2,078.70 4.72 1.04 997.68 95.16 80.87 203.29
10-Nov-2017 16:35 27.10 2,113.37 2,113.37 4.76 1.06 1,009.50 93.91 80.78 201.04
10-Nov-2017 16:30 27.09 2,109.20 2,109.21 4.78 1.06 1,008.80 93.38 80.76 200.08
10-Nov-2017 16:25 27.09 2,098.10 2,098.10 4.80 1.05 1,006.62 91.47 80.76 196.65
10-Nov-2017 16:20 27.09 2,104.15 2,104.16 4.81 1.06 1,008.31 91.99 80.76 197.58
10-Nov-2017 09:40 26.32 1,947.20 1,947.60 3.52 0.98 936.64 105.88 79.38 222.58
10-Nov-2017 09:30 26.30 1,943.70 1,944.11 3.47 0.97 936.03 105.92 79.34 222.66
10-Nov-2017 08:15 26.15 1,966.13 1,966.61 3.33 0.98 944.81 105.86 79.07 222.55
10-Nov-2017 08:05 26.13 1,970.93 1,971.41 3.39 0.99 948.41 105.88 79.03 222.58
10-Nov-2017 07:55 26.11 1,977.14 1,977.63 3.45 0.99 952.26 105.89 79.00 222.60
10-Nov-2017 07:05 26.13 1,993.98 1,994.48 3.73 1.00 959.47 26.16 79.03 79.09
10-Nov-2017 06:55 26.14 1,992.81 1,993.30 3.83 1.00 961.35 25.96 79.05 78.73
10-Nov-2017 06:50 26.15 2,005.76 2,006.25 3.86 1.01 964.44 25.95 79.07 78.71
10-Nov-2017 06:45 26.15 2,006.12 2,006.61 3.88 1.01 964.35 26.05 79.07 78.89
10-Nov-2017 06:40 26.16 1,996.10 1,996.58 3.89 1.00 963.66 26.08 79.09 78.94
10-Nov-2017 06:25 26.18 2,008.80 2,009.28 3.96 1.01 967.82 26.05 79.12 78.89
10-Nov-2017 06:20 26.18 2,013.74 2,014.22 3.98 1.01 970.41 26.05 79.12 78.89
10-Nov-2017 05:55 26.19 2,042.04 2,042.52 4.10 1.02 980.47 26.05 79.14 78.89
10-Nov-2017 05:35 26.22 2,055.25 2,055.72 4.19 1.03 985.77 25.99 79.20 78.78
10-Nov-2017 05:15 26.27 2,051.16 2,051.61 4.29 1.03 984.18 26.08 79.29 78.94
10-Nov-2017 05:00 26.22 2,045.02 2,045.49 4.40 1.02 981.32 25.95 79.20 78.71
10-Nov-2017 04:40 26.25 2,067.68 2,068.14 4.51 1.04 990.78 25.89 79.25 78.60
10-Nov-2017 04:35 26.26 2,069.85 2,070.30 4.51 1.04 991.70 25.93 79.27 78.67
10-Nov-2017 04:20 26.31 2,091.84 2,092.28 4.57 1.05 1,000.13 26.11 79.36 79.00
10-Nov-2017 03:55 26.33 2,087.23 2,087.66 4.70 1.05 999.64 26.10 79.39 78.98
10-Nov-2017 03:50 26.34 2,094.44 2,094.86 4.72 1.05 1,002.34 25.98 79.41 78.76
10-Nov-2017 03:40 26.38 2,099.29 2,099.70 4.77 1.05 1,005.06 26.09 79.48 78.96
10-Nov-2017 03:30 26.44 2,108.50 2,108.88 4.82 1.06 1,008.88 26.09 79.59 78.96
10-Nov-2017 03:25 26.56 2,116.09 2,116.41 4.87 1.06 1,011.83 26.09 79.81 78.96
10-Nov-2017 02:55 26.61 2,116.91 2,117.20 4.92 1.06 1,011.40 26.07 79.90 78.93
10-Nov-2017 02:50 26.61 2,125.47 2,125.76 4.93 1.06 1,014.03 26.07 79.90 78.93
10-Nov-2017 02:45 26.61 2,116.47 2,116.76 4.93 1.06 1,011.28 26.11 79.90 79.00
10-Nov-2017 02:35 26.61 2,118.33 2,118.62 4.94 1.06 1,009.50 26.23 79.90 79.21
10-Nov-2017 02:15 26.61 2,109.66 2,109.95 4.91 1.05 1,005.66 26.25 79.90 79.25
10-Nov-2017 02:10 26.61 2,103.80 2,104.09 4.91 1.05 1,002.96 26.27 79.90 79.29
10-Nov-2017 02:05 26.62 2,098.06 2,098.34 4.92 1.05 1,001.94 26.18 79.92 79.12
10-Nov-2017 02:00 26.61 2,095.44 2,095.73 4.91 1.05 999.07 26.18 79.90 79.12
10-Nov-2017 01:50 26.61 2,088.27 2,088.56 4.88 1.04 996.40 26.18 79.90 79.12
10-Nov-2017 00:45 26.62 2,027.90 2,028.17 4.70 1.01 968.68 26.35 79.92 79.43
10-Nov-2017 00:40 26.62 2,021.95 2,022.23 4.68 1.01 966.43 26.35 79.92 79.43
10-Nov-2017 00:25 26.62 2,000.71 2,000.98 4.63 1.00 958.02 26.42 79.92 79.56
10-Nov-2017 00:10 26.60 1,979.62 1,979.90 4.56 0.99 950.09 26.46 79.88 79.63
09-Nov-2017 21:50 26.83 1,948.66 1,948.81 4.08 0.98 937.72 26.38 80.29 79.48
09-Nov-2017 21:40 26.79 1,947.67 1,947.84 4.06 0.98 936.45 26.37 80.22 79.47
09-Nov-2017 11:15 26.49 1,978.99 1,979.32 4.29 0.99 946.35 100.83 79.68 213.49
09-Nov-2017 10:25 26.34 1,977.45 1,977.85 3.96 0.99 947.27 103.18 79.41 217.72
09-Nov-2017 08:55 26.04 1,974.55 1,975.07 3.54 0.99 946.86 105.82 78.87 222.48
09-Nov-2017 08:15 25.97 1,957.48 1,958.03 3.33 0.98 941.21 105.92 78.75 222.66
09-Nov-2017 07:50 25.90 1,951.75 1,952.31 3.27 0.98 936.13 105.93 78.62 222.67
09-Nov-2017 07:35 25.88 1,945.89 1,946.47 3.29 0.97 933.15 105.92 78.58 222.66
09-Nov-2017 07:20 25.86 1,944.29 1,944.87 3.34 0.97 931.85 105.88 78.55 222.58
09-Nov-2017 07:05 25.86 1,957.54 1,958.13 3.43 0.98 936.06 105.93 78.55 222.67
09-Nov-2017 06:40 25.87 1,983.93 1,984.52 3.63 0.99 947.39 39.68 78.57 103.42
09-Nov-2017 06:25 25.87 1,989.72 1,990.31 3.69 0.99 951.07 37.11 78.57 98.80
09-Nov-2017 06:10 25.87 1,993.82 1,994.41 3.74 0.99 952.49 28.36 78.57 83.05
09-Nov-2017 06:05 25.88 1,993.14 1,993.73 3.76 0.99 952.50 27.96 78.58 82.33
09-Nov-2017 06:00 25.89 1,998.67 1,999.26 3.77 1.00 954.57 27.73 78.60 81.91
09-Nov-2017 05:40 25.92 2,007.27 2,007.85 3.84 1.00 957.55 26.73 78.66 80.11
09-Nov-2017 05:35 25.93 2,010.22 2,010.79 3.84 1.00 959.34 26.65 78.67 79.97
09-Nov-2017 05:30 25.95 2,012.65 2,013.22 3.87 1.00 960.87 26.73 78.71 80.11
09-Nov-2017 05:25 25.95 2,011.06 2,011.63 3.89 1.00 960.89 26.71 78.71 80.08
09-Nov-2017 05:20 25.96 2,005.68 2,006.24 3.91 1.00 960.99 26.71 78.73 80.08
09-Nov-2017 05:15 25.97 2,012.75 2,013.32 3.93 1.00 962.86 26.66 78.75 79.99
09-Nov-2017 05:10 25.97 2,013.34 2,013.90 3.95 1.01 963.98 26.61 78.75 79.90
09-Nov-2017 05:05 25.98 2,017.37 2,017.93 3.98 1.01 965.09 26.67 78.76 80.01
09-Nov-2017 05:00 25.99 2,018.54 2,019.09 3.99 1.01 966.40 26.68 78.78 80.02
09-Nov-2017 04:55 26.00 2,022.62 2,023.17 4.02 1.01 968.13 26.71 78.80 80.08
09-Nov-2017 04:50 26.02 2,029.50 2,030.05 4.06 1.01 970.48 26.61 78.84 79.90
09-Nov-2017 04:45 26.03 2,023.48 2,024.02 4.08 1.01 971.88 26.60 78.85 79.88
09-Nov-2017 04:35 26.07 2,039.41 2,039.95 4.13 1.02 978.05 26.50 78.93 79.70
09-Nov-2017 04:25 26.09 2,054.96 2,055.48 4.18 1.03 983.47 26.49 78.96 79.68
09-Nov-2017 04:20 26.10 2,058.83 2,059.35 4.21 1.03 985.28 26.50 78.98 79.70
09-Nov-2017 04:15 26.11 2,059.42 2,059.94 4.23 1.03 985.73 26.46 79.00 79.63
09-Nov-2017 04:10 26.11 2,061.57 2,062.09 4.25 1.03 986.83 26.46 79.00 79.63
09-Nov-2017 04:05 26.12 2,063.91 2,064.43 4.28 1.03 986.95 26.52 79.02 79.74
09-Nov-2017 03:50 26.11 2,051.85 2,052.36 4.35 1.03 981.83 26.48 79.00 79.66
09-Nov-2017 03:45 26.03 2,047.78 2,048.32 4.37 1.02 979.98 26.48 78.85 79.66
09-Nov-2017 03:40 26.00 2,050.64 2,051.19 4.41 1.03 981.61 26.42 78.80 79.56
09-Nov-2017 03:35 26.01 2,055.02 2,055.58 4.43 1.03 983.98 26.40 78.82 79.52
09-Nov-2017 03:30 26.04 2,066.01 2,066.56 4.46 1.03 988.12 26.40 78.87 79.52
09-Nov-2017 03:25 26.08 2,080.19 2,080.73 4.51 1.04 995.55 26.44 78.94 79.59
09-Nov-2017 03:15 26.11 2,091.90 2,092.43 4.53 1.05 1,000.18 26.45 79.00 79.61
09-Nov-2017 03:10 26.14 2,095.67 2,096.19 4.55 1.05 1,003.28 26.45 79.05 79.61
09-Nov-2017 03:05 26.20 2,100.66 2,101.15 4.57 1.05 1,005.49 26.50 79.16 79.70
09-Nov-2017 02:55 26.20 2,122.32 2,122.82 4.65 1.06 1,012.60 26.43 79.16 79.57
09-Nov-2017 02:50 26.33 2,122.55 2,122.98 4.65 1.06 1,014.35 26.46 79.39 79.63
09-Nov-2017 02:45 26.43 2,120.95 2,121.34 4.68 1.06 1,013.65 26.39 79.57 79.50
09-Nov-2017 02:40 26.47 2,121.27 2,121.64 4.70 1.06 1,013.13 26.35 79.65 79.43
09-Nov-2017 02:35 26.47 2,123.95 2,124.32 4.74 1.06 1,013.70 26.34 79.65 79.41
09-Nov-2017 02:30 26.45 2,115.21 2,115.58 4.77 1.06 1,012.28 26.35 79.61 79.43
09-Nov-2017 02:15 26.49 2,122.08 2,122.43 4.79 1.06 1,015.18 26.47 79.68 79.65
09-Nov-2017 01:50 26.61 2,130.77 2,131.06 4.90 1.06 1,016.14 26.32 79.90 79.38
09-Nov-2017 01:45 26.65 2,115.80 2,116.07 4.93 1.06 1,011.53 26.20 79.97 79.16
09-Nov-2017 01:40 26.67 2,115.38 2,115.64 4.93 1.06 1,010.82 26.20 80.01 79.16
09-Nov-2017 01:35 26.69 2,113.45 2,113.70 4.93 1.06 1,009.66 26.23 80.04 79.21
09-Nov-2017 01:30 26.71 2,104.12 2,104.36 4.93 1.05 1,006.51 26.18 80.08 79.12
09-Nov-2017 01:25 26.72 2,101.00 2,101.23 4.95 1.05 1,005.60 26.10 80.10 78.98
09-Nov-2017 01:15 26.73 2,103.47 2,103.69 4.96 1.05 1,006.08 26.08 80.11 78.94
09-Nov-2017 01:10 26.73 2,099.66 2,099.88 4.97 1.05 1,004.97 25.98 80.11 78.76
09-Nov-2017 01:05 26.73 2,097.46 2,097.68 4.97 1.05 1,003.40 25.98 80.11 78.76
08-Nov-2017 10:35 26.21 1,950.70 1,951.15 4.19 0.98 943.36 92.26 79.18 198.07
08-Nov-2017 10:20 26.09 1,942.93 1,943.43 4.07 0.98 940.09 93.18 78.96 199.72
08-Nov-2017 09:35 25.95 1,953.63 1,954.18 3.77 0.98 945.39 86.36 78.71 187.45
08-Nov-2017 05:35 25.88 1,969.31 1,969.89 3.54 0.99 953.81 24.85 78.58 76.73
08-Nov-2017 05:25 25.90 1,972.16 1,972.74 3.57 0.99 955.02 24.91 78.62 76.84
08-Nov-2017 05:15 25.94 1,977.73 1,978.30 3.60 1.00 957.59 25.02 78.69 77.04
08-Nov-2017 05:05 25.96 1,980.66 1,981.21 3.64 1.00 958.47 25.08 78.73 77.14
08-Nov-2017 03:45 26.13 2,016.18 2,016.68 4.04 1.02 974.80 25.12 79.03 77.22
08-Nov-2017 03:40 26.14 2,019.17 2,019.66 4.07 1.02 976.66 25.16 79.05 77.29
08-Nov-2017 03:35 26.15 2,020.31 2,020.80 4.08 1.02 977.13 25.14 79.07 77.25
08-Nov-2017 03:20 26.23 2,024.79 2,025.25 4.16 1.02 978.35 25.26 79.21 77.47
08-Nov-2017 03:05 26.31 2,024.86 2,025.28 4.21 1.02 978.64 25.50 79.36 77.90
08-Nov-2017 03:00 26.34 2,023.42 2,023.83 4.23 1.02 978.35 25.67 79.41 78.21
08-Nov-2017 02:50 26.29 2,012.69 2,013.12 4.29 1.01 973.19 25.68 79.32 78.22
08-Nov-2017 02:45 26.20 2,011.10 2,011.57 4.31 1.01 972.17 25.78 79.16 78.40
08-Nov-2017 02:35 26.21 2,008.62 2,009.08 4.35 1.01 972.73 25.94 79.18 78.69
08-Nov-2017 02:30 26.23 2,016.16 2,016.62 4.38 1.02 975.28 25.93 79.21 78.67
08-Nov-2017 02:25 26.26 2,019.28 2,019.73 4.41 1.02 977.55 25.89 79.27 78.60
08-Nov-2017 02:15 26.33 2,027.60 2,028.02 4.49 1.02 980.73 25.82 79.39 78.48
08-Nov-2017 02:10 26.36 2,030.17 2,030.57 4.52 1.02 982.30 25.73 79.45 78.31
08-Nov-2017 02:05 26.40 2,034.31 2,034.69 4.55 1.03 984.08 25.70 79.52 78.26
08-Nov-2017 01:55 26.41 2,036.03 2,036.41 4.62 1.03 984.91 25.56 79.54 78.01
08-Nov-2017 01:50 26.39 2,036.69 2,037.08 4.65 1.03 985.66 25.47 79.50 77.85
08-Nov-2017 01:45 26.40 2,040.46 2,040.85 4.69 1.03 986.49 25.42 79.52 77.76
08-Nov-2017 01:40 26.42 2,044.55 2,044.93 4.71 1.03 989.15 25.41 79.56 77.74
08-Nov-2017 01:35 26.44 2,049.05 2,049.41 4.73 1.03 990.66 25.48 79.59 77.86
08-Nov-2017 01:30 26.50 2,055.48 2,055.82 4.77 1.04 994.44 25.53 79.70 77.95
08-Nov-2017 01:20 26.50 2,061.44 2,061.78 4.80 1.04 996.64 25.54 79.70 77.97
08-Nov-2017 01:15 26.60 2,063.82 2,064.11 4.82 1.04 997.75 25.59 79.88 78.06
08-Nov-2017 01:10 26.64 2,063.69 2,063.96 4.82 1.04 997.86 25.58 79.95 78.04
08-Nov-2017 00:55 26.72 2,055.90 2,056.13 4.87 1.04 994.95 25.83 80.10 78.49
08-Nov-2017 00:50 26.72 2,054.17 2,054.40 4.88 1.04 993.85 25.80 80.10 78.44
08-Nov-2017 00:45 26.71 2,052.04 2,052.27 4.88 1.04 992.30 25.91 80.08 78.64
08-Nov-2017 00:35 26.71 2,044.19 2,044.42 4.90 1.03 988.82 25.91 80.08 78.64
08-Nov-2017 00:30 26.69 2,041.28 2,041.52 4.91 1.03 986.71 25.86 80.04 78.55
08-Nov-2017 00:20 26.67 2,032.70 2,032.94 4.89 1.02 982.98 25.95 80.01 78.71
08-Nov-2017 00:10 26.65 2,025.07 2,025.34 4.88 1.02 979.17 25.90 79.97 78.62
08-Nov-2017 00:05 26.62 2,020.31 2,020.58 4.87 1.02 976.81 25.82 79.92 78.48
07-Nov-2017 23:50 26.59 2,009.66 2,009.95 4.86 1.01 971.66 25.85 79.86 78.53
07-Nov-2017 23:25 26.51 1,991.87 1,992.20 4.81 1.00 964.12 25.94 79.72 78.69
07-Nov-2017 23:15 26.48 1,989.61 1,989.95 4.80 1.00 962.46 25.91 79.66 78.64
07-Nov-2017 23:05 26.48 1,986.75 1,987.09 4.78 1.00 960.66 25.71 79.66 78.28
07-Nov-2017 22:45 26.51 1,974.45 1,974.77 4.70 0.99 955.54 26.04 79.72 78.87
07-Nov-2017 22:40 26.50 1,970.72 1,971.05 4.69 0.99 953.18 25.96 79.70 78.73
07-Nov-2017 22:25 26.47 1,954.93 1,955.27 4.65 0.98 945.48 25.75 79.65 78.35
07-Nov-2017 22:10 26.36 1,942.03 1,942.41 4.61 0.98 939.34 25.84 79.45 78.51
07-Nov-2017 21:50 26.25 1,936.76 1,937.19 4.55 0.97 936.37 25.53 79.25 77.95
07-Nov-2017 21:15 26.36 1,950.75 1,951.14 4.46 0.98 943.27 25.22 79.45 77.40
07-Nov-2017 20:30 26.32 1,942.75 1,943.15 4.21 0.98 938.81 25.53 79.38 77.95
07-Nov-2017 19:50 26.40 1,936.40 1,936.77 4.07 0.97 937.05 25.76 79.52 78.37
07-Nov-2017 19:35 26.47 1,930.91 1,931.24 4.03 0.97 934.25 25.75 79.65 78.35
07-Nov-2017 18:35 26.47 1,921.70 1,922.03 3.81 0.97 929.77 25.90 79.65 78.62
07-Nov-2017 17:55 26.62 1,932.39 1,932.65 3.78 0.97 935.16 25.99 79.92 78.78
07-Nov-2017 17:30 26.77 1,954.17 1,954.35 3.77 0.98 944.45 26.10 80.19 78.98
07-Nov-2017 12:15 26.94 2,107.32 2,107.42 4.68 1.06 1,016.57 26.35 80.49 79.43
07-Nov-2017 04:00 25.81 2,050.15 2,050.77 3.62 1.03 982.58 89.53 78.46 193.15
07-Nov-2017 03:55 25.82 2,047.79 2,048.41 3.66 1.03 981.83 86.01 78.48 186.82
07-Nov-2017 03:45 25.84 2,048.63 2,049.25 3.68 1.03 982.30 90.27 78.51 194.49
07-Nov-2017 03:40 25.85 2,055.66 2,056.27 3.68 1.03 984.55 90.86 78.53 195.55
07-Nov-2017 03:35 25.85 2,053.24 2,053.85 3.70 1.03 984.88 88.47 78.53 191.25
07-Nov-2017 03:30 25.87 2,053.52 2,054.13 3.72 1.03 986.00 92.91 78.57 199.24
07-Nov-2017 03:25 25.90 2,058.42 2,059.02 3.73 1.03 987.13 90.72 78.62 195.30
07-Nov-2017 02:00 26.27 2,076.89 2,077.35 4.12 1.04 995.99 92.55 79.29 198.59
07-Nov-2017 01:35 26.11 2,077.65 2,078.17 4.25 1.04 995.43 98.72 79.00 209.70
07-Nov-2017 01:15 26.13 2,094.23 2,094.75 4.42 1.05 1,003.56 100.59 79.03 213.06
07-Nov-2017 01:05 26.26 2,102.11 2,102.57 4.49 1.05 1,007.18 45.39 79.27 113.70
07-Nov-2017 01:00 26.23 2,099.55 2,100.02 4.52 1.05 1,006.65 44.76 79.21 112.57
07-Nov-2017 00:50 26.22 2,099.43 2,099.91 4.56 1.05 1,006.88 44.42 79.20 111.96
07-Nov-2017 00:45 26.20 2,093.55 2,094.04 4.60 1.05 1,005.98 44.02 79.16 111.24
07-Nov-2017 00:35 26.19 2,103.15 2,103.65 4.67 1.06 1,010.42 43.59 79.14 110.46
07-Nov-2017 00:30 26.18 2,115.91 2,116.41 4.68 1.06 1,016.05 45.04 79.12 113.07
07-Nov-2017 00:25 26.27 2,113.96 2,114.43 4.71 1.06 1,018.79 45.03 79.29 113.05
07-Nov-2017 00:20 26.28 2,123.95 2,124.41 4.74 1.07 1,022.75 44.83 79.30 112.69
07-Nov-2017 00:10 26.67 2,164.14 2,164.40 4.78 1.08 1,033.72 45.15 80.01 113.27
07-Nov-2017 00:00 26.74 2,143.73 2,143.95 4.83 1.08 1,027.40 46.29 80.13 115.32
06-Nov-2017 23:55 26.74 2,147.70 2,147.92 4.83 1.08 1,027.43 45.83 80.13 114.49
06-Nov-2017 23:45 26.75 2,141.26 2,141.48 4.84 1.07 1,025.18 45.23 80.15 113.41
06-Nov-2017 23:40 26.74 2,127.57 2,127.79 4.84 1.07 1,020.63 46.36 80.13 115.45
06-Nov-2017 23:35 26.74 2,123.23 2,123.45 4.84 1.07 1,020.31 46.28 80.13 115.30
06-Nov-2017 23:30 26.74 2,123.64 2,123.86 4.83 1.07 1,020.02 46.21 80.13 115.18
06-Nov-2017 23:25 26.73 2,137.59 2,137.82 4.82 1.07 1,022.99 45.97 80.11 114.75
06-Nov-2017 23:20 26.73 2,128.47 2,128.70 4.82 1.07 1,020.08 46.13 80.11 115.03
06-Nov-2017 23:10 26.71 2,122.60 2,122.83 4.81 1.07 1,017.44 45.53 80.08 113.95
06-Nov-2017 23:05 26.69 2,106.01 2,106.26 4.80 1.06 1,011.56 46.45 80.04 115.61
06-Nov-2017 22:55 26.69 2,102.56 2,102.81 4.80 1.06 1,010.22 46.02 80.04 114.84
06-Nov-2017 22:50 26.68 2,095.51 2,095.76 4.79 1.05 1,007.84 47.89 80.02 118.20
06-Nov-2017 22:45 26.67 2,093.43 2,093.69 4.79 1.05 1,007.12 48.63 80.01 119.53
06-Nov-2017 22:40 26.65 2,092.15 2,092.42 4.79 1.05 1,005.90 47.98 79.97 118.36
06-Nov-2017 22:35 26.65 2,117.40 2,117.67 4.79 1.06 1,012.10 47.70 79.97 117.86
06-Nov-2017 22:30 26.63 2,095.19 2,095.46 4.78 1.05 1,006.11 47.10 79.93 116.78
06-Nov-2017 22:25 26.62 2,099.25 2,099.54 4.78 1.05 1,005.30 47.84 79.92 118.11
06-Nov-2017 22:20 26.62 2,100.85 2,101.14 4.77 1.05 1,005.50 47.55 79.92 117.59
06-Nov-2017 22:10 26.61 2,085.09 2,085.38 4.74 1.04 998.88 48.35 79.90 119.03
06-Nov-2017 22:05 26.60 2,076.63 2,076.92 4.73 1.04 995.37 47.24 79.88 117.03
06-Nov-2017 21:55 26.60 2,037.54 2,037.82 4.69 1.03 983.60 49.72 79.88 121.50
06-Nov-2017 21:50 26.61 2,034.77 2,035.05 4.68 1.02 981.91 49.82 79.90 121.68
06-Nov-2017 21:45 26.61 2,030.86 2,031.14 4.66 1.02 980.16 49.66 79.90 121.39
06-Nov-2017 21:40 26.63 2,027.38 2,027.66 4.65 1.02 977.79 49.94 79.93 121.89
06-Nov-2017 21:35 26.61 2,025.27 2,025.55 4.63 1.02 976.18 49.92 79.90 121.86
06-Nov-2017 21:30 26.59 2,020.71 2,021.00 4.61 1.01 973.05 49.73 79.86 121.51
06-Nov-2017 21:25 26.55 2,017.00 2,017.30 4.59 1.01 970.63 49.29 79.79 120.72
06-Nov-2017 21:15 26.45 1,990.18 1,990.53 4.56 1.00 960.10 49.15 79.61 120.47
06-Nov-2017 21:10 26.36 1,982.27 1,982.67 4.54 1.00 956.78 49.54 79.45 121.17
06-Nov-2017 21:05 26.30 1,979.73 1,980.15 4.52 0.99 954.18 49.55 79.34 121.19
06-Nov-2017 20:55 26.20 1,968.42 1,968.88 4.49 0.99 948.10 51.31 79.16 124.36
06-Nov-2017 20:50 26.09 1,952.62 1,953.12 4.45 0.98 943.33 51.16 78.96 124.09
06-Nov-2017 20:35 26.10 1,958.50 1,958.99 4.42 0.98 945.97 49.33 78.98 120.79
06-Nov-2017 20:30 26.13 1,962.05 1,962.54 4.40 0.99 947.48 48.22 79.03 118.80
06-Nov-2017 20:25 26.14 1,965.23 1,965.71 4.37 0.99 949.41 49.27 79.05 120.69
06-Nov-2017 20:20 26.18 1,969.89 1,970.36 4.34 0.99 951.12 48.57 79.12 119.43
06-Nov-2017 20:15 26.22 1,980.44 1,980.89 4.30 0.99 954.95 50.24 79.20 122.43
06-Nov-2017 20:05 26.24 1,981.92 1,982.37 4.29 0.99 954.64 48.36 79.23 119.05
06-Nov-2017 19:55 26.20 1,982.99 1,983.45 4.26 0.99 954.66 48.83 79.16 119.89
06-Nov-2017 19:50 26.19 1,987.01 1,987.48 4.24 1.00 955.73 48.99 79.14 120.18
06-Nov-2017 19:45 26.19 1,997.15 1,997.62 4.21 1.00 958.40 47.95 79.14 118.31
06-Nov-2017 19:40 26.18 2,013.74 2,014.22 4.18 1.01 962.96 48.11 79.12 118.60
06-Nov-2017 19:35 26.18 2,011.54 2,012.02 4.16 1.01 962.36 48.75 79.12 119.75
06-Nov-2017 19:30 26.17 2,026.69 2,027.17 4.14 1.01 966.86 48.69 79.11 119.64
06-Nov-2017 19:25 26.17 2,030.20 2,030.68 4.12 1.01 967.90 49.11 79.11 120.40
06-Nov-2017 19:20 26.16 2,033.49 2,033.98 4.11 1.01 969.08 47.94 79.09 118.29
06-Nov-2017 19:10 26.19 2,039.79 2,040.27 4.10 1.02 971.90 47.11 79.14 116.80
06-Nov-2017 19:05 26.20 2,030.38 2,030.85 4.10 1.01 969.16 45.86 79.16 114.55
06-Nov-2017 19:00 26.21 2,021.20 2,021.67 4.07 1.01 965.24 46.46 79.18 115.63
06-Nov-2017 18:55 26.20 2,015.10 2,015.57 4.07 1.01 962.82 46.37 79.16 115.47
06-Nov-2017 18:45 26.23 2,009.43 2,009.89 4.05 1.00 959.50 47.35 79.21 117.23
06-Nov-2017 18:35 26.21 1,987.99 1,988.45 4.02 0.99 951.19 47.29 79.18 117.12
06-Nov-2017 18:30 26.21 1,983.20 1,983.66 3.98 0.99 948.87 47.20 79.18 116.96
06-Nov-2017 18:20 26.20 1,970.34 1,970.80 3.94 0.98 943.59 46.88 79.16 116.38
06-Nov-2017 18:10 26.18 1,960.37 1,960.84 3.89 0.98 939.10 46.29 79.12 115.32
06-Nov-2017 18:05 26.18 1,953.84 1,954.30 3.88 0.98 936.12 46.04 79.12 114.87
06-Nov-2017 17:55 26.18 1,941.57 1,942.03 3.82 0.97 932.19 45.90 79.12 114.62
06-Nov-2017 17:45 26.19 1,940.42 1,940.88 3.76 0.97 932.52 45.99 79.14 114.78
06-Nov-2017 17:40 26.20 1,957.85 1,958.31 3.73 0.98 936.77 46.22 79.16 115.20
06-Nov-2017 17:30 26.21 1,964.12 1,964.57 3.70 0.98 938.57 46.21 79.18 115.18
06-Nov-2017 17:20 26.24 1,951.15 1,951.59 3.65 0.98 935.71 47.52 79.23 117.54
06-Nov-2017 17:15 26.24 1,949.28 1,949.72 3.63 0.98 935.56 47.15 79.23 116.87
06-Nov-2017 17:05 26.27 1,962.13 1,962.56 3.61 0.98 940.69 47.27 79.29 117.09
06-Nov-2017 15:55 26.69 2,024.55 2,024.79 3.62 1.01 966.99 48.35 80.04 119.03
06-Nov-2017 15:40 26.73 2,026.07 2,026.29 3.68 1.01 966.90 46.48 80.11 115.66
06-Nov-2017 11:45 26.60 2,124.99 2,125.29 4.61 1.07 1,020.24 47.29 79.88 117.12
06-Nov-2017 11:40 26.59 2,116.72 2,117.02 4.60 1.06 1,017.89 47.32 79.86 117.18
06-Nov-2017 11:30 26.52 2,112.14 2,112.48 4.64 1.06 1,016.24 44.36 79.74 111.85
06-Nov-2017 11:20 26.46 2,107.85 2,108.22 4.63 1.06 1,015.65 44.81 79.63 112.66
06-Nov-2017 11:15 26.44 2,103.27 2,103.65 4.61 1.06 1,013.57 45.10 79.59 113.18
06-Nov-2017 11:00 26.34 2,105.73 2,106.16 4.51 1.06 1,014.10 45.50 79.41 113.90
06-Nov-2017 10:40 26.22 2,099.99 2,100.48 4.50 1.06 1,011.15 44.97 79.20 112.95
06-Nov-2017 10:35 26.19 2,095.07 2,095.56 4.50 1.05 1,009.12 44.57 79.14 112.23
06-Nov-2017 10:30 26.13 2,093.25 2,093.77 4.53 1.05 1,008.08 44.08 79.03 111.34
06-Nov-2017 10:25 26.10 2,083.25 2,083.77 4.54 1.05 1,004.85 45.50 78.98 113.90
06-Nov-2017 10:20 26.06 2,082.71 2,083.26 4.56 1.05 1,004.52 45.05 78.91 113.09
06-Nov-2017 10:15 26.00 2,081.96 2,082.53 4.55 1.05 1,003.24 44.99 78.80 112.98
06-Nov-2017 10:10 25.97 2,076.30 2,076.88 4.53 1.05 1,001.31 44.10 78.75 111.38
06-Nov-2017 10:05 25.91 2,081.29 2,081.89 4.52 1.05 1,001.67 44.54 78.64 112.17
06-Nov-2017 10:00 25.87 2,079.05 2,079.66 4.48 1.05 1,000.83 44.92 78.57 112.86
06-Nov-2017 09:55 25.82 2,077.17 2,077.81 4.45 1.04 999.97 43.50 78.48 110.30
06-Nov-2017 09:50 25.77 2,071.78 2,072.43 4.42 1.04 997.53 44.71 78.39 112.48
06-Nov-2017 09:45 25.73 2,072.66 2,073.32 4.39 1.04 997.03 42.62 78.31 108.72
06-Nov-2017 09:40 25.68 2,063.94 2,064.61 4.37 1.04 994.30 43.63 78.22 110.53
06-Nov-2017 09:35 25.63 2,056.07 2,056.75 4.34 1.03 990.74 42.65 78.13 108.77
06-Nov-2017 09:30 25.59 2,044.81 2,045.50 4.31 1.03 986.74 43.45 78.06 110.21
06-Nov-2017 09:20 25.46 2,033.30 2,034.02 4.26 1.02 979.50 43.96 77.83 111.13
06-Nov-2017 06:55 24.92 1,967.07 1,967.86 3.75 0.99 948.68 24.26 76.86 75.67
06-Nov-2017 05:30 24.98 1,954.91 1,955.69 3.35 0.98 946.25 24.17 76.96 75.51
06-Nov-2017 05:15 25.03 1,968.78 1,969.56 3.34 0.99 952.77 24.29 77.05 75.72
06-Nov-2017 04:00 25.05 1,986.37 1,987.15 3.44 1.00 960.75 24.11 77.09 75.40
06-Nov-2017 03:55 25.05 1,991.74 1,992.53 3.44 1.00 962.43 24.15 77.09 75.47
06-Nov-2017 03:45 25.06 2,004.77 2,005.55 3.47 1.01 965.60 24.13 77.11 75.43
06-Nov-2017 03:15 25.12 2,026.67 2,027.45 3.56 1.02 973.75 24.40 77.22 75.92
06-Nov-2017 02:35 25.18 2,045.63 2,046.41 3.72 1.02 981.27 24.44 77.32 75.99
06-Nov-2017 02:25 25.19 2,034.54 2,035.31 3.79 1.02 977.77 24.41 77.34 75.94
06-Nov-2017 02:20 25.20 2,036.43 2,037.21 3.79 1.02 978.91 24.42 77.36 75.96
06-Nov-2017 02:15 25.22 2,041.51 2,042.29 3.82 1.02 981.03 24.47 77.40 76.05
06-Nov-2017 02:10 25.23 2,039.15 2,039.93 3.85 1.02 981.66 24.52 77.41 76.14
06-Nov-2017 02:00 25.25 2,033.84 2,034.61 3.91 1.02 980.43 24.50 77.45 76.10
06-Nov-2017 01:55 25.26 2,036.78 2,037.55 3.93 1.02 982.34 24.59 77.47 76.26
06-Nov-2017 01:30 25.35 2,069.03 2,069.79 4.08 1.04 994.58 24.65 77.63 76.37
06-Nov-2017 01:25 25.39 2,083.20 2,083.95 4.10 1.04 1,000.26 24.67 77.70 76.41
06-Nov-2017 01:20 25.43 2,090.06 2,090.81 4.14 1.05 1,003.10 24.72 77.77 76.50
06-Nov-2017 01:10 25.49 2,089.55 2,090.29 4.19 1.05 1,003.74 24.71 77.88 76.48
06-Nov-2017 01:05 25.51 2,083.31 2,084.04 4.22 1.05 1,002.69 24.75 77.92 76.55
06-Nov-2017 00:55 25.57 2,103.59 2,104.31 4.31 1.05 1,007.82 24.88 78.03 76.78
06-Nov-2017 00:40 25.36 2,104.48 2,105.25 4.38 1.05 1,007.34 25.00 77.65 77.00
06-Nov-2017 00:30 25.40 2,114.62 2,115.39 4.43 1.06 1,013.44 24.92 77.72 76.86
06-Nov-2017 00:25 25.50 2,123.64 2,124.38 4.50 1.06 1,017.81 24.96 77.90 76.93
06-Nov-2017 00:20 25.55 2,132.49 2,133.23 4.52 1.07 1,021.66 24.97 77.99 76.95
06-Nov-2017 00:10 25.70 2,141.94 2,142.63 4.56 1.07 1,024.58 24.99 78.26 76.98
06-Nov-2017 00:05 25.70 2,138.68 2,139.37 4.58 1.07 1,023.54 25.05 78.26 77.09
05-Nov-2017 23:55 25.75 2,131.85 2,132.52 4.64 1.07 1,023.45 24.94 78.35 76.89
05-Nov-2017 23:50 25.79 2,134.96 2,135.62 4.68 1.07 1,024.39 24.88 78.42 76.78
05-Nov-2017 23:45 25.84 2,133.16 2,133.81 4.70 1.07 1,024.40 24.88 78.51 76.78
05-Nov-2017 23:40 25.86 2,142.34 2,142.98 4.73 1.07 1,026.60 24.81 78.55 76.66
05-Nov-2017 23:35 25.87 2,163.29 2,163.93 4.78 1.08 1,032.70 24.83 78.57 76.69
05-Nov-2017 23:30 25.89 2,166.48 2,167.11 4.81 1.08 1,034.64 24.84 78.60 76.71
05-Nov-2017 23:25 25.90 2,158.37 2,159.00 4.84 1.08 1,031.27 24.88 78.62 76.78
05-Nov-2017 23:20 25.90 2,151.36 2,151.99 4.87 1.08 1,029.62 24.91 78.62 76.84
05-Nov-2017 23:10 25.89 2,141.97 2,142.59 4.89 1.08 1,026.42 24.86 78.60 76.75
05-Nov-2017 23:05 25.90 2,127.69 2,128.31 4.95 1.07 1,022.08 25.02 78.62 77.04
05-Nov-2017 23:00 25.90 2,124.83 2,125.45 4.97 1.07 1,021.49 24.95 78.62 76.91
05-Nov-2017 22:50 25.89 2,125.57 2,126.19 5.00 1.07 1,020.82 24.90 78.60 76.82
05-Nov-2017 22:40 25.89 2,124.56 2,125.18 5.05 1.07 1,020.23 24.71 78.60 76.48
05-Nov-2017 22:35 25.89 2,139.14 2,139.76 5.07 1.07 1,024.23 24.65 78.60 76.37
05-Nov-2017 22:30 25.89 2,142.65 2,143.27 5.09 1.07 1,025.09 24.36 78.60 75.85
05-Nov-2017 22:25 25.90 2,141.87 2,142.49 5.09 1.07 1,024.05 24.28 78.62 75.70
05-Nov-2017 22:20 25.90 2,144.53 2,145.16 5.08 1.07 1,023.77 24.42 78.62 75.96
05-Nov-2017 22:10 25.91 2,142.17 2,142.79 5.05 1.07 1,021.44 24.61 78.64 76.30
05-Nov-2017 22:05 25.92 2,135.91 2,136.53 5.04 1.07 1,020.22 24.54 78.66 76.17
05-Nov-2017 21:55 25.94 2,122.91 2,123.51 4.99 1.07 1,018.20 24.84 78.69 76.71
05-Nov-2017 21:50 25.94 2,121.37 2,121.97 4.95 1.06 1,016.83 25.14 78.69 77.25
05-Nov-2017 21:40 25.96 2,115.68 2,116.27 4.92 1.06 1,012.75 25.44 78.73 77.79
05-Nov-2017 21:35 25.97 2,111.21 2,111.80 4.92 1.06 1,011.40 25.37 78.75 77.67
05-Nov-2017 21:30 25.99 2,110.31 2,110.89 4.92 1.06 1,010.49 25.38 78.78 77.68
05-Nov-2017 21:15 26.02 2,082.43 2,082.99 4.90 1.05 1,000.54 25.28 78.84 77.50
05-Nov-2017 21:10 26.03 2,073.82 2,074.37 4.90 1.04 998.73 25.19 78.85 77.34
05-Nov-2017 21:05 26.03 2,066.36 2,066.91 4.91 1.04 995.84 24.81 78.85 76.66
05-Nov-2017 21:00 26.04 2,063.34 2,063.89 4.90 1.04 994.59 24.61 78.87 76.30
05-Nov-2017 20:55 26.04 2,063.74 2,064.29 4.89 1.04 992.63 24.55 78.87 76.19
05-Nov-2017 20:50 26.04 2,062.00 2,062.55 4.88 1.03 991.27 24.54 78.87 76.17
05-Nov-2017 20:40 26.04 2,054.63 2,055.18 4.86 1.03 988.15 24.53 78.87 76.15
05-Nov-2017 20:35 26.01 2,028.15 2,028.70 4.84 1.02 977.04 24.14 78.82 75.45
05-Nov-2017 20:30 25.96 2,020.73 2,021.30 4.82 1.01 972.77 24.28 78.73 75.70
05-Nov-2017 20:25 25.91 2,014.79 2,015.38 4.80 1.01 969.72 24.14 78.64 75.45
05-Nov-2017 20:20 25.85 2,013.95 2,014.56 4.78 1.01 967.55 24.23 78.53 75.61
05-Nov-2017 20:10 25.78 1,996.37 1,996.99 4.72 1.00 957.62 24.50 78.40 76.10
05-Nov-2017 20:00 25.68 1,971.54 1,972.18 4.68 0.99 947.21 24.33 78.22 75.79
05-Nov-2017 19:50 25.60 1,965.68 1,966.35 4.64 0.98 943.44 24.60 78.08 76.28
05-Nov-2017 19:40 25.64 1,972.06 1,972.72 4.58 0.99 945.69 24.90 78.15 76.82
05-Nov-2017 19:10 25.69 1,971.75 1,972.39 4.50 0.99 946.75 24.67 78.24 76.41
05-Nov-2017 19:05 25.66 1,974.24 1,974.89 4.48 0.99 947.36 24.66 78.19 76.39
05-Nov-2017 19:00 25.66 1,975.28 1,975.93 4.45 0.99 947.69 24.53 78.19 76.15
05-Nov-2017 18:55 25.66 1,976.49 1,977.14 4.44 0.99 947.68 24.44 78.19 75.99
05-Nov-2017 18:50 25.66 1,975.96 1,976.61 4.42 0.99 947.76 24.47 78.19 76.05
05-Nov-2017 18:40 25.66 1,974.59 1,975.23 4.39 0.99 947.27 24.49 78.19 76.08
05-Nov-2017 18:30 25.64 1,965.19 1,965.85 4.36 0.98 945.46 24.70 78.15 76.46
05-Nov-2017 18:20 25.58 1,971.27 1,971.94 4.32 0.99 946.97 24.87 78.04 76.77
05-Nov-2017 18:15 25.56 1,972.41 1,973.08 4.27 0.99 947.27 69.46 78.01 157.03
05-Nov-2017 18:05 25.57 1,970.88 1,971.55 4.25 0.99 946.78 70.07 78.03 158.13
05-Nov-2017 18:00 25.55 1,973.89 1,974.57 4.20 0.99 946.26 68.22 77.99 154.80
05-Nov-2017 17:50 25.56 1,969.11 1,969.78 4.18 0.98 944.75 67.54 78.01 153.57
05-Nov-2017 17:40 25.57 1,960.60 1,961.27 4.10 0.98 939.71 64.27 78.03 147.69
05-Nov-2017 17:35 25.56 1,947.20 1,947.86 4.02 0.97 934.13 63.98 78.01 147.16
05-Nov-2017 17:25 25.55 1,941.97 1,942.64 3.97 0.97 931.45 64.61 77.99 148.30
05-Nov-2017 17:20 25.54 1,937.41 1,938.08 3.92 0.97 929.69 65.31 77.97 149.56
05-Nov-2017 17:15 25.52 1,939.52 1,940.20 3.86 0.97 929.91 65.63 77.94 150.13
05-Nov-2017 17:05 25.53 1,945.25 1,945.92 3.82 0.97 931.58 65.62 77.95 150.12
05-Nov-2017 17:00 25.55 1,954.74 1,955.42 3.75 0.97 935.77 65.51 77.99 149.92
05-Nov-2017 16:50 25.55 1,963.78 1,964.45 3.73 0.98 938.72 65.26 77.99 149.47
05-Nov-2017 16:40 25.58 1,975.24 1,975.91 3.67 0.98 942.53 66.51 78.04 151.72
05-Nov-2017 16:35 25.64 1,984.57 1,985.23 3.64 0.99 947.55 65.90 78.15 150.62
05-Nov-2017 16:30 25.68 1,985.63 1,986.28 3.62 0.99 948.69 65.50 78.22 149.90
05-Nov-2017 16:20 25.73 1,996.81 1,997.44 3.67 1.00 952.64 65.75 78.31 150.35
05-Nov-2017 16:15 25.80 1,994.87 1,995.48 3.65 0.99 953.59 65.93 78.44 150.67
05-Nov-2017 16:05 25.85 1,993.90 1,994.49 3.62 1.00 953.77 65.61 78.53 150.10
05-Nov-2017 16:00 25.85 1,992.12 1,992.72 3.62 0.99 952.78 65.80 78.53 150.44
05-Nov-2017 15:55 25.87 1,993.79 1,994.39 3.60 1.00 954.71 63.71 78.57 146.68
05-Nov-2017 15:40 25.93 1,995.33 1,995.90 3.58 1.00 955.39 65.80 78.67 150.44
05-Nov-2017 15:20 25.92 1,995.64 1,996.21 3.55 1.00 956.31 65.86 78.66 150.55
05-Nov-2017 15:15 25.92 2,003.50 2,004.07 3.58 1.00 960.49 66.07 78.66 150.93
05-Nov-2017 15:10 25.92 2,007.29 2,007.87 3.62 1.00 961.84 67.66 78.66 153.79
05-Nov-2017 15:05 25.92 2,009.43 2,010.01 3.63 1.01 963.52 69.05 78.66 156.29
05-Nov-2017 15:00 25.90 2,010.61 2,011.20 3.64 1.01 963.67 68.39 78.62 155.10
05-Nov-2017 14:50 25.90 2,010.75 2,011.34 3.69 1.01 965.16 65.95 78.62 150.71
05-Nov-2017 14:40 25.91 2,008.13 2,008.71 3.78 1.01 964.79 67.02 78.64 152.64
05-Nov-2017 14:35 25.92 2,017.76 2,018.34 3.84 1.01 968.21 65.75 78.66 150.35
05-Nov-2017 14:30 25.92 2,018.83 2,019.41 3.86 1.01 969.82 66.82 78.66 152.28
05-Nov-2017 14:20 25.90 2,025.50 2,026.09 3.92 1.02 973.14 66.20 78.62 151.16
05-Nov-2017 14:10 25.89 2,031.70 2,032.29 3.94 1.02 976.48 66.52 78.60 151.74
05-Nov-2017 13:45 25.83 2,057.98 2,058.61 4.07 1.03 989.35 65.95 78.49 150.71
05-Nov-2017 13:40 25.85 2,066.84 2,067.45 4.08 1.04 992.89 67.05 78.53 152.69
05-Nov-2017 13:35 25.84 2,074.62 2,075.25 4.13 1.04 995.04 64.65 78.51 148.37
05-Nov-2017 13:20 25.85 2,078.36 2,078.98 4.23 1.04 997.85 63.54 78.53 146.37
05-Nov-2017 13:10 25.86 2,079.18 2,079.80 4.29 1.04 998.17 64.33 78.55 147.79
05-Nov-2017 13:05 25.85 2,083.35 2,083.97 4.33 1.04 998.94 65.24 78.53 149.43
05-Nov-2017 13:00 25.56 2,072.42 2,073.13 4.38 1.04 992.88 65.29 78.01 149.52
05-Nov-2017 12:55 25.41 2,075.29 2,076.04 4.39 1.04 994.28 64.23 77.74 147.61
05-Nov-2017 12:50 25.41 2,078.20 2,078.95 4.44 1.04 996.17 64.80 77.74 148.64
05-Nov-2017 12:45 25.44 2,085.27 2,086.02 4.45 1.05 1,000.10 64.76 77.79 148.57
05-Nov-2017 12:40 25.42 2,095.39 2,096.14 4.49 1.05 1,005.05 63.27 77.76 145.89
05-Nov-2017 12:35 25.45 2,105.19 2,105.94 4.51 1.06 1,010.08 62.05 77.81 143.69
05-Nov-2017 12:25 25.44 2,120.06 2,120.82 4.56 1.06 1,016.64 62.45 77.79 144.41
05-Nov-2017 12:15 25.44 2,145.67 2,146.44 4.61 1.08 1,026.84 60.66 77.79 141.19
05-Nov-2017 12:10 25.51 2,154.26 2,155.01 4.62 1.08 1,031.09 60.24 77.92 140.43
05-Nov-2017 12:05 25.60 2,163.02 2,163.75 4.64 1.08 1,035.84 58.54 78.08 137.37
05-Nov-2017 12:00 25.78 2,162.47 2,163.15 4.68 1.09 1,036.86 55.68 78.40 132.22
05-Nov-2017 11:55 25.83 2,160.46 2,161.11 4.71 1.09 1,036.56 55.47 78.49 131.85
05-Nov-2017 11:50 25.81 2,165.45 2,166.11 4.72 1.09 1,039.21 52.22 78.46 126.00
05-Nov-2017 11:45 25.86 2,175.00 2,175.65 4.75 1.09 1,042.29 51.47 78.55 124.65
05-Nov-2017 11:35 25.87 2,174.49 2,175.13 4.81 1.09 1,042.15 51.31 78.57 124.36
05-Nov-2017 11:30 25.87 2,167.76 2,168.40 4.82 1.09 1,039.39 48.50 78.57 119.30
05-Nov-2017 11:25 25.88 2,160.10 2,160.74 4.84 1.09 1,037.25 43.13 78.58 109.63
05-Nov-2017 11:20 25.85 2,165.89 2,166.54 4.85 1.09 1,038.61 41.90 78.53 107.42
05-Nov-2017 11:15 25.84 2,164.87 2,165.52 4.85 1.09 1,037.66 41.34 78.51 106.41
05-Nov-2017 05:20 24.08 1,932.36 1,933.12 3.69 0.97 929.42 47.77 75.34 117.99
05-Nov-2017 05:15 24.09 1,926.61 1,927.37 3.66 0.96 927.38 47.46 75.36 117.43
05-Nov-2017 03:15 24.34 2,012.53 2,013.35 3.48 1.00 962.71 45.58 75.81 114.04
05-Nov-2017 02:55 24.38 2,022.62 2,023.45 3.52 1.01 967.31 46.95 75.88 116.51
05-Nov-2017 02:40 24.40 2,025.24 2,026.06 3.58 1.01 968.52 46.52 75.92 115.74
05-Nov-2017 02:15 24.43 2,042.25 2,043.08 3.64 1.02 975.69 63.48 75.97 146.26
05-Nov-2017 02:10 24.44 2,039.62 2,040.45 3.65 1.02 975.38 65.99 75.99 150.78
05-Nov-2017 01:50 24.48 2,046.63 2,047.47 3.73 1.02 982.88 62.14 76.06 143.85
05-Nov-2017 01:40 24.50 2,054.59 2,055.43 3.78 1.03 985.33 63.82 76.10 146.88
05-Nov-2017 01:10 24.63 2,097.63 2,098.49 3.96 1.05 1,002.26 61.46 76.33 142.63
05-Nov-2017 01:05 24.65 2,101.13 2,101.99 4.00 1.05 1,003.79 60.51 76.37 140.92
05-Nov-2017 01:00 24.69 2,112.23 2,113.09 4.02 1.05 1,007.57 60.36 76.44 140.65
05-Nov-2017 01:50 24.73 2,122.34 2,123.21 4.09 1.06 1,012.36 61.36 76.51 142.45
05-Nov-2017 01:45 24.79 2,128.58 2,129.44 4.11 1.06 1,015.84 59.85 76.62 139.73
05-Nov-2017 01:30 24.88 2,142.21 2,143.07 4.19 1.07 1,021.82 61.18 76.78 142.12
05-Nov-2017 01:25 24.92 2,144.16 2,145.02 4.21 1.07 1,022.63 59.50 76.86 139.10
05-Nov-2017 01:10 24.73 2,155.70 2,156.57 4.30 1.07 1,025.00 58.83 76.51 137.89
04-Nov-2017 23:40 25.69 2,162.87 2,163.57 4.80 1.08 1,035.01 44.98 78.24 112.96
04-Nov-2017 23:30 25.66 2,110.40 2,111.10 4.84 1.07 1,020.51 49.05 78.19 120.29
04-Nov-2017 23:20 25.72 2,106.19 2,106.86 4.91 1.06 1,018.40 46.82 78.30 116.28
04-Nov-2017 23:00 25.68 2,102.51 2,103.19 4.95 1.06 1,016.08 74.31 78.22 165.76
04-Nov-2017 22:55 25.67 2,101.27 2,101.96 4.95 1.06 1,015.58 72.27 78.21 162.09
04-Nov-2017 22:50 25.65 2,098.77 2,099.46 4.96 1.06 1,014.32 71.89 78.17 161.40
04-Nov-2017 22:45 25.65 2,094.83 2,095.52 4.95 1.06 1,013.36 64.53 78.17 148.15
04-Nov-2017 22:30 25.61 2,084.63 2,085.33 4.97 1.05 1,008.13 25.51 78.10 77.92
04-Nov-2017 22:25 25.61 2,085.79 2,086.49 4.98 1.05 1,008.13 25.39 78.10 77.70
04-Nov-2017 22:20 25.59 2,086.61 2,087.31 4.97 1.05 1,006.97 25.32 78.06 77.58
04-Nov-2017 22:15 25.59 2,090.28 2,090.99 4.95 1.05 1,008.80 25.39 78.06 77.70
04-Nov-2017 22:10 25.58 2,091.16 2,091.88 4.94 1.05 1,009.32 25.40 78.04 77.72
04-Nov-2017 22:05 25.56 2,085.61 2,086.32 4.93 1.05 1,006.67 25.37 78.01 77.67
04-Nov-2017 21:55 25.55 2,084.78 2,085.50 4.93 1.05 1,005.75 25.33 77.99 77.59
04-Nov-2017 21:50 25.54 2,082.22 2,082.94 4.93 1.05 1,004.90 25.19 77.97 77.34
04-Nov-2017 21:45 25.52 2,080.74 2,081.46 4.93 1.05 1,003.38 25.05 77.94 77.09
04-Nov-2017 21:40 25.53 2,075.79 2,076.51 4.94 1.05 1,001.39 25.00 77.95 77.00
04-Nov-2017 21:35 25.52 2,071.73 2,072.45 4.93 1.04 999.74 25.03 77.94 77.05
04-Nov-2017 21:25 25.51 2,062.22 2,062.94 4.89 1.04 995.04 25.08 77.92 77.14
04-Nov-2017 21:20 25.51 2,057.12 2,057.84 4.87 1.04 992.36 25.13 77.92 77.23
04-Nov-2017 21:10 25.48 2,046.17 2,046.89 4.84 1.03 986.89 25.32 77.86 77.58
04-Nov-2017 21:05 25.45 2,041.16 2,041.89 4.81 1.03 984.10 25.35 77.81 77.63
04-Nov-2017 21:00 25.40 2,030.58 2,031.31 4.76 1.02 977.18 25.34 77.72 77.61
04-Nov-2017 20:55 25.39 2,019.84 2,020.58 4.74 1.01 973.48 25.36 77.70 77.65
04-Nov-2017 20:45 25.36 2,012.63 2,013.36 4.72 1.01 969.05 25.37 77.65 77.67
04-Nov-2017 20:40 25.32 2,003.32 2,004.07 4.71 1.01 964.16 25.40 77.58 77.72
04-Nov-2017 20:30 25.19 1,987.58 1,988.34 4.67 1.00 955.13 25.41 77.34 77.74
04-Nov-2017 20:20 25.09 1,983.99 1,984.77 4.64 0.99 951.52 25.47 77.16 77.85
04-Nov-2017 20:10 25.03 2,006.52 2,007.31 4.60 1.00 955.95 25.46 77.05 77.83
04-Nov-2017 20:05 24.95 2,002.20 2,003.00 4.59 1.00 953.76 25.46 76.91 77.83
04-Nov-2017 20:00 24.91 2,015.40 2,016.21 4.54 1.00 959.72 25.35 76.84 77.63
04-Nov-2017 19:50 24.91 2,017.38 2,018.19 4.52 1.00 959.23 25.29 76.84 77.52
04-Nov-2017 19:40 24.95 1,981.36 1,982.16 4.45 0.99 948.90 25.35 76.91 77.63
04-Nov-2017 19:30 25.02 1,980.87 1,981.65 4.40 0.99 948.39 25.39 77.04 77.70
04-Nov-2017 19:25 25.04 1,974.63 1,975.41 4.36 0.99 946.83 25.41 77.07 77.74
04-Nov-2017 19:20 25.05 1,970.72 1,971.50 4.32 0.99 944.91 25.44 77.09 77.79
04-Nov-2017 19:15 25.04 1,969.69 1,970.46 4.24 0.98 943.79 25.43 77.07 77.77
04-Nov-2017 19:05 25.04 1,967.29 1,968.07 4.21 0.98 943.46 25.49 77.07 77.88
04-Nov-2017 18:55 25.01 1,961.25 1,962.03 4.15 0.98 941.20 25.50 77.02 77.90
04-Nov-2017 18:50 25.01 1,961.05 1,961.83 4.11 0.98 940.16 25.55 77.02 77.99
04-Nov-2017 18:45 25.00 1,961.20 1,961.98 4.08 0.98 940.07 25.57 77.00 78.03
04-Nov-2017 18:40 24.98 1,957.41 1,958.19 4.03 0.98 938.62 25.60 76.96 78.08
04-Nov-2017 18:35 24.93 1,946.37 1,947.15 3.95 0.97 934.70 25.85 76.87 78.53
04-Nov-2017 18:30 24.91 1,948.60 1,949.38 3.93 0.97 936.39 25.89 76.84 78.60
04-Nov-2017 18:20 24.92 1,943.36 1,944.14 3.88 0.97 934.38 25.98 76.86 78.76
04-Nov-2017 18:15 24.88 1,942.36 1,943.14 3.85 0.97 934.39 26.01 76.78 78.82
04-Nov-2017 18:05 24.90 1,946.07 1,946.85 3.83 0.97 935.43 26.09 76.82 78.96
04-Nov-2017 18:00 24.91 1,947.42 1,948.20 3.77 0.97 936.53 26.20 76.84 79.16
04-Nov-2017 17:55 24.95 1,943.28 1,944.06 3.76 0.97 934.65 26.14 76.91 79.05
04-Nov-2017 17:50 24.94 1,937.17 1,937.95 3.73 0.97 931.45 26.13 76.89 79.03
04-Nov-2017 17:40 24.92 1,929.39 1,930.16 3.70 0.97 928.41 26.09 76.86 78.96
04-Nov-2017 17:30 24.87 1,934.58 1,935.36 3.68 0.97 928.10 25.86 76.77 78.55
04-Nov-2017 17:25 24.86 1,935.55 1,936.33 3.67 0.97 929.41 25.67 76.75 78.21
04-Nov-2017 17:20 24.87 1,935.91 1,936.69 3.64 0.97 929.87 25.53 76.77 77.95
04-Nov-2017 17:15 24.87 1,943.63 1,944.42 3.60 0.97 932.59 25.41 76.77 77.74
04-Nov-2017 17:10 24.89 1,954.02 1,954.80 3.58 0.98 936.20 25.17 76.80 77.31
04-Nov-2017 17:00 24.92 1,968.43 1,969.22 3.64 0.98 942.54 24.86 76.86 76.75
04-Nov-2017 16:55 24.94 1,986.15 1,986.94 3.64 0.99 948.32 24.75 76.89 76.55
04-Nov-2017 16:50 24.97 1,994.43 1,995.22 3.66 0.99 951.93 24.71 76.95 76.48
04-Nov-2017 16:45 25.02 1,994.57 1,995.36 3.69 0.99 952.27 24.66 77.04 76.39
04-Nov-2017 16:35 25.06 1,991.80 1,992.58 3.73 0.99 952.92 24.67 77.11 76.41
04-Nov-2017 16:30 25.12 1,994.20 1,994.98 3.77 1.00 954.09 24.25 77.22 75.65
04-Nov-2017 16:20 25.18 1,998.35 1,999.12 3.75 1.00 955.18 24.22 77.32 75.60
04-Nov-2017 16:15 25.20 1,997.09 1,997.85 3.76 1.00 954.99 24.28 77.36 75.70
04-Nov-2017 16:10 25.21 1,999.61 2,000.37 3.80 1.00 955.74 24.11 77.38 75.40
04-Nov-2017 16:05 25.24 2,004.00 2,004.76 3.83 1.00 957.69 23.98 77.43 75.16
04-Nov-2017 16:00 25.25 2,004.04 2,004.80 3.85 1.00 957.89 23.89 77.45 75.00
04-Nov-2017 15:50 25.28 2,005.60 2,006.35 3.87 1.00 959.09 23.78 77.50 74.80
04-Nov-2017 15:45 25.28 1,999.94 2,000.69 3.86 1.00 956.86 23.61 77.50 74.50
04-Nov-2017 15:40 25.32 1,999.79 2,000.53 3.88 1.00 957.69 23.25 77.58 73.85
04-Nov-2017 15:30 25.38 2,020.99 2,021.73 3.92 1.01 964.56 23.62 77.68 74.52
04-Nov-2017 15:25 25.35 2,017.96 2,018.70 3.92 1.01 963.34 23.69 77.63 74.64
04-Nov-2017 15:20 25.39 2,012.64 2,013.37 3.90 1.00 962.57 23.82 77.70 74.88
04-Nov-2017 15:05 25.44 2,012.57 2,013.29 3.87 1.00 963.20 24.29 77.79 75.72
04-Nov-2017 14:30 25.50 2,052.74 2,053.47 3.76 1.02 978.90 25.07 77.90 77.13
04-Nov-2017 14:15 25.47 2,069.84 2,070.57 3.75 1.03 986.57 25.10 77.85 77.18
04-Nov-2017 14:10 25.43 2,074.34 2,075.08 3.77 1.03 988.61 25.03 77.77 77.05
04-Nov-2017 14:05 25.44 2,080.69 2,081.44 3.79 1.04 991.02 25.03 77.79 77.05
04-Nov-2017 13:40 25.39 2,101.57 2,102.33 3.89 1.05 999.88 24.91 77.70 76.84
04-Nov-2017 13:35 25.40 2,102.22 2,102.98 3.90 1.05 1,000.36 24.95 77.72 76.91
04-Nov-2017 13:30 25.38 2,091.39 2,092.15 3.91 1.04 997.70 24.98 77.68 76.96
04-Nov-2017 13:25 25.37 2,095.97 2,096.74 3.91 1.05 999.55 25.04 77.67 77.07
04-Nov-2017 13:20 25.38 2,087.89 2,088.65 3.93 1.05 1,000.18 25.06 77.68 77.11
04-Nov-2017 13:10 25.07 2,085.14 2,085.96 3.97 1.04 996.77 24.99 77.13 76.98
04-Nov-2017 13:05 24.99 2,101.65 2,102.48 3.97 1.05 1,002.32 24.93 76.98 76.87
04-Nov-2017 12:55 24.92 2,130.97 2,131.83 4.00 1.06 1,014.21 24.83 76.86 76.69
04-Nov-2017 12:30 24.87 2,187.77 2,188.65 4.09 1.09 1,039.64 24.72 76.77 76.50
04-Nov-2017 12:20 25.05 2,203.53 2,204.39 4.15 1.10 1,047.62 24.68 77.09 76.42
04-Nov-2017 12:15 25.36 2,207.44 2,208.25 4.16 1.10 1,048.96 24.60 77.65 76.28
04-Nov-2017 12:10 25.41 2,196.12 2,196.91 4.19 1.10 1,046.16 24.58 77.74 76.24
04-Nov-2017 12:05 25.42 2,196.92 2,197.71 4.22 1.10 1,046.81 24.56 77.76 76.21
04-Nov-2017 12:00 25.40 2,193.06 2,193.85 4.28 1.10 1,045.64 24.57 77.72 76.23
04-Nov-2017 11:55 25.39 2,201.12 2,201.92 4.31 1.10 1,048.27 100.45 77.70 212.81
04-Nov-2017 11:50 25.41 2,198.04 2,198.83 4.33 1.10 1,047.81 101.34 77.74 214.41
04-Nov-2017 11:45 25.40 2,189.49 2,190.28 4.35 1.10 1,043.86 101.04 77.72 213.87
04-Nov-2017 11:40 25.42 2,196.07 2,196.86 4.35 1.10 1,045.74 101.13 77.76 214.03
04-Nov-2017 11:15 25.33 2,169.87 2,170.67 4.44 1.09 1,037.70 101.41 77.59 214.54
04-Nov-2017 11:05 25.26 2,188.86 2,189.68 4.46 1.09 1,042.38 24.41 77.47 75.94
04-Nov-2017 10:55 25.20 2,164.87 2,165.70 4.48 1.08 1,033.35 102.98 77.36 217.36
04-Nov-2017 00:10 24.34 2,054.74 2,055.58 4.37 1.04 993.78 96.01 75.81 204.82
04-Nov-2017 00:05 24.42 2,066.47 2,067.31 4.42 1.04 998.82 96.78 75.96 206.20
04-Nov-2017 00:00 24.64 2,072.40 2,073.24 4.44 1.04 1,001.69 98.00 76.35 208.40
03-Nov-2017 23:50 24.81 2,074.31 2,075.15 4.47 1.04 1,002.43 95.98 76.66 204.76
03-Nov-2017 23:45 24.84 2,072.43 2,073.27 4.48 1.04 1,000.64 96.12 76.71 205.02
03-Nov-2017 23:40 24.82 2,071.92 2,072.76 4.50 1.04 1,001.21 97.09 76.68 206.76
03-Nov-2017 23:35 24.83 2,066.16 2,066.99 4.52 1.04 1,000.42 97.02 76.69 206.64
03-Nov-2017 23:30 24.85 2,067.81 2,068.64 4.55 1.04 1,001.02 96.45 76.73 205.61
03-Nov-2017 23:25 24.87 2,069.09 2,069.93 4.58 1.04 1,001.37 96.74 76.77 206.13
03-Nov-2017 23:20 24.89 2,068.69 2,069.53 4.61 1.04 1,001.87 97.24 76.80 207.03
03-Nov-2017 23:10 24.89 2,073.73 2,074.56 4.65 1.05 1,002.42 96.75 76.80 206.15
03-Nov-2017 23:05 24.93 2,073.66 2,074.49 4.67 1.05 1,002.55 94.45 76.87 202.01
03-Nov-2017 23:00 24.93 2,075.38 2,076.21 4.73 1.05 1,004.00 93.81 76.87 200.86
03-Nov-2017 22:50 24.95 2,073.61 2,074.43 4.76 1.05 1,003.05 95.87 76.91 204.57
03-Nov-2017 22:45 24.92 2,071.91 2,072.74 4.79 1.04 1,002.25 96.72 76.86 206.10
03-Nov-2017 22:40 24.95 2,071.40 2,072.23 4.83 1.05 1,002.71 95.39 76.91 203.70
03-Nov-2017 22:35 24.95 2,068.19 2,069.02 4.85 1.04 1,000.98 96.04 76.91 204.87
03-Nov-2017 22:30 24.95 2,068.54 2,069.36 4.86 1.04 1,000.70 96.30 76.91 205.34
03-Nov-2017 22:25 24.93 2,066.75 2,067.57 4.86 1.04 999.60 96.40 76.87 205.52
03-Nov-2017 22:20 24.92 2,064.96 2,065.79 4.88 1.04 999.55 95.96 76.86 204.73
03-Nov-2017 22:15 24.92 2,063.68 2,064.51 4.88 1.04 998.49 96.65 76.86 205.97
03-Nov-2017 22:05 24.91 2,065.31 2,066.13 4.89 1.04 998.84 96.48 76.84 205.66
03-Nov-2017 21:55 24.89 2,063.63 2,064.46 4.88 1.04 998.66 96.22 76.80 205.20
03-Nov-2017 21:45 24.88 2,068.83 2,069.66 4.88 1.04 1,000.97 96.73 76.78 206.11
03-Nov-2017 21:40 24.87 2,072.31 2,073.14 4.87 1.05 1,002.53 98.72 76.77 209.70
03-Nov-2017 21:35 24.87 2,068.69 2,069.53 4.85 1.04 1,001.00 95.94 76.77 204.69
03-Nov-2017 21:30 24.86 2,061.40 2,062.23 4.82 1.04 997.25 94.81 76.75 202.66
03-Nov-2017 21:20 24.87 2,061.29 2,062.12 4.82 1.04 997.44 96.39 76.77 205.50
03-Nov-2017 21:10 24.87 2,061.05 2,061.89 4.82 1.04 996.55 95.49 76.77 203.88
03-Nov-2017 21:05 24.87 2,059.60 2,060.43 4.81 1.04 996.29 96.06 76.77 204.91
03-Nov-2017 21:00 24.85 2,055.80 2,056.63 4.80 1.04 994.40 94.81 76.73 202.66
03-Nov-2017 20:55 24.85 2,054.14 2,054.96 4.80 1.04 993.25 96.48 76.73 205.66
03-Nov-2017 20:45 24.85 2,051.56 2,052.39 4.77 1.03 992.28 96.71 76.73 206.08
03-Nov-2017 20:40 24.85 2,050.27 2,051.10 4.74 1.03 992.02 95.25 76.73 203.45
03-Nov-2017 20:35 24.85 2,046.97 2,047.80 4.73 1.03 990.27 95.51 76.73 203.92
03-Nov-2017 20:25 24.86 2,042.79 2,043.62 4.71 1.03 988.02 93.91 76.75 201.04
03-Nov-2017 20:20 24.88 2,030.59 2,031.41 4.70 1.02 982.09 91.89 76.78 197.40
03-Nov-2017 20:10 24.86 2,024.39 2,025.21 4.69 1.02 979.56 95.09 76.75 203.16
03-Nov-2017 20:05 24.83 2,015.62 2,016.43 4.68 1.01 975.04 94.76 76.69 202.57
03-Nov-2017 19:55 24.79 1,999.06 1,999.87 4.65 1.01 967.31 93.43 76.62 200.17
03-Nov-2017 19:50 24.76 1,989.04 1,989.84 4.65 1.00 962.85 94.55 76.57 202.19
03-Nov-2017 19:40 24.70 1,971.81 1,972.62 4.60 0.99 953.75 92.61 76.46 198.70
03-Nov-2017 19:35 24.69 1,962.66 1,963.47 4.58 0.99 949.86 89.33 76.44 192.79
03-Nov-2017 19:25 24.66 1,947.39 1,948.18 4.55 0.98 942.40 87.09 76.39 188.76
03-Nov-2017 19:20 24.63 1,934.83 1,935.62 4.52 0.97 936.34 88.62 76.33 191.52
03-Nov-2017 19:10 24.55 1,928.05 1,928.84 4.45 0.97 932.66 87.29 76.19 189.12
03-Nov-2017 19:05 24.57 1,926.65 1,927.44 4.43 0.97 932.21 85.66 76.23 186.19
03-Nov-2017 18:55 24.63 1,931.72 1,932.51 4.37 0.97 934.30 82.87 76.33 181.17
03-Nov-2017 18:50 24.67 1,933.03 1,933.82 4.34 0.97 934.69 82.58 76.41 180.64
03-Nov-2017 18:45 24.74 1,932.30 1,933.09 4.30 0.97 934.48 86.67 76.53 188.01
03-Nov-2017 18:40 24.78 1,931.49 1,932.28 4.26 0.97 934.39 87.72 76.60 189.90
03-Nov-2017 18:35 24.79 1,930.56 1,931.34 4.23 0.97 933.24 86.43 76.62 187.57
03-Nov-2017 18:30 24.80 1,927.50 1,928.28 4.19 0.97 932.55 88.29 76.64 190.92
03-Nov-2017 18:25 24.80 1,928.46 1,929.24 4.14 0.97 932.01 85.94 76.64 186.69
03-Nov-2017 18:20 24.79 1,926.15 1,926.93 4.09 0.97 931.69 90.10 76.62 194.18
03-Nov-2017 18:10 24.74 1,925.01 1,925.80 4.01 0.97 930.69 88.38 76.53 191.08
03-Nov-2017 18:05 24.70 1,920.38 1,921.16 3.97 0.96 927.87 89.92 76.46 193.86
03-Nov-2017 17:55 24.69 1,918.08 1,918.86 3.96 0.96 927.32 84.71 76.44 184.48
03-Nov-2017 17:50 24.51 1,920.49 1,921.28 3.92 0.96 928.29 86.22 76.12 187.20
03-Nov-2017 17:45 24.44 1,923.28 1,924.07 3.91 0.96 928.73 88.01 75.99 190.42
03-Nov-2017 17:35 24.40 1,926.50 1,927.29 3.90 0.97 929.96 84.93 75.92 184.87
03-Nov-2017 17:25 24.39 1,924.87 1,925.66 3.83 0.96 929.11 85.41 75.90 185.74
03-Nov-2017 17:20 24.37 1,926.72 1,927.50 3.80 0.97 929.99 87.22 75.87 189.00
03-Nov-2017 17:10 24.36 1,932.15 1,932.93 3.73 0.97 929.06 88.54 75.85 191.37
03-Nov-2017 17:05 24.36 1,934.57 1,935.36 3.68 0.97 928.53 84.53 75.85 184.15
03-Nov-2017 16:55 24.38 1,714.41 1,715.11 3.58 0.86 839.52 86.30 75.88 187.34
03-Nov-2017 16:50 24.40 1,715.32 1,716.02 3.49 0.86 840.09 89.49 75.92 193.08
03-Nov-2017 16:40 24.39 1,708.82 1,709.52 3.46 0.86 837.19 87.03 75.90 188.65
03-Nov-2017 16:35 24.39 1,718.27 1,718.97 3.43 0.96 924.41 87.43 75.90 189.37
03-Nov-2017 16:30 24.39 1,711.62 1,712.31 3.41 0.86 836.09 87.36 75.90 189.25
03-Nov-2017 16:20 24.39 1,715.59 1,716.29 3.42 0.87 838.15 90.42 75.90 194.76
03-Nov-2017 16:10 24.39 1,716.44 1,717.14 3.36 0.87 838.50 87.27 75.90 189.09
03-Nov-2017 16:05 24.40 1,717.15 1,717.85 3.33 0.97 927.46 89.20 75.92 192.56
03-Nov-2017 16:00 24.41 1,925.74 1,926.53 3.30 0.97 930.60 89.58 75.94 193.24
03-Nov-2017 15:55 24.43 1,927.75 1,928.54 3.26 0.97 932.77 90.97 75.97 195.75
03-Nov-2017 15:40 24.43 1,934.03 1,934.82 3.32 0.97 937.01 88.62 75.97 191.52
03-Nov-2017 15:35 24.40 1,938.00 1,938.79 3.34 0.97 938.28 88.59 75.92 191.46
03-Nov-2017 15:30 24.42 1,944.42 1,945.21 3.32 0.98 941.52 87.02 75.96 188.64
03-Nov-2017 15:25 24.46 1,950.17 1,950.96 3.31 0.98 944.66 86.40 76.03 187.52
03-Nov-2017 15:20 24.49 1,956.74 1,957.54 3.31 0.98 947.16 87.48 76.08 189.46
03-Nov-2017 15:15 24.52 1,958.20 1,959.00 3.34 0.99 948.09 85.47 76.14 185.85
03-Nov-2017 15:10 24.51 1,957.85 1,958.65 3.35 0.99 948.48 86.46 76.12 187.63
03-Nov-2017 14:55 24.50 1,960.95 1,961.75 3.39 0.99 949.24 85.84 76.10 186.51
03-Nov-2017 14:40 24.47 1,962.80 1,963.61 3.35 0.99 950.55 94.24 76.05 201.63
03-Nov-2017 14:35 24.46 1,964.42 1,965.23 3.35 0.99 951.57 90.14 76.03 194.25
03-Nov-2017 14:30 24.44 1,967.22 1,968.02 3.40 0.99 952.09 91.83 75.99 197.29
03-Nov-2017 14:25 24.42 1,968.12 1,968.92 3.41 0.99 953.98 90.46 75.96 194.83
03-Nov-2017 14:20 24.41 1,971.43 1,972.23 3.47 0.99 955.25 91.63 75.94 196.93
03-Nov-2017 14:10 24.40 1,982.19 1,983.00 3.51 1.00 959.43 91.89 75.92 197.40
03-Nov-2017 14:05 24.40 1,985.62 1,986.43 3.54 1.00 961.31 91.50 75.92 196.70
03-Nov-2017 13:55 24.37 1,992.78 1,993.59 3.59 1.00 963.68 92.66 75.87 198.79
03-Nov-2017 13:50 24.35 1,996.10 1,996.91 3.58 1.00 966.43 93.07 75.83 199.53
03-Nov-2017 13:45 24.35 1,998.71 1,999.52 3.60 1.01 967.76 89.84 75.83 193.71
03-Nov-2017 13:35 24.30 2,004.67 2,005.49 3.64 1.01 971.11 93.68 75.74 200.62
03-Nov-2017 13:30 24.24 2,010.03 2,010.84 3.67 1.01 973.87 95.08 75.63 203.14
03-Nov-2017 13:20 24.22 2,011.28 2,012.09 3.68 1.01 974.47 92.36 75.60 198.25
03-Nov-2017 13:15 24.17 2,015.36 2,016.17 3.72 1.02 976.10 93.28 75.51 199.90
03-Nov-2017 13:10 24.17 2,017.27 2,018.07 3.73 1.02 977.34 95.03 75.51 203.05
03-Nov-2017 13:05 24.12 2,019.43 2,020.23 3.75 1.02 978.07 96.29 75.42 205.32
03-Nov-2017 12:55 24.06 2,018.33 2,019.12 3.81 1.02 977.38 92.61 75.31 198.70
03-Nov-2017 12:50 24.06 2,017.67 2,018.47 3.83 1.02 977.73 86.87 75.31 188.37
03-Nov-2017 12:45 24.07 2,017.35 2,018.14 3.85 1.02 977.82 92.57 75.33 198.63
03-Nov-2017 12:40 24.03 2,013.49 2,014.28 3.88 1.01 975.31 93.71 75.25 200.68
03-Nov-2017 12:30 23.91 2,004.59 2,005.36 3.93 1.01 969.87 93.42 75.04 200.16
03-Nov-2017 12:25 23.84 2,004.52 2,005.27 3.97 1.01 970.28 88.76 74.91 191.77
03-Nov-2017 12:20 23.80 2,007.19 2,007.93 3.97 1.01 972.35 87.35 74.84 189.23
03-Nov-2017 12:10 23.79 2,028.18 2,028.93 4.06 1.02 981.91 90.76 74.82 195.37
03-Nov-2017 12:05 23.80 2,036.74 2,037.50 4.06 1.03 985.67 90.61 74.84 195.10
03-Nov-2017 11:50 23.79 2,054.00 2,054.76 4.11 1.03 994.00 105.32 74.82 221.58
03-Nov-2017 11:45 23.76 2,059.36 2,060.12 4.12 1.04 996.67 105.76 74.77 222.37
03-Nov-2017 11:40 23.81 2,067.37 2,068.14 4.28 1.04 1,000.29 105.26 74.86 221.47
03-Nov-2017 11:35 23.82 2,067.09 2,067.86 4.32 1.04 1,000.35 105.64 74.88 222.15
03-Nov-2017 11:30 23.76 2,066.78 2,067.54 4.33 1.04 1,000.71 105.86 74.77 222.55
03-Nov-2017 11:20 23.70 2,067.44 2,068.19 4.34 1.04 1,001.07 105.91 74.66 222.64
03-Nov-2017 11:10 23.73 2,076.26 2,077.02 4.36 1.05 1,004.90 105.92 74.71 222.66
03-Nov-2017 11:05 23.81 2,079.15 2,079.92 4.35 1.05 1,006.12 105.93 74.86 222.67
03-Nov-2017 11:00 23.86 2,085.85 2,086.64 4.48 1.05 1,009.90 105.93 74.95 222.67
03-Nov-2017 10:50 23.88 2,088.98 2,089.77 4.53 1.05 1,011.11 105.93 74.98 222.67
03-Nov-2017 10:45 23.96 2,093.56 2,094.37 4.54 1.06 1,013.37 105.93 75.13 222.67
03-Nov-2017 10:40 24.02 2,092.56 2,093.38 4.55 1.06 1,012.55 105.94 75.24 222.69
03-Nov-2017 10:35 24.01 2,091.72 2,092.53 4.54 1.05 1,012.06 105.93 75.22 222.67
03-Nov-2017 10:25 24.00 2,093.33 2,094.14 4.47 1.06 1,013.53 105.84 75.20 222.51
03-Nov-2017 10:20 23.96 2,092.46 2,093.27 4.51 1.05 1,012.24 105.78 75.13 222.40
03-Nov-2017 10:15 23.95 2,087.11 2,087.91 4.52 1.05 1,010.12 105.92 75.11 222.66
03-Nov-2017 10:10 23.93 2,085.69 2,086.48 4.52 1.05 1,009.27 105.91 75.07 222.64
03-Nov-2017 10:00 23.89 2,077.92 2,078.71 4.53 1.05 1,006.72 105.87 75.00 222.57
03-Nov-2017 09:55 23.88 2,076.33 2,077.12 4.53 1.05 1,006.15 105.91 74.98 222.64
03-Nov-2017 05:30 23.34 1,755.94 1,756.48 3.77 0.89 857.02 105.94 74.01 222.69
03-Nov-2017 05:20 23.27 1,755.68 1,756.20 3.76 0.88 856.90 105.94 73.89 222.69
03-Nov-2017 05:10 23.30 1,755.64 1,756.16 3.74 0.89 856.87 105.94 73.94 222.69
03-Nov-2017 05:05 23.28 1,754.55 1,755.07 3.71 0.88 856.77 105.94 73.90 222.69
03-Nov-2017 04:55 23.28 1,754.55 1,755.07 3.65 0.88 855.93 105.94 73.90 222.69
03-Nov-2017 04:45 23.25 1,754.86 1,755.37 3.58 0.88 856.50 105.94 73.85 222.69
03-Nov-2017 04:35 23.27 1,755.68 1,756.20 3.54 0.89 856.41 105.94 73.89 222.69
03-Nov-2017 04:30 23.29 1,752.56 1,753.08 3.51 0.88 854.96 105.93 73.92 222.67
03-Nov-2017 04:20 23.29 1,748.38 1,748.90 3.49 0.88 853.70 105.94 73.92 222.69
03-Nov-2017 04:10 23.29 1,746.66 1,747.18 3.47 0.88 852.51 105.94 73.92 222.69
03-Nov-2017 04:05 23.27 1,743.75 1,744.26 3.44 0.88 851.03 105.93 73.89 222.67
03-Nov-2017 04:00 23.25 1,741.11 1,741.61 3.41 0.88 850.52 105.93 73.85 222.67
03-Nov-2017 03:50 23.24 1,739.66 1,740.16 3.40 0.88 850.29 105.93 73.83 222.67
03-Nov-2017 03:45 23.24 1,739.66 1,740.16 3.39 0.88 849.46 105.93 73.83 222.67
03-Nov-2017 03:35 23.25 1,738.68 1,739.18 3.36 0.88 851.06 105.93 73.85 222.67
03-Nov-2017 03:30 23.25 1,739.53 1,740.03 3.36 0.88 851.47 105.93 73.85 222.67
03-Nov-2017 03:25 23.25 1,736.72 1,737.23 3.36 0.88 851.83 105.93 73.85 222.67
03-Nov-2017 03:20 23.26 1,731.52 1,732.02 3.36 0.87 849.69 105.94 73.87 222.69
03-Nov-2017 03:15 23.25 1,741.83 1,742.34 3.36 0.97 927.56 105.94 73.85 222.69
03-Nov-2017 03:05 23.27 1,736.80 1,737.31 3.37 0.97 927.51 105.94 73.89 222.69
03-Nov-2017 02:55 23.30 1,924.16 1,924.74 3.38 0.96 928.50 105.94 73.94 222.69
03-Nov-2017 02:50 23.31 1,930.48 1,931.06 3.39 0.97 931.88 105.94 73.96 222.69
03-Nov-2017 02:45 23.31 1,936.83 1,937.42 3.40 0.97 933.91 105.94 73.96 222.69
03-Nov-2017 02:40 23.33 1,943.42 1,944.01 3.41 0.97 937.04 105.94 73.99 222.69
03-Nov-2017 02:30 23.36 1,958.69 1,959.29 3.44 0.98 944.12 105.93 74.05 222.67
03-Nov-2017 02:25 23.37 1,964.94 1,965.56 3.46 0.98 948.16 105.94 74.07 222.69
03-Nov-2017 02:20 23.39 1,972.28 1,972.91 3.47 0.99 951.80 105.94 74.10 222.69
03-Nov-2017 02:10 23.42 1,991.23 1,991.86 3.50 1.00 959.76 105.94 74.16 222.69
03-Nov-2017 02:05 23.45 2,003.03 2,003.68 3.54 1.00 963.98 105.94 74.21 222.69
03-Nov-2017 01:55 23.45 2,008.16 2,008.82 3.55 1.01 966.65 105.94 74.21 222.69
03-Nov-2017 01:50 23.46 2,016.47 2,017.13 3.56 1.01 969.34 105.94 74.23 222.69
03-Nov-2017 01:45 23.47 2,024.52 2,025.18 3.58 1.01 972.66 105.93 74.25 222.67
03-Nov-2017 01:35 23.49 2,024.44 2,025.10 3.61 1.01 972.93 105.94 74.28 222.69
03-Nov-2017 01:30 23.49 2,029.19 2,029.86 3.64 1.02 975.16 105.93 74.28 222.67
03-Nov-2017 01:25 23.51 2,034.01 2,034.69 3.64 1.02 977.02 105.93 74.32 222.67
03-Nov-2017 01:20 23.51 2,039.34 2,040.02 3.68 1.02 979.01 105.93 74.32 222.67
03-Nov-2017 01:10 23.53 2,053.51 2,054.20 3.70 1.03 984.68 105.94 74.35 222.69
03-Nov-2017 01:05 23.55 2,064.44 2,065.14 3.71 1.03 988.94 105.94 74.39 222.69
03-Nov-2017 00:55 23.58 2,093.72 2,094.44 3.77 1.05 1,000.37 105.94 74.44 222.69
03-Nov-2017 00:50 23.59 2,113.78 2,114.51 3.79 1.05 1,008.48 105.94 74.46 222.69
03-Nov-2017 00:45 23.62 2,132.26 2,133.00 3.82 1.06 1,016.42 105.94 74.52 222.69
03-Nov-2017 00:40 23.64 2,159.91 2,160.67 3.83 1.08 1,027.66 105.94 74.55 222.69
03-Nov-2017 00:35 23.67 2,196.37 2,197.15 3.87 1.09 1,042.38 105.94 74.61 222.69
03-Nov-2017 00:30 23.70 2,242.25 2,243.06 3.90 1.12 1,062.24 105.93 74.66 222.67
03-Nov-2017 00:25 23.72 2,313.13 2,313.97 3.93 1.15 1,093.57 105.94 74.70 222.69
03-Nov-2017 00:20 23.75 2,430.97 2,431.86 3.96 1.22 1,151.75 105.93 74.75 222.67
03-Nov-2017 00:10 23.79 2,534.02 2,534.96 4.01 1.28 1,207.98 105.93 74.82 222.67
03-Nov-2017 00:05 23.79 2,495.94 2,496.86 4.07 1.26 1,187.35 105.93 74.82 222.67
02-Nov-2017 23:55 23.77 2,473.42 2,474.33 4.12 1.24 1,175.40 105.93 74.79 222.67
02-Nov-2017 23:50 23.74 2,462.61 2,463.51 4.13 1.24 1,169.25 105.93 74.73 222.67
02-Nov-2017 23:45 23.71 2,456.53 2,457.42 4.16 1.23 1,165.73 105.93 74.68 222.67
02-Nov-2017 23:35 23.67 2,439.84 2,440.71 4.23 1.22 1,154.55 105.93 74.61 222.67
02-Nov-2017 23:30 23.68 2,446.15 2,447.03 4.26 1.23 1,157.51 105.93 74.62 222.67
02-Nov-2017 23:25 23.67 2,451.05 2,451.92 4.30 1.23 1,158.94 105.93 74.61 222.67
02-Nov-2017 23:20 23.70 2,460.25 2,461.14 4.35 1.23 1,162.87 105.93 74.66 222.67
02-Nov-2017 23:15 23.74 2,464.16 2,465.06 4.39 1.23 1,163.85 105.93 74.73 222.67
02-Nov-2017 23:05 23.80 2,459.54 2,460.45 4.41 1.23 1,160.43 105.92 74.84 222.66
02-Nov-2017 22:55 23.88 2,473.40 2,474.34 4.45 1.24 1,166.62 105.94 74.98 222.69
02-Nov-2017 22:50 24.27 2,467.76 2,468.75 4.49 1.23 1,162.89 105.93 75.69 222.67
02-Nov-2017 22:45 24.30 2,453.27 2,454.26 4.52 1.22 1,155.09 105.94 75.74 222.69
02-Nov-2017 22:40 24.33 2,429.97 2,430.95 4.54 1.21 1,144.19 105.94 75.79 222.69
02-Nov-2017 22:35 24.39 2,426.24 2,427.23 4.60 1.21 1,140.04 105.94 75.90 222.69
02-Nov-2017 22:30 24.42 2,420.50 2,421.49 4.62 1.21 1,137.19 105.94 75.96 222.69
02-Nov-2017 22:25 24.45 2,413.96 2,414.95 4.64 1.20 1,133.76 105.94 76.01 222.69
02-Nov-2017 22:20 24.46 2,406.05 2,407.03 4.65 1.20 1,130.76 105.94 76.03 222.69
02-Nov-2017 22:10 24.46 2,403.98 2,404.96 4.68 1.20 1,127.97 105.94 76.03 222.69
02-Nov-2017 22:05 24.45 2,397.92 2,398.90 4.70 1.19 1,126.99 105.93 76.01 222.67
02-Nov-2017 21:55 24.48 2,392.05 2,393.03 4.73 1.19 1,124.09 105.94 76.06 222.69
02-Nov-2017 21:45 24.50 2,365.63 2,366.59 4.76 1.18 1,111.20 105.94 76.10 222.69
02-Nov-2017 21:40 24.50 2,350.62 2,351.58 4.78 1.17 1,103.28 105.94 76.10 222.69
02-Nov-2017 21:35 24.51 2,340.00 2,340.96 4.78 1.16 1,099.31 105.94 76.12 222.69
02-Nov-2017 21:25 24.50 2,327.43 2,328.38 4.78 1.16 1,094.20 105.94 76.10 222.69
02-Nov-2017 21:20 24.50 2,303.26 2,304.20 4.78 1.14 1,082.87 105.93 76.10 222.67
02-Nov-2017 21:15 24.51 2,295.06 2,296.00 4.78 1.14 1,079.69 105.94 76.12 222.69
02-Nov-2017 21:05 24.51 2,285.96 2,286.90 4.77 1.13 1,075.80 105.94 76.12 222.69
02-Nov-2017 21:00 24.50 2,264.54 2,265.47 4.77 1.12 1,067.35 105.93 76.10 222.67
02-Nov-2017 20:55 24.50 2,254.85 2,255.77 4.76 1.12 1,062.89 105.94 76.10 222.69
02-Nov-2017 20:50 24.50 2,244.75 2,245.67 4.75 1.12 1,059.70 105.93 76.10 222.67
02-Nov-2017 20:40 24.50 2,237.09 2,238.00 4.75 1.11 1,056.81 105.93 76.10 222.67
02-Nov-2017 20:35 24.50 2,232.54 2,233.45 4.75 1.11 1,054.92 105.93 76.10 222.67
02-Nov-2017 20:30 24.49 2,215.13 2,216.04 4.72 1.10 1,048.58 105.94 76.08 222.69
02-Nov-2017 20:25 24.51 2,214.24 2,215.14 4.70 1.10 1,046.39 105.93 76.12 222.67
02-Nov-2017 20:10 24.52 2,198.28 2,199.18 4.70 1.09 1,039.97 105.93 76.14 222.67
02-Nov-2017 20:05 24.50 2,173.67 2,174.56 4.70 1.08 1,034.50 105.93 76.10 222.67
02-Nov-2017 20:00 24.46 2,159.83 2,160.71 4.71 1.08 1,028.40 105.85 76.03 222.53
02-Nov-2017 19:55 24.44 2,152.16 2,153.04 4.70 1.07 1,024.21 105.64 75.99 222.15
02-Nov-2017 19:50 24.42 2,145.92 2,146.79 4.70 1.07 1,020.43 105.57 75.96 222.03
02-Nov-2017 19:40 24.40 2,137.04 2,137.92 4.72 1.06 1,016.42 105.03 75.92 221.05
02-Nov-2017 19:35 24.38 2,119.64 2,120.50 4.74 1.06 1,009.39 105.44 75.88 221.79
02-Nov-2017 19:30 24.36 2,108.62 2,109.48 4.76 1.05 1,004.74 105.75 75.85 222.35
02-Nov-2017 19:25 24.34 2,097.58 2,098.43 4.74 1.05 999.73 105.53 75.81 221.95
02-Nov-2017 19:20 24.30 2,065.79 2,066.63 4.68 1.03 983.98 105.93 75.74 222.67
02-Nov-2017 19:15 24.28 2,045.76 2,046.58 4.64 1.02 975.80 105.92 75.70 222.66
02-Nov-2017 19:10 24.24 2,025.32 2,026.14 4.59 1.01 966.26 105.88 75.63 222.58
02-Nov-2017 19:05 24.21 2,005.50 2,006.30 4.52 1.00 957.14 105.90 75.58 222.62
02-Nov-2017 19:00 24.15 1,985.65 1,986.45 4.47 0.99 946.99 105.79 75.47 222.42
02-Nov-2017 18:50 24.10 1,971.74 1,972.52 4.45 0.98 940.95 105.73 75.38 222.31
02-Nov-2017 18:45 24.01 1,966.48 1,967.24 4.41 0.98 937.63 105.86 75.22 222.55
02-Nov-2017 18:40 24.02 1,968.82 1,969.59 4.37 0.98 938.56 105.86 75.24 222.55
02-Nov-2017 18:35 24.02 1,969.32 1,970.09 4.34 0.98 938.94 105.83 75.24 222.49
02-Nov-2017 18:05 24.25 1,957.83 1,958.62 4.14 0.98 935.95 105.91 75.65 222.64
02-Nov-2017 18:00 24.27 1,954.10 1,954.89 4.10 0.97 935.51 105.91 75.69 222.64
02-Nov-2017 17:50 24.29 1,952.56 1,953.35 4.08 0.97 934.47 105.89 75.72 222.60
02-Nov-2017 17:45 24.35 1,948.70 1,949.49 4.03 0.97 932.33 105.89 75.83 222.60
02-Nov-2017 17:35 24.34 1,946.21 1,947.01 3.98 0.97 931.10 105.90 75.81 222.62
02-Nov-2017 17:30 24.32 1,945.78 1,946.57 3.95 0.97 931.22 105.91 75.78 222.64
02-Nov-2017 17:25 24.23 1,945.91 1,946.69 3.91 0.97 932.23 105.91 75.61 222.64
02-Nov-2017 17:10 24.01 1,954.09 1,954.86 3.86 0.97 936.38 105.91 75.22 222.64
02-Nov-2017 16:15 23.98 1,728.21 1,728.88 3.63 0.87 843.90 105.93 75.16 222.67
02-Nov-2017 16:10 23.98 1,724.80 1,725.47 3.58 0.87 842.18 104.89 75.16 220.80
02-Nov-2017 16:05 23.96 1,720.36 1,721.03 3.52 0.87 839.68 99.98 75.13 211.96
02-Nov-2017 15:45 23.91 1,706.51 1,707.16 3.39 0.86 831.73 100.72 75.04 213.30
02-Nov-2017 15:40 23.88 1,707.54 1,708.18 3.43 0.86 831.71 101.16 74.98 214.09
02-Nov-2017 15:35 23.86 1,706.77 1,707.42 3.40 0.86 831.80 101.62 74.95 214.92
02-Nov-2017 15:30 23.83 1,702.01 1,702.64 3.41 0.86 829.50 103.11 74.89 217.60
02-Nov-2017 15:25 23.81 1,701.13 1,701.76 3.42 0.86 829.07 103.74 74.86 218.73
02-Nov-2017 15:20 23.79 1,702.59 1,703.22 3.40 0.86 830.25 102.32 74.82 216.18
02-Nov-2017 15:15 23.77 1,706.41 1,707.04 3.43 0.86 832.04 100.50 74.79 212.90
02-Nov-2017 14:15 23.89 1,934.80 1,935.54 3.36 0.97 930.86 99.01 75.00 210.22
02-Nov-2017 13:15 23.78 1,959.43 1,960.15 3.61 0.99 948.46 100.21 74.80 212.38
02-Nov-2017 13:10 23.78 1,968.13 1,968.86 3.62 0.99 951.11 100.18 74.80 212.32
02-Nov-2017 13:05 23.78 1,971.45 1,972.17 3.62 0.99 953.33 100.32 74.80 212.58
02-Nov-2017 12:55 23.75 1,982.31 1,983.03 3.69 0.99 957.25 100.01 74.75 212.02
02-Nov-2017 12:50 23.73 1,988.56 1,989.28 3.69 1.00 959.84 100.12 74.71 212.22
02-Nov-2017 12:45 23.72 1,992.73 1,993.45 3.71 1.00 961.81 99.82 74.70 211.68
02-Nov-2017 12:40 23.69 2,002.30 2,003.02 3.74 1.01 966.21 99.62 74.64 211.32
02-Nov-2017 12:35 23.66 2,009.48 2,010.19 3.77 1.01 969.30 100.30 74.59 212.54
02-Nov-2017 12:30 23.63 2,018.59 2,019.30 3.82 1.01 972.58 99.79 74.53 211.62
02-Nov-2017 12:25 23.62 2,040.62 2,041.34 3.81 1.02 981.50 100.08 74.52 212.14
02-Nov-2017 12:15 23.61 2,064.90 2,065.62 3.84 1.03 990.17 100.28 74.50 212.50
02-Nov-2017 12:10 23.61 2,122.53 2,123.27 3.98 1.06 1,008.90 99.14 74.50 210.45
02-Nov-2017 12:00 23.63 2,105.39 2,106.13 3.99 1.05 1,004.81 99.30 74.53 210.74
02-Nov-2017 11:50 23.67 2,123.86 2,124.61 4.08 1.06 1,013.64 98.08 74.61 208.54
02-Nov-2017 11:40 23.65 2,137.22 2,137.97 4.11 1.07 1,017.87 97.75 74.57 207.95
02-Nov-2017 11:15 23.28 2,129.70 2,130.33 4.21 1.06 1,016.67 97.95 73.90 208.31
02-Nov-2017 11:05 23.25 2,148.51 2,149.14 4.24 1.07 1,024.00 98.10 73.85 208.58
02-Nov-2017 10:55 23.24 2,142.42 2,143.04 4.29 1.07 1,023.61 97.41 73.83 207.34
02-Nov-2017 10:50 23.28 2,167.88 2,168.52 4.32 1.08 1,033.69 98.22 73.90 208.80
02-Nov-2017 10:45 23.27 2,179.61 2,180.26 4.33 1.09 1,038.66 97.93 73.89 208.27
02-Nov-2017 10:35 23.37 2,170.49 2,171.17 4.35 1.09 1,037.91 98.05 74.07 208.49
02-Nov-2017 10:30 23.56 2,182.08 2,182.83 4.38 1.09 1,043.09 98.05 74.41 208.49
02-Nov-2017 10:25 23.53 2,183.31 2,184.05 4.41 1.09 1,044.28 98.88 74.35 209.98
02-Nov-2017 10:20 23.54 2,183.19 2,183.92 4.41 1.09 1,045.05 98.55 74.37 209.39
02-Nov-2017 10:10 24.11 2,196.48 2,197.35 4.46 1.10 1,050.95 99.09 75.40 210.36
02-Nov-2017 10:05 24.20 2,191.99 2,192.86 4.48 1.10 1,049.99 99.04 75.56 210.27
02-Nov-2017 09:55 24.15 2,211.19 2,212.07 4.52 1.11 1,056.85 98.86 75.47 209.95
02-Nov-2017 09:50 24.32 2,211.97 2,212.87 4.55 1.11 1,056.82 99.64 75.78 211.35
02-Nov-2017 09:45 24.29 2,210.57 2,211.47 4.57 1.11 1,055.60 99.75 75.72 211.55
02-Nov-2017 09:40 24.30 2,209.01 2,209.91 4.59 1.11 1,055.36 99.83 75.74 211.69
02-Nov-2017 09:30 24.26 2,212.13 2,213.03 4.62 1.11 1,055.75 100.39 75.67 212.70
02-Nov-2017 09:25 24.24 2,208.25 2,209.14 4.62 1.10 1,054.06 100.29 75.63 212.52
02-Nov-2017 09:20 24.22 2,203.22 2,204.10 4.62 1.10 1,052.12 100.90 75.60 213.62
02-Nov-2017 09:10 24.15 2,194.90 2,195.77 4.63 1.10 1,047.93 102.03 75.47 215.65
02-Nov-2017 09:05 24.12 2,195.15 2,196.02 4.62 1.10 1,048.23 101.69 75.42 215.04
02-Nov-2017 08:55 24.05 2,184.13 2,184.99 4.59 1.09 1,043.44 102.60 75.29 216.68
02-Nov-2017 08:50 24.02 2,187.02 2,187.87 4.59 1.09 1,044.59 103.13 75.24 217.63
02-Nov-2017 08:40 23.96 2,188.26 2,189.11 4.56 1.09 1,042.82 103.73 75.13 218.71
02-Nov-2017 08:35 23.87 2,173.80 2,174.62 4.56 1.09 1,038.52 103.71 74.97 218.68
02-Nov-2017 08:20 23.79 2,163.69 2,164.49 4.55 1.08 1,034.31 103.81 74.82 218.86
02-Nov-2017 08:05 23.74 2,157.36 2,158.14 4.58 1.08 1,032.32 104.44 74.73 219.99
02-Nov-2017 08:00 23.65 2,160.18 2,160.94 4.65 1.08 1,032.13 105.08 74.57 221.14
02-Nov-2017 07:55 23.64 2,156.27 2,157.02 4.65 1.08 1,030.01 104.76 74.55 220.57
02-Nov-2017 07:50 23.58 2,154.70 2,155.44 4.65 1.08 1,028.88 104.31 74.44 219.76
02-Nov-2017 07:05 23.23 2,104.84 2,105.45 4.55 1.05 1,006.00 104.63 73.81 220.33
02-Nov-2017 07:00 23.19 2,089.83 2,090.41 4.52 1.04 1,000.39 104.65 73.74 220.37
02-Nov-2017 06:50 23.14 2,082.40 2,082.96 4.50 1.04 996.52 104.40 73.65 219.92
02-Nov-2017 06:45 23.12 2,075.65 2,076.20 4.48 1.04 992.11 104.52 73.62 220.14
02-Nov-2017 06:40 23.09 2,066.26 2,066.79 4.45 1.03 986.91 104.69 73.56 220.44
02-Nov-2017 06:35 23.03 2,042.53 2,043.03 4.43 1.02 977.04 104.29 73.45 219.72
02-Nov-2017 06:30 22.92 2,023.76 2,024.21 4.40 1.01 968.25 104.62 73.26 220.32
02-Nov-2017 06:20 22.80 2,003.09 2,003.47 4.36 1.00 956.22 104.93 73.04 220.87
02-Nov-2017 06:10 22.62 1,963.22 1,963.50 4.30 0.98 942.35 104.76 72.72 220.57
02-Nov-2017 06:05 22.56 1,968.84 1,969.08 4.27 0.98 942.29 104.59 72.61 220.26
02-Nov-2017 05:55 22.56 1,975.81 1,976.05 4.21 0.98 944.80 104.80 72.61 220.64
02-Nov-2017 05:45 22.57 1,990.11 1,990.36 4.17 0.99 949.77 105.16 72.63 221.29
02-Nov-2017 05:40 22.58 1,963.98 1,964.23 4.13 0.98 939.94 104.77 72.64 220.59
02-Nov-2017 05:35 22.56 1,952.06 1,952.31 4.11 0.97 936.09 104.48 72.61 220.06
02-Nov-2017 05:25 22.55 1,961.38 1,961.62 4.09 0.97 935.32 104.56 72.59 220.21
02-Nov-2017 05:20 22.54 1,962.61 1,962.85 4.04 0.98 939.47 104.82 72.57 220.68
02-Nov-2017 05:10 22.53 2,016.52 2,016.76 4.02 1.00 955.91 104.91 72.55 220.84
02-Nov-2017 05:05 22.53 1,971.60 1,971.83 3.99 0.98 942.39 105.23 72.55 221.41
02-Nov-2017 05:00 22.54 1,973.75 1,973.99 3.95 0.98 944.37 104.96 72.57 220.93
02-Nov-2017 04:50 22.56 1,986.72 1,986.97 3.93 0.99 948.74 105.41 72.61 221.74
02-Nov-2017 04:45 22.58 1,998.56 1,998.82 3.91 0.99 953.38 105.13 72.64 221.23
02-Nov-2017 04:35 22.72 2,014.71 2,015.05 3.88 1.00 958.93 104.89 72.90 220.80
02-Nov-2017 04:30 22.70 1,988.56 1,988.89 3.87 0.99 950.20 105.18 72.86 221.32
02-Nov-2017 04:25 22.71 1,984.67 1,985.00 3.86 0.99 949.00 105.04 72.88 221.07
02-Nov-2017 04:20 22.72 1,988.47 1,988.81 3.84 0.99 949.78 105.07 72.90 221.13
02-Nov-2017 04:15 22.71 1,970.94 1,971.28 3.81 0.98 943.28 105.42 72.88 221.76
02-Nov-2017 04:10 22.68 1,966.76 1,967.08 3.80 0.98 941.18 105.41 72.82 221.74
02-Nov-2017 04:05 22.71 1,964.16 1,964.49 3.77 0.98 940.71 105.39 72.88 221.70
02-Nov-2017 03:55 22.76 1,960.42 1,960.78 3.75 0.98 938.33 105.55 72.97 221.99
02-Nov-2017 03:50 22.74 1,953.75 1,954.09 3.72 0.97 934.03 105.71 72.93 222.28
02-Nov-2017 03:45 22.69 1,946.23 1,946.55 3.69 0.97 929.67 105.77 72.84 222.39
02-Nov-2017 03:40 22.61 1,946.33 1,946.60 3.68 0.96 925.89 105.83 72.70 222.49
02-Nov-2017 03:35 22.59 1,769.11 1,769.35 3.67 0.89 863.48 105.81 72.66 222.46
02-Nov-2017 03:30 22.59 1,948.90 1,949.16 3.65 0.96 924.61 105.82 72.66 222.48
02-Nov-2017 03:25 22.60 1,775.82 1,776.07 3.63 0.89 864.98 105.85 72.68 222.53
02-Nov-2017 03:20 22.59 1,772.72 1,772.96 3.61 0.89 863.96 105.89 72.66 222.60
02-Nov-2017 03:10 22.58 1,759.02 1,759.25 3.58 0.88 858.03 105.91 72.64 222.64
02-Nov-2017 03:05 22.60 1,752.52 1,752.76 3.58 0.88 853.28 105.92 72.68 222.66
02-Nov-2017 02:55 22.64 1,756.96 1,757.22 3.56 0.88 856.73 105.93 72.75 222.67
02-Nov-2017 02:50 22.65 1,759.88 1,760.15 3.53 0.89 859.34 105.93 72.77 222.67
02-Nov-2017 02:45 22.66 1,769.75 1,770.02 3.52 0.89 863.36 105.93 72.79 222.67
02-Nov-2017 02:40 22.68 1,772.59 1,772.87 3.51 0.89 865.16 105.93 72.82 222.67
02-Nov-2017 02:35 22.69 1,773.81 1,774.10 3.51 0.89 865.75 105.93 72.84 222.67
02-Nov-2017 02:30 22.71 1,770.68 1,770.97 3.50 0.89 863.38 105.93 72.88 222.67
02-Nov-2017 02:25 22.72 1,951.90 1,952.23 3.49 0.97 933.03 105.92 72.90 222.66
02-Nov-2017 02:20 22.75 1,954.90 1,955.24 3.49 0.97 936.21 105.92 72.95 222.66
02-Nov-2017 02:10 22.76 1,954.82 1,955.18 3.52 0.97 936.54 105.92 72.97 222.66
02-Nov-2017 02:05 22.78 1,958.26 1,958.63 3.55 0.98 937.84 105.93 73.00 222.67
02-Nov-2017 01:55 22.80 1,956.74 1,957.11 3.59 0.97 937.27 105.93 73.04 222.67
02-Nov-2017 01:50 22.80 1,958.36 1,958.73 3.59 0.98 938.02 105.44 73.04 221.79
02-Nov-2017 01:45 22.81 1,957.45 1,957.83 3.59 0.97 936.93 105.59 73.06 222.06
02-Nov-2017 01:40 22.81 1,957.43 1,957.81 3.59 0.98 937.74 105.15 73.06 221.27
02-Nov-2017 01:35 22.81 1,961.60 1,961.98 3.59 0.98 939.01 105.24 73.06 221.43
02-Nov-2017 01:30 22.82 1,961.81 1,962.20 3.60 0.98 939.41 105.58 73.08 222.04
02-Nov-2017 01:25 22.82 1,966.20 1,966.59 3.61 0.98 940.06 105.53 73.08 221.95
02-Nov-2017 01:20 22.86 1,978.26 1,978.67 3.62 0.98 940.61 104.67 73.15 220.41
02-Nov-2017 01:10 22.87 1,969.22 1,969.63 3.63 0.98 942.85 104.89 73.17 220.80
02-Nov-2017 01:05 22.91 1,969.90 1,970.33 3.63 0.98 944.60 105.31 73.24 221.56
02-Nov-2017 00:55 22.94 1,765.21 1,765.61 3.65 0.89 860.52 105.03 73.29 221.05
02-Nov-2017 00:45 22.98 1,771.52 1,771.93 3.67 0.89 864.13 105.24 73.36 221.43
02-Nov-2017 00:40 23.01 1,764.84 1,765.26 3.72 0.89 862.15 105.02 73.42 221.04
02-Nov-2017 00:35 23.02 1,975.25 1,975.73 3.73 0.99 951.37 104.76 73.44 220.57
02-Nov-2017 00:25 23.06 1,976.58 1,977.07 3.76 0.99 954.18 104.90 73.51 220.82
02-Nov-2017 00:20 23.11 1,986.60 1,987.12 3.82 1.00 960.11 104.87 73.60 220.77
01-Nov-2017 23:55 23.23 2,030.88 2,031.46 3.96 1.02 978.36 105.36 73.81 221.65
01-Nov-2017 23:50 23.25 2,040.29 2,040.88 4.00 1.02 981.82 105.47 73.85 221.85
01-Nov-2017 23:40 23.29 2,063.52 2,064.14 4.08 1.03 991.08 105.59 73.92 222.06
01-Nov-2017 23:35 23.31 2,072.54 2,073.17 4.11 1.04 994.49 105.60 73.96 222.08
01-Nov-2017 23:25 23.31 2,232.70 2,233.38 4.19 1.10 1,038.29 105.85 73.96 222.53
01-Nov-2017 23:20 23.34 2,125.64 2,126.29 4.23 1.06 1,012.19 105.81 74.01 222.46
01-Nov-2017 23:15 23.32 2,108.05 2,108.69 4.25 1.05 1,005.28 105.82 73.98 222.48
01-Nov-2017 23:05 23.23 2,118.39 2,118.99 4.30 1.05 1,008.61 105.66 73.81 222.19
01-Nov-2017 22:55 23.16 2,104.01 2,104.58 4.36 1.05 1,003.92 105.71 73.69 222.28
01-Nov-2017 22:50 23.17 2,106.28 2,106.86 4.39 1.05 1,005.50 105.34 73.71 221.61
01-Nov-2017 22:45 23.16 2,115.19 2,115.77 4.41 1.06 1,009.80 105.60 73.69 222.08
01-Nov-2017 22:40 23.14 2,125.06 2,125.63 4.47 1.06 1,016.46 105.79 73.65 222.42
01-Nov-2017 22:35 23.08 2,136.72 2,137.27 4.49 1.07 1,022.19 105.60 73.54 222.08
01-Nov-2017 22:30 23.07 2,154.77 2,155.32 4.52 1.08 1,028.19 105.78 73.53 222.40
01-Nov-2017 22:20 23.07 2,162.68 2,163.24 4.57 1.08 1,032.67 105.81 73.53 222.46
01-Nov-2017 22:10 23.17 2,170.68 2,171.28 4.58 1.09 1,037.01 105.66 73.71 222.19
01-Nov-2017 22:05 23.22 2,182.40 2,183.02 4.64 1.09 1,041.96 105.75 73.80 222.35
01-Nov-2017 21:55 23.30 2,181.05 2,181.70 4.66 1.09 1,042.13 105.79 73.94 222.42
01-Nov-2017 21:50 23.36 2,180.35 2,181.02 4.67 1.09 1,042.50 105.57 74.05 222.03
01-Nov-2017 21:45 23.43 2,180.00 2,180.70 4.68 1.09 1,041.75 105.76 74.17 222.37
01-Nov-2017 21:40 23.25 2,198.92 2,199.56 4.72 1.10 1,050.31 105.63 73.85 222.13
01-Nov-2017 21:35 23.40 2,197.74 2,198.43 4.75 1.10 1,050.97 105.66 74.12 222.19
01-Nov-2017 21:30 23.70 2,194.89 2,195.68 4.77 1.10 1,050.99 105.78 74.66 222.40
01-Nov-2017 21:20 24.03 2,192.07 2,192.93 4.80 1.10 1,049.72 105.56 75.25 222.01
01-Nov-2017 21:15 24.03 2,188.41 2,189.26 4.83 1.10 1,048.19 105.64 75.25 222.15
01-Nov-2017 21:05 24.02 2,188.33 2,189.18 4.84 1.10 1,048.06 105.64 75.24 222.15
01-Nov-2017 20:55 24.01 2,188.41 2,189.27 4.87 1.10 1,046.76 105.11 75.22 221.20
01-Nov-2017 20:50 24.00 2,185.34 2,186.19 4.91 1.09 1,045.63 105.54 75.20 221.97
01-Nov-2017 20:45 23.98 2,182.73 2,183.57 4.92 1.09 1,044.53 105.41 75.16 221.74
01-Nov-2017 20:40 23.97 2,182.37 2,183.21 4.94 1.09 1,043.22 105.51 75.15 221.92
01-Nov-2017 20:35 23.95 2,172.05 2,172.89 4.95 1.09 1,039.82 105.49 75.11 221.88
01-Nov-2017 20:30 23.94 2,165.62 2,166.45 4.95 1.09 1,036.91 105.55 75.09 221.99
01-Nov-2017 20:20 23.91 2,161.75 2,162.57 4.94 1.08 1,035.13 105.67 75.04 222.21
01-Nov-2017 20:10 23.87 2,153.38 2,154.19 4.94 1.08 1,031.60 105.87 74.97 222.57
01-Nov-2017 20:05 23.85 2,146.80 2,147.61 4.94 1.08 1,028.99 105.76 74.93 222.37
01-Nov-2017 20:00 23.83 2,146.20 2,147.00 4.93 1.07 1,027.71 105.58 74.89 222.04
01-Nov-2017 19:55 23.81 2,142.06 2,142.85 4.92 1.07 1,025.22 105.80 74.86 222.44
01-Nov-2017 19:50 23.78 2,136.15 2,136.94 4.92 1.07 1,023.38 105.85 74.80 222.53
01-Nov-2017 19:45 23.76 2,128.93 2,129.71 4.91 1.07 1,020.03 105.87 74.77 222.57
01-Nov-2017 19:40 23.73 2,119.39 2,120.16 4.89 1.06 1,016.65 105.64 74.71 222.15
01-Nov-2017 19:35 23.71 2,114.04 2,114.80 4.88 1.06 1,014.05 105.61 74.68 222.10
01-Nov-2017 19:30 23.69 2,110.11 2,110.87 4.86 1.06 1,012.82 105.79 74.64 222.42
01-Nov-2017 19:25 23.67 2,105.04 2,105.79 4.85 1.05 1,010.10 105.71 74.61 222.28
01-Nov-2017 19:20 23.65 2,096.18 2,096.92 4.84 1.05 1,006.83 105.84 74.57 222.51
01-Nov-2017 19:15 23.65 2,100.09 2,100.83 4.79 1.05 1,007.16 105.78 74.57 222.40
01-Nov-2017 19:05 23.64 2,098.74 2,099.48 4.77 1.05 1,005.93 105.76 74.55 222.37
01-Nov-2017 19:00 23.66 2,089.34 2,090.08 4.74 1.05 1,001.43 105.82 74.59 222.48
01-Nov-2017 18:50 23.66 2,086.77 2,087.51 4.73 1.04 999.51 105.79 74.59 222.42
01-Nov-2017 18:45 23.66 2,079.54 2,080.27 4.70 1.04 997.17 105.87 74.59 222.57
01-Nov-2017 18:40 23.65 2,074.71 2,075.44 4.68 1.04 994.91 105.88 74.57 222.58
01-Nov-2017 18:35 23.65 2,074.34 2,075.07 4.65 1.04 993.28 105.84 74.57 222.51
01-Nov-2017 18:30 23.64 2,068.44 2,069.17 4.62 1.03 990.61 105.85 74.55 222.53
01-Nov-2017 18:25 23.64 2,062.58 2,063.30 4.59 1.03 987.43 105.62 74.55 222.12
01-Nov-2017 18:20 23.62 2,049.52 2,050.24 4.56 1.02 981.59 105.55 74.52 221.99
01-Nov-2017 18:10 23.57 2,029.50 2,030.19 4.49 1.01 972.57 97.21 74.43 206.98
01-Nov-2017 18:05 23.54 2,022.49 2,023.18 4.46 1.01 968.33 96.54 74.37 205.77
01-Nov-2017 18:00 23.53 2,010.04 2,010.72 4.39 1.00 962.01 96.73 74.35 206.11
01-Nov-2017 17:50 23.53 2,006.11 2,006.78 4.35 1.00 959.06 96.82 74.35 206.28
01-Nov-2017 17:45 23.53 1,989.84 1,990.51 4.32 0.99 953.27 96.26 74.35 205.27
01-Nov-2017 17:40 23.53 1,983.13 1,983.80 4.28 0.99 949.66 96.33 74.35 205.39
01-Nov-2017 17:30 23.54 1,953.89 1,954.56 4.20 0.98 937.96 96.82 74.37 206.28
01-Nov-2017 17:25 23.60 1,953.18 1,953.86 4.11 0.98 938.51 97.05 74.48 206.69
01-Nov-2017 16:55 23.79 1,970.83 1,971.56 4.00 0.98 943.32 96.85 74.82 206.33
01-Nov-2017 16:50 23.76 1,963.61 1,964.33 3.93 0.98 939.66 97.23 74.77 207.01
01-Nov-2017 16:45 23.74 1,960.36 1,961.07 3.92 0.98 938.38 97.53 74.73 207.55
01-Nov-2017 16:40 23.70 1,963.80 1,964.51 3.95 0.98 939.93 97.25 74.66 207.05
01-Nov-2017 16:35 23.66 1,955.44 1,956.13 3.94 0.98 937.48 97.67 74.59 207.81
01-Nov-2017 16:25 23.67 1,961.99 1,962.69 3.93 0.98 938.95 97.99 74.61 208.38
01-Nov-2017 16:20 23.58 1,957.16 1,957.83 3.90 0.98 938.18 96.80 74.44 206.24
01-Nov-2017 16:15 23.52 1,953.46 1,954.11 3.87 0.97 936.69 96.66 74.34 205.99
01-Nov-2017 16:10 23.37 1,963.64 1,964.25 3.83 0.98 939.70 97.27 74.07 207.09
01-Nov-2017 16:05 23.22 1,970.57 1,971.13 3.80 0.98 942.55 97.38 73.80 207.28
01-Nov-2017 15:55 23.17 1,975.85 1,976.39 3.76 0.98 943.89 97.30 73.71 207.14
01-Nov-2017 15:50 23.24 1,976.74 1,977.31 3.69 0.98 942.96 97.08 73.83 206.74
01-Nov-2017 15:40 23.17 1,971.42 1,971.96 3.66 0.98 941.36 97.08 73.71 206.74
01-Nov-2017 15:35 23.13 1,962.77 1,963.29 3.60 0.98 937.59 96.87 73.63 206.37
01-Nov-2017 15:25 23.11 1,954.57 1,955.08 3.57 0.97 936.19 97.18 73.60 206.92
01-Nov-2017 15:20 23.09 1,951.74 1,952.24 3.52 0.97 934.34 97.14 73.56 206.85
01-Nov-2017 15:15 23.07 1,948.65 1,949.15 3.50 0.97 932.61 97.40 73.53 207.32
01-Nov-2017 15:10 23.07 1,939.42 1,939.92 3.48 0.97 928.89 96.84 73.53 206.31
01-Nov-2017 15:05 23.05 1,942.80 1,943.29 3.43 0.97 928.85 97.93 73.49 208.27
01-Nov-2017 14:55 23.01 1,948.53 1,949.00 3.41 0.97 932.07 97.65 73.42 207.77
01-Nov-2017 14:45 22.95 1,956.86 1,957.31 3.37 0.97 935.30 97.66 73.31 207.79
01-Nov-2017 14:40 22.93 1,954.68 1,955.11 3.35 0.97 935.34 96.73 73.27 206.11
01-Nov-2017 14:35 22.92 1,954.61 1,955.04 3.34 0.97 934.94 96.46 73.26 205.63
01-Nov-2017 14:30 22.91 1,957.13 1,957.55 3.31 0.97 935.75 97.08 73.24 206.74
01-Nov-2017 14:20 22.89 1,956.90 1,957.32 3.29 0.97 937.37 97.21 73.20 206.98
01-Nov-2017 14:10 22.88 1,952.05 1,952.47 3.26 0.97 935.19 97.15 73.18 206.87
01-Nov-2017 14:05 22.90 1,972.47 1,972.90 3.26 0.98 943.52 97.10 73.22 206.78
01-Nov-2017 14:00 22.93 1,769.97 1,770.36 3.23 0.89 864.65 97.71 73.27 207.88
01-Nov-2017 13:50 22.93 1,767.96 1,768.36 3.24 0.89 863.68 97.60 73.27 207.68
01-Nov-2017 13:45 22.94 1,975.95 1,976.40 3.24 0.99 947.18 97.04 73.29 206.67
01-Nov-2017 13:40 22.94 1,769.58 1,769.98 3.23 0.89 864.95 97.55 73.29 207.59
01-Nov-2017 13:35 22.91 1,972.52 1,972.96 3.22 0.99 948.66 97.47 73.24 207.45
01-Nov-2017 13:25 22.89 1,773.28 1,773.66 3.22 0.89 867.56 97.23 73.20 207.01
01-Nov-2017 13:20 22.81 1,771.76 1,772.11 3.22 0.89 866.82 98.12 73.06 208.62
01-Nov-2017 13:10 22.80 1,975.19 1,975.57 3.24 0.99 952.75 97.77 73.04 207.99
01-Nov-2017 13:05 22.78 1,979.31 1,979.68 3.25 0.99 955.41 98.07 73.00 208.53
01-Nov-2017 12:55 22.75 1,995.44 1,995.79 3.25 1.00 963.33 97.73 72.95 207.91
01-Nov-2017 12:50 22.72 2,011.50 2,011.84 3.25 1.01 968.66 98.59 72.90 209.46
01-Nov-2017 12:40 22.67 2,056.55 2,056.87 3.51 1.03 982.95 99.15 72.81 210.47
01-Nov-2017 12:35 22.64 2,068.48 2,068.79 3.47 1.03 987.78 98.95 72.75 210.11
01-Nov-2017 12:30 22.63 2,071.08 2,071.38 3.49 1.03 989.16 99.94 72.73 211.89
01-Nov-2017 12:20 22.58 2,094.53 2,094.81 3.52 1.04 997.39 100.79 72.64 213.42
01-Nov-2017 12:15 22.56 2,091.80 2,092.07 3.53 1.04 996.57 100.11 72.61 212.20
01-Nov-2017 12:05 22.55 2,086.73 2,086.98 3.53 1.04 996.15 100.53 72.59 212.95
01-Nov-2017 11:55 22.51 2,096.37 2,096.60 3.56 1.04 999.13 99.91 72.52 211.84
01-Nov-2017 11:50 22.47 2,088.80 2,089.01 3.58 1.04 996.75 99.27 72.45 210.69
01-Nov-2017 11:45 22.44 2,085.65 2,085.84 3.66 1.04 997.81 98.88 72.39 209.98
01-Nov-2017 11:40 22.41 2,085.94 2,086.11 3.65 1.04 998.73 99.24 72.34 210.63
01-Nov-2017 11:30 22.40 2,084.05 2,084.21 3.71 1.04 998.11 99.16 72.32 210.49
01-Nov-2017 11:25 22.40 2,058.58 2,058.74 3.71 1.03 991.64 99.27 72.32 210.69
01-Nov-2017 11:20 22.31 2,056.15 2,056.25 3.74 1.03 990.30 99.06 72.16 210.31
01-Nov-2017 11:10 22.25 2,057.38 2,057.44 3.78 1.03 990.56 99.66 72.05 211.39
01-Nov-2017 11:05 22.24 2,055.44 2,055.49 3.80 1.03 989.14 99.12 72.03 210.42
01-Nov-2017 10:55 21.95 2,059.19 2,059.02 3.83 1.03 991.02 99.65 71.51 211.37
01-Nov-2017 10:45 21.98 2,078.37 2,078.22 3.87 1.04 999.17 99.55 71.56 211.19
01-Nov-2017 10:40 21.98 2,090.14 2,089.99 3.88 1.05 1,004.84 99.46 71.56 211.03
01-Nov-2017 08:20 22.78 2,148.24 2,148.64 4.38 1.08 1,034.26 99.81 73.00 211.66
01-Nov-2017 08:05 22.76 2,140.89 2,141.28 4.48 1.08 1,031.17 97.77 72.97 207.99
01-Nov-2017 07:20 22.75 2,133.20 2,133.58 4.41 1.07 1,025.89 98.22 72.95 208.80
01-Nov-2017 07:15 22.73 2,124.26 2,124.63 4.40 1.07 1,023.57 97.83 72.91 208.09
01-Nov-2017 06:10 22.26 2,077.76 2,077.82 4.21 1.04 998.72 99.03 72.07 210.25
01-Nov-2017 06:05 22.16 2,065.93 2,065.92 4.19 1.03 993.64 99.37 71.89 210.87
01-Nov-2017 05:55 21.92 2,041.36 2,041.17 4.13 1.02 981.39 99.56 71.46 211.21
01-Nov-2017 05:50 21.81 2,035.39 2,035.11 4.11 1.02 976.96 99.55 71.26 211.19
01-Nov-2017 05:45 21.73 2,023.35 2,023.00 4.10 1.01 970.15 99.65 71.11 211.37
01-Nov-2017 05:40 21.68 1,824.11 1,823.75 4.08 0.92 888.90 99.91 71.02 211.84
01-Nov-2017 05:35 21.66 1,809.90 1,809.53 4.05 0.91 882.45 99.96 70.99 211.93
01-Nov-2017 05:30 21.63 1,802.20 1,801.81 4.03 0.91 879.14 98.74 70.93 209.73
01-Nov-2017 05:25 21.60 1,793.08 1,792.67 4.00 0.90 873.81 99.91 70.88 211.84
01-Nov-2017 05:20 21.59 1,788.12 1,787.70 3.95 0.90 872.37 100.14 70.86 212.25
01-Nov-2017 05:10 21.58 1,788.63 1,788.20 3.92 0.90 871.72 99.45 70.84 211.01
01-Nov-2017 05:05 21.57 1,790.62 1,790.18 3.89 0.90 872.68 100.09 70.83 212.16
01-Nov-2017 04:55 21.56 1,794.61 1,794.17 3.83 0.90 873.77 100.09 70.81 212.16
01-Nov-2017 04:50 21.55 1,793.12 1,792.67 3.80 0.90 873.48 100.35 70.79 212.63
01-Nov-2017 04:45 21.55 1,789.03 1,788.58 3.77 0.90 871.08 100.27 70.79 212.49
01-Nov-2017 04:40 21.55 1,790.64 1,790.19 3.73 0.90 872.82 99.93 70.79 211.87
01-Nov-2017 04:35 21.55 1,798.49 1,798.04 3.70 0.91 876.14 100.61 70.79 213.10
01-Nov-2017 04:30 21.55 1,793.25 1,792.80 3.67 0.90 873.60 100.87 70.79 213.57
01-Nov-2017 04:25 21.55 1,995.06 1,994.55 3.64 0.99 955.13 101.22 70.79 214.20
01-Nov-2017 04:20 21.57 2,004.40 2,003.91 3.62 1.00 956.37 100.98 70.83 213.76
01-Nov-2017 04:10 21.58 1,995.54 1,995.06 3.59 0.99 954.95 101.70 70.84 215.06
01-Nov-2017 04:05 21.59 1,993.38 1,992.91 3.58 0.99 953.63 101.61 70.86 214.90
01-Nov-2017 03:55 21.65 1,999.23 1,998.81 3.55 0.99 954.30 102.08 70.97 215.74
01-Nov-2017 03:50 21.68 1,997.32 1,996.93 3.54 0.99 954.07 101.97 71.02 215.55
01-Nov-2017 03:45 21.69 2,003.79 2,003.41 3.52 1.00 956.23 102.54 71.04 216.57
01-Nov-2017 03:40 21.76 2,002.26 2,001.94 3.51 0.99 956.40 102.21 71.17 215.98
01-Nov-2017 03:35 21.75 2,002.55 2,002.22 3.49 1.00 956.77 101.89 71.15 215.40
01-Nov-2017 03:30 21.73 2,001.73 2,001.38 3.47 0.99 955.41 102.60 71.11 216.68
01-Nov-2017 03:25 21.75 2,002.01 2,001.68 3.45 0.99 955.32 102.92 71.15 217.26
01-Nov-2017 03:20 21.74 1,997.85 1,997.51 3.42 0.99 953.54 102.71 71.13 216.88
01-Nov-2017 03:10 21.73 2,000.28 1,999.93 3.43 0.99 952.16 103.23 71.11 217.81
01-Nov-2017 03:05 21.75 1,991.92 1,991.59 3.45 0.99 951.07 104.06 71.15 219.31
01-Nov-2017 02:55 21.75 2,000.89 2,000.56 3.49 0.99 952.81 103.91 71.15 219.04
01-Nov-2017 02:50 21.75 1,999.93 1,999.60 3.47 0.99 952.75 104.03 71.15 219.25
01-Nov-2017 02:45 21.76 1,987.29 1,986.97 3.45 0.99 949.66 104.17 71.17 219.51
01-Nov-2017 02:40 21.76 1,992.14 1,991.82 3.44 0.99 950.48 104.43 71.17 219.97
01-Nov-2017 02:35 21.74 1,988.34 1,988.01 3.41 0.99 951.36 105.15 71.13 221.27
01-Nov-2017 02:30 21.74 1,997.54 1,997.21 3.40 0.99 953.91 105.15 71.13 221.27
01-Nov-2017 02:25 21.74 1,994.96 1,994.63 3.38 0.99 953.40 103.18 71.13 217.72
01-Nov-2017 02:20 21.75 1,997.44 1,997.11 3.35 0.99 955.61 102.47 71.15 216.45
01-Nov-2017 02:10 21.75 2,002.34 2,002.01 3.31 1.00 956.83 102.65 71.15 216.77
01-Nov-2017 02:05 21.75 2,004.96 2,004.63 3.29 1.00 958.28 102.02 71.15 215.64
01-Nov-2017 02:00 21.76 2,030.98 2,030.66 3.26 1.01 967.11 101.64 71.17 214.95
01-Nov-2017 01:55 21.77 2,041.19 2,040.87 3.25 1.01 970.18 101.81 71.19 215.26
01-Nov-2017 01:50 21.77 2,041.04 2,040.72 3.24 1.01 970.74 102.35 71.19 216.23
01-Nov-2017 01:45 21.77 2,034.12 2,033.80 3.24 1.01 967.94 102.76 71.19 216.97
01-Nov-2017 01:40 21.77 2,041.58 2,041.26 3.24 1.01 971.38 103.15 71.19 217.67
01-Nov-2017 01:35 21.78 2,046.09 2,045.78 3.25 1.02 972.92 103.15 71.20 217.67
01-Nov-2017 01:30 21.78 2,054.48 2,054.16 3.27 1.02 975.99 103.30 71.20 217.94
01-Nov-2017 01:25 21.79 2,043.41 2,043.10 3.28 1.01 972.05 102.86 71.22 217.15
01-Nov-2017 01:20 21.79 2,047.31 2,047.01 3.29 1.01 973.45 103.32 71.22 217.98
01-Nov-2017 01:15 21.78 1,771.05 1,770.78 3.30 0.89 864.00 103.62 71.20 218.52
01-Nov-2017 01:10 21.78 1,771.77 1,771.51 3.30 0.89 864.29 103.81 71.20 218.86
01-Nov-2017 01:05 21.78 1,775.33 1,775.06 3.30 0.89 865.66 103.96 71.20 219.13
01-Nov-2017 01:00 21.77 1,779.02 1,778.74 3.31 0.89 867.52 103.00 71.19 217.40
01-Nov-2017 00:50 21.77 1,782.73 1,782.45 3.32 0.90 869.32 104.63 71.19 220.33
01-Nov-2017 00:40 21.77 1,790.55 1,790.27 3.33 0.90 873.05 104.80 71.19 220.64
01-Nov-2017 00:35 21.76 1,794.43 1,794.14 3.34 0.90 874.87 104.76 71.17 220.57
01-Nov-2017 00:30 21.77 1,796.68 1,796.40 3.38 0.90 877.80 105.10 71.19 221.18
01-Nov-2017 00:25 21.77 1,805.51 1,805.23 3.41 0.91 881.54 105.39 71.19 221.70
01-Nov-2017 00:20 21.77 1,808.94 1,808.66 3.43 0.91 884.20 105.43 71.19 221.77
01-Nov-2017 00:10 21.77 1,809.07 1,808.78 3.44 0.91 884.20 105.37 71.19 221.67
01-Nov-2017 00:05 21.76 1,802.98 1,802.70 3.45 0.91 882.53 105.46 71.17 221.83
31-Oct-2017 23:55 21.77 1,809.96 1,809.67 3.49 0.91 885.94 105.38 71.19 221.68
31-Oct-2017 23:50 21.77 2,027.04 2,026.73 3.52 1.01 974.13 104.94 71.19 220.89
31-Oct-2017 23:45 21.78 2,015.74 2,015.43 3.54 1.01 973.99 104.84 71.20 220.71
31-Oct-2017 23:35 21.78 2,025.60 2,025.30 3.57 1.02 977.19 104.41 71.20 219.94
31-Oct-2017 23:20 21.80 2,039.56 2,039.27 3.60 1.02 983.56 104.16 71.24 219.49
31-Oct-2017 23:10 21.80 2,068.03 2,067.74 3.63 1.03 993.87 102.81 71.24 217.06
31-Oct-2017 22:45 21.83 2,149.39 2,149.11 3.75 1.07 1,023.16 103.52 71.29 218.34
31-Oct-2017 22:30 21.84 2,154.39 2,154.11 3.80 1.07 1,024.13 104.05 71.31 219.29
31-Oct-2017 22:25 21.83 2,151.28 2,151.00 3.84 1.07 1,023.96 103.94 71.29 219.09
31-Oct-2017 22:20 21.83 2,160.56 2,160.28 3.87 1.07 1,027.28 104.37 71.29 219.87
31-Oct-2017 22:05 21.84 2,168.76 2,168.49 4.00 1.08 1,029.83 105.72 71.31 222.30
31-Oct-2017 21:45 21.86 2,208.19 2,207.93 4.12 1.10 1,046.65 105.94 71.35 222.69
31-Oct-2017 21:35 21.92 2,221.44 2,221.24 4.17 1.10 1,053.42 105.94 71.46 222.69
31-Oct-2017 21:30 21.95 2,217.83 2,217.65 4.22 1.10 1,054.43 105.94 71.51 222.69
31-Oct-2017 21:25 21.96 2,223.54 2,223.36 4.25 1.11 1,056.41 105.94 71.53 222.69
31-Oct-2017 21:20 21.96 2,222.36 2,222.19 4.28 1.11 1,056.42 105.94 71.53 222.69
31-Oct-2017 21:10 21.96 2,231.11 2,230.93 4.31 1.11 1,059.80 105.94 71.53 222.69
31-Oct-2017 21:05 21.95 2,234.29 2,234.11 4.33 1.11 1,061.44 105.94 71.51 222.69
31-Oct-2017 20:55 22.00 2,251.65 2,251.50 4.35 1.12 1,068.63 105.94 71.60 222.69
31-Oct-2017 20:50 22.01 2,246.55 2,246.41 4.37 1.12 1,067.62 105.94 71.62 222.69
31-Oct-2017 20:45 22.01 2,237.92 2,237.79 4.39 1.12 1,064.42 105.94 71.62 222.69
31-Oct-2017 20:40 22.01 2,235.66 2,235.53 4.41 1.11 1,063.68 105.94 71.62 222.69
31-Oct-2017 20:35 22.08 2,227.47 2,227.40 4.44 1.11 1,060.18 105.94 71.74 222.69
31-Oct-2017 20:25 22.10 2,235.93 2,235.88 4.45 1.11 1,062.58 105.94 71.78 222.69
31-Oct-2017 20:20 22.15 2,223.94 2,223.93 4.49 1.11 1,057.48 105.94 71.87 222.69
31-Oct-2017 20:15 22.16 2,218.74 2,218.73 4.51 1.10 1,054.31 105.94 71.89 222.69
31-Oct-2017 20:10 22.16 2,214.49 2,214.48 4.52 1.10 1,054.05 105.94 71.89 222.69
31-Oct-2017 20:05 22.16 2,211.46 2,211.46 4.54 1.10 1,052.19 105.94 71.89 222.69
31-Oct-2017 20:00 22.16 2,212.51 2,212.51 4.53 1.10 1,051.16 105.94 71.89 222.69
31-Oct-2017 19:50 22.16 2,209.69 2,209.69 4.51 1.10 1,049.59 105.93 71.89 222.67
31-Oct-2017 19:45 22.17 2,192.96 2,192.96 4.51 1.09 1,044.46 105.94 71.91 222.69
31-Oct-2017 19:35 22.17 2,198.41 2,198.41 4.51 1.09 1,045.21 105.94 71.91 222.69
31-Oct-2017 19:30 22.18 2,175.78 2,175.78 4.51 1.09 1,040.85 105.94 71.92 222.69
31-Oct-2017 19:25 22.18 2,188.02 2,188.03 4.51 1.09 1,043.07 105.94 71.92 222.69
31-Oct-2017 19:20 22.19 2,181.76 2,181.77 4.51 1.09 1,040.52 105.94 71.94 222.69
31-Oct-2017 19:15 22.20 2,166.13 2,166.15 4.51 1.08 1,034.33 105.94 71.96 222.69
31-Oct-2017 19:05 22.20 2,159.99 2,160.01 4.51 1.08 1,030.59 105.94 71.96 222.69
31-Oct-2017 19:00 22.19 2,138.11 2,138.12 4.49 1.07 1,022.80 105.94 71.94 222.69
31-Oct-2017 18:55 22.17 2,139.03 2,139.03 4.49 1.07 1,021.30 105.93 71.91 222.67
31-Oct-2017 18:50 22.14 2,133.28 2,133.25 4.47 1.06 1,018.75 103.02 71.85 217.44
31-Oct-2017 18:45 22.12 2,121.53 2,121.49 4.45 1.06 1,013.88 100.03 71.82 212.05
31-Oct-2017 18:35 22.09 2,101.04 2,100.97 4.44 1.05 1,005.87 98.61 71.76 209.50
31-Oct-2017 18:30 22.08 2,110.49 2,110.42 4.42 1.05 1,007.14 98.30 71.74 208.94
31-Oct-2017 18:25 22.09 2,096.87 2,096.81 4.39 1.04 1,000.71 96.56 71.76 205.81
31-Oct-2017 18:20 22.08 2,075.90 2,075.83 4.37 1.04 992.20 95.87 71.74 204.57
31-Oct-2017 18:10 22.08 2,065.67 2,065.60 4.34 1.03 987.10 95.65 71.74 204.17
31-Oct-2017 18:05 22.09 2,032.07 2,032.01 4.30 1.01 970.81 95.69 71.76 204.24
31-Oct-2017 18:00 22.11 2,016.82 2,016.77 4.27 1.00 963.75 95.75 71.80 204.35
31-Oct-2017 17:55 22.13 2,001.87 2,001.84 4.24 1.00 955.95 95.27 71.83 203.49
31-Oct-2017 17:45 22.16 1,991.07 1,991.07 4.20 0.99 951.59 95.73 71.89 204.31
31-Oct-2017 17:40 22.22 1,986.19 1,986.22 4.16 0.99 949.73 95.42 72.00 203.76
31-Oct-2017 17:35 22.23 1,984.62 1,984.66 4.12 0.99 948.85 95.61 72.01 204.10
31-Oct-2017 17:30 22.25 1,985.91 1,985.97 4.09 0.99 950.05 94.90 72.05 202.82
31-Oct-2017 17:25 22.28 1,996.86 1,996.93 4.05 0.99 953.23 95.13 72.10 203.23
31-Oct-2017 17:20 22.30 1,999.12 1,999.21 4.01 0.99 953.96 95.82 72.14 204.48
31-Oct-2017 17:15 22.35 1,989.41 1,989.53 3.98 0.99 951.10 95.66 72.23 204.19
31-Oct-2017 17:10 22.43 1,987.95 1,988.13 3.96 0.99 950.60 95.49 72.37 203.88
31-Oct-2017 17:05 22.46 1,980.58 1,980.76 3.93 0.99 947.37 95.20 72.43 203.36
31-Oct-2017 17:00 22.47 1,973.19 1,973.39 3.90 0.98 945.43 95.41 72.45 203.74
31-Oct-2017 16:55 22.48 1,978.92 1,979.12 3.89 0.98 946.37 95.58 72.46 204.04
31-Oct-2017 16:50 22.49 1,984.50 1,984.70 3.87 0.99 948.50 95.74 72.48 204.33
31-Oct-2017 16:45 22.48 1,980.40 1,980.60 3.86 0.99 946.67 95.74 72.46 204.33
31-Oct-2017 16:35 22.46 1,976.68 1,976.87 3.84 0.98 943.90 96.25 72.43 205.25
31-Oct-2017 16:30 22.39 1,973.91 1,974.05 3.79 0.98 944.23 95.64 72.30 204.15
31-Oct-2017 16:25 22.37 1,974.87 1,975.00 3.76 0.98 944.46 95.52 72.27 203.94
31-Oct-2017 16:20 22.36 1,966.16 1,966.28 3.72 0.98 940.31 95.68 72.25 204.22
31-Oct-2017 16:15 22.29 1,980.29 1,980.37 3.70 0.98 945.14 95.65 72.12 204.17
31-Oct-2017 16:00 22.18 1,980.75 1,980.75 3.65 0.98 944.95 95.63 71.92 204.13
31-Oct-2017 15:55 22.01 1,967.30 1,967.18 3.61 0.98 940.06 95.34 71.62 203.61
31-Oct-2017 15:45 21.93 1,972.60 1,972.43 3.56 0.98 941.89 95.24 71.47 203.43
31-Oct-2017 15:25 21.93 1,968.11 1,967.93 3.49 0.98 940.33 95.57 71.47 204.03
31-Oct-2017 15:15 21.89 1,981.33 1,981.12 3.52 0.98 942.71 95.75 71.40 204.35
31-Oct-2017 15:00 21.85 1,977.70 1,977.46 3.43 0.98 940.99 95.07 71.33 203.13
31-Oct-2017 14:55 21.83 1,972.19 1,971.93 3.38 0.98 939.25 95.00 71.29 203.00
31-Oct-2017 14:50 21.81 1,968.43 1,968.16 3.38 0.98 938.18 94.99 71.26 202.98
31-Oct-2017 14:40 21.80 1,973.46 1,973.18 3.36 0.98 939.56 95.19 71.24 203.34
31-Oct-2017 14:35 21.76 1,979.76 1,979.45 3.25 0.98 941.47 95.33 71.17 203.59
31-Oct-2017 14:30 21.75 1,985.32 1,985.00 3.19 0.98 944.48 95.43 71.15 203.77
31-Oct-2017 14:25 21.73 1,996.83 1,996.49 3.16 0.99 947.42 95.14 71.11 203.25
31-Oct-2017 14:20 21.73 1,991.96 1,991.62 3.13 0.99 947.27 95.58 71.11 204.04
31-Oct-2017 14:10 21.72 1,992.37 1,992.01 3.12 0.99 946.94 95.97 71.10 204.75
31-Oct-2017 14:05 21.70 1,985.68 1,985.31 3.08 0.99 946.53 95.53 71.06 203.95
31-Oct-2017 13:55 21.70 1,996.35 1,995.98 3.09 0.99 950.06 96.53 71.06 205.75
31-Oct-2017 13:50 21.66 1,997.87 1,997.47 3.10 0.99 952.53 96.28 70.99 205.30
31-Oct-2017 03:20 21.06 2,026.45 2,025.43 3.79 1.00 957.25 99.06 69.91 210.31
31-Oct-2017 02:45 21.27 1,820.76 1,820.05 3.68 0.91 887.82 99.08 70.29 210.34
31-Oct-2017 02:40 21.28 2,003.44 2,002.67 3.66 0.99 952.04 98.83 70.30 209.89
31-Oct-2017 02:25 21.31 1,996.54 1,995.80 3.61 0.99 953.00 98.89 70.36 210.00
31-Oct-2017 02:10 21.32 1,997.46 1,996.74 3.56 0.99 953.21 99.03 70.38 210.25
31-Oct-2017 02:05 21.33 2,002.19 2,001.48 3.56 0.99 954.57 98.57 70.39 209.43
31-Oct-2017 01:50 21.33 2,012.11 2,011.39 3.54 1.00 960.09 98.91 70.39 210.04
31-Oct-2017 01:40 21.36 2,008.26 2,007.57 3.53 1.00 957.59 98.27 70.45 208.89
31-Oct-2017 01:35 21.37 2,008.81 2,008.13 3.52 1.00 958.22 98.99 70.47 210.18
31-Oct-2017 01:10 21.34 2,015.64 2,014.93 3.51 1.00 960.65 99.42 70.41 210.96
30-Oct-2017 23:30 21.46 1,783.95 1,783.42 3.68 0.90 869.94 100.97 70.63 213.75
30-Oct-2017 23:20 21.47 1,793.82 1,793.30 3.69 0.90 875.09 100.85 70.65 213.53
30-Oct-2017 23:10 21.49 1,801.67 1,801.17 3.72 0.91 879.33 101.32 70.68 214.38
30-Oct-2017 22:15 21.70 2,044.74 2,044.35 3.95 1.03 986.07 101.78 71.06 215.20
30-Oct-2017 22:10 21.72 2,055.52 2,055.15 3.97 1.03 990.76 101.73 71.10 215.11
30-Oct-2017 22:05 21.74 2,065.37 2,065.02 4.00 1.04 994.75 101.75 71.13 215.15
30-Oct-2017 21:50 21.76 2,122.70 2,122.36 4.08 1.06 1,014.90 102.41 71.17 216.34
30-Oct-2017 21:45 21.76 2,157.10 2,156.75 4.08 1.07 1,027.31 102.22 71.17 216.00
30-Oct-2017 21:40 21.77 2,164.99 2,164.65 4.13 1.08 1,030.96 102.47 71.19 216.45
30-Oct-2017 21:30 21.78 2,204.88 2,204.54 4.18 1.10 1,045.93 102.61 71.20 216.70
30-Oct-2017 21:25 21.73 2,201.65 2,201.27 4.19 1.09 1,044.47 102.29 71.11 216.12
30-Oct-2017 04:55 21.86 2,065.92 2,065.68 4.47 1.03 991.10 105.41 71.35 221.74
30-Oct-2017 04:45 21.92 2,065.73 2,065.54 4.44 1.03 991.06 105.36 71.46 221.65
30-Oct-2017 04:40 21.94 2,064.96 2,064.78 4.48 1.03 990.46 105.42 71.49 221.76
30-Oct-2017 04:35 21.95 2,064.74 2,064.57 4.43 1.03 990.43 105.28 71.51 221.50
30-Oct-2017 03:50 22.17 2,066.39 2,066.39 4.27 1.03 987.64 105.07 71.91 221.13
30-Oct-2017 03:40 22.20 2,060.11 2,060.13 4.27 1.03 984.88 105.22 71.96 221.40
30-Oct-2017 03:25 22.37 2,056.99 2,057.14 4.14 1.03 983.17 105.55 72.27 221.99
30-Oct-2017 03:15 22.45 2,061.11 2,061.30 4.22 1.03 984.95 105.37 72.41 221.67
29-Oct-2017 18:00 24.81 2,192.32 2,193.21 5.03 1.10 1,050.32 98.69 76.66 209.64
29-Oct-2017 17:45 24.84 2,192.51 2,193.40 4.93 1.10 1,048.64 103.10 76.71 217.58
29-Oct-2017 17:25 24.95 2,182.34 2,183.21 4.88 1.09 1,043.93 103.07 76.91 217.53
29-Oct-2017 17:20 25.00 2,181.05 2,181.91 4.85 1.09 1,043.17 99.97 77.00 211.95
29-Oct-2017 16:35 25.02 2,152.87 2,153.72 4.76 1.08 1,031.65 102.28 77.04 216.10
29-Oct-2017 16:25 25.00 2,148.40 2,149.25 4.68 1.08 1,028.81 101.49 77.00 214.68
29-Oct-2017 16:15 24.99 2,142.85 2,143.70 4.68 1.07 1,027.43 101.37 76.98 214.47
29-Oct-2017 16:10 24.99 2,142.41 2,143.26 4.66 1.08 1,027.43 101.08 76.98 213.94
29-Oct-2017 16:00 24.99 2,143.09 2,143.94 4.62 1.07 1,027.55 100.11 76.98 212.20
29-Oct-2017 15:55 24.99 2,143.82 2,144.67 4.58 1.08 1,027.61 99.28 76.98 210.70
29-Oct-2017 15:35 25.04 2,146.09 2,146.94 4.59 1.08 1,029.02 105.27 77.07 221.49
29-Oct-2017 15:30 25.06 2,145.70 2,146.54 4.57 1.08 1,028.72 105.09 77.11 221.16
29-Oct-2017 15:25 25.06 2,143.52 2,144.36 4.55 1.08 1,027.61 103.63 77.11 218.53
29-Oct-2017 15:15 25.08 2,134.85 2,135.69 4.44 1.07 1,023.54 105.01 77.14 221.02
29-Oct-2017 15:10 25.05 2,132.82 2,133.65 4.41 1.07 1,022.22 105.42 77.09 221.76
29-Oct-2017 15:05 25.02 2,128.93 2,129.77 4.39 1.07 1,020.72 105.61 77.04 222.10
29-Oct-2017 15:00 25.01 2,128.07 2,128.91 4.38 1.07 1,020.88 105.40 77.02 221.72
29-Oct-2017 14:55 24.99 2,123.12 2,123.96 4.32 1.07 1,019.28 105.75 76.98 222.35
29-Oct-2017 14:50 24.93 2,119.02 2,119.87 4.31 1.06 1,017.12 105.81 76.87 222.46
29-Oct-2017 14:40 24.89 2,123.82 2,124.67 4.25 1.06 1,017.24 105.81 76.80 222.46
29-Oct-2017 14:35 24.88 2,118.60 2,119.46 4.25 1.06 1,014.47 105.69 76.78 222.24
29-Oct-2017 14:30 24.80 2,115.94 2,116.80 4.24 1.06 1,013.33 105.89 76.64 222.60
29-Oct-2017 14:20 24.70 2,112.55 2,113.41 4.21 1.06 1,012.15 105.67 76.46 222.21
29-Oct-2017 14:10 24.68 2,108.64 2,109.50 4.13 1.06 1,011.07 105.74 76.42 222.33
29-Oct-2017 14:05 24.65 2,105.72 2,106.58 4.12 1.06 1,010.06 105.92 76.37 222.66
29-Oct-2017 13:05 24.43 2,089.95 2,090.80 4.05 1.05 1,004.89 105.92 75.97 222.66
29-Oct-2017 13:00 24.42 2,087.81 2,088.66 4.05 1.05 1,004.95 105.92 75.96 222.66
29-Oct-2017 11:40 24.35 2,156.27 2,157.15 3.81 1.08 1,035.36 105.93 75.83 222.67
29-Oct-2017 11:10 24.25 2,182.81 2,183.69 3.82 1.09 1,044.60 105.91 75.65 222.64
29-Oct-2017 10:35 24.16 2,185.73 2,186.60 3.91 1.10 1,047.95 105.94 75.49 222.69
29-Oct-2017 03:50 24.36 2,189.82 2,190.71 4.75 1.10 1,052.02 105.93 75.85 222.67
29-Oct-2017 03:35 24.36 2,185.06 2,185.95 4.71 1.10 1,050.94 105.94 75.85 222.69
28-Oct-2017 09:20 23.66 2,137.68 2,138.43 3.88 1.08 1,029.93 104.70 74.59 220.46
28-Oct-2017 08:50 23.60 2,175.05 2,175.80 3.88 1.09 1,045.61 105.75 74.48 222.35
28-Oct-2017 08:45 23.58 2,172.24 2,172.99 3.90 1.09 1,044.54 105.30 74.44 221.54
28-Oct-2017 08:40 23.58 2,158.06 2,158.80 3.92 1.09 1,040.75 105.29 74.44 221.52
28-Oct-2017 08:30 23.59 2,157.21 2,157.96 3.95 1.09 1,039.13 105.94 74.46 222.69
28-Oct-2017 08:25 23.60 2,159.86 2,160.61 3.97 1.09 1,040.74 105.94 74.48 222.69
28-Oct-2017 08:20 23.60 2,166.59 2,167.34 4.00 1.09 1,042.72 105.93 74.48 222.67
28-Oct-2017 08:15 23.59 2,171.96 2,172.71 4.00 1.09 1,045.35 105.93 74.46 222.67
28-Oct-2017 08:10 23.59 2,174.13 2,174.88 4.01 1.09 1,047.41 105.94 74.46 222.69
28-Oct-2017 08:05 23.58 2,181.51 2,182.26 4.03 1.10 1,051.29 105.93 74.44 222.67
28-Oct-2017 07:50 23.58 2,196.13 2,196.89 4.07 1.11 1,058.61 105.29 74.44 221.52
28-Oct-2017 07:45 23.58 2,201.27 2,202.03 4.08 1.11 1,060.77 103.90 74.44 219.02
28-Oct-2017 07:40 23.58 2,202.71 2,203.47 4.09 1.11 1,061.38 104.41 74.44 219.94
28-Oct-2017 07:35 23.59 2,198.96 2,199.72 4.14 1.11 1,060.16 103.33 74.46 217.99
28-Oct-2017 07:30 23.60 2,201.35 2,202.12 4.17 1.11 1,060.88 103.67 74.48 218.61
28-Oct-2017 07:25 23.61 2,201.02 2,201.79 4.18 1.11 1,060.62 104.39 74.50 219.90
28-Oct-2017 07:20 23.61 2,205.15 2,205.92 4.18 1.11 1,062.81 104.41 74.50 219.94
28-Oct-2017 07:15 23.63 2,206.15 2,206.92 4.21 1.11 1,063.46 104.78 74.53 220.60
28-Oct-2017 07:10 23.63 2,205.20 2,205.97 4.22 1.11 1,062.59 104.86 74.53 220.75
28-Oct-2017 07:05 23.64 2,208.35 2,209.12 4.24 1.11 1,062.73 104.83 74.55 220.69
28-Oct-2017 06:55 23.64 2,210.47 2,211.24 4.26 1.11 1,064.42 105.03 74.55 221.05
28-Oct-2017 06:50 23.66 2,209.64 2,210.42 4.31 1.11 1,064.39 104.72 74.59 220.50
28-Oct-2017 06:45 23.66 2,210.06 2,210.84 4.33 1.11 1,064.71 104.59 74.59 220.26
28-Oct-2017 06:40 23.67 2,210.48 2,211.26 4.34 1.11 1,066.08 104.99 74.61 220.98
28-Oct-2017 06:30 23.68 2,210.98 2,211.76 4.37 1.11 1,065.92 104.70 74.62 220.46
28-Oct-2017 06:25 23.71 2,213.99 2,214.78 4.42 1.12 1,066.75 104.86 74.68 220.75
28-Oct-2017 06:20 23.72 2,215.04 2,215.84 4.44 1.12 1,067.04 104.95 74.70 220.91
28-Oct-2017 06:10 23.73 2,216.21 2,217.02 4.45 1.12 1,067.02 105.27 74.71 221.49
28-Oct-2017 06:05 23.75 2,214.96 2,215.77 4.48 1.12 1,066.88 105.39 74.75 221.70
28-Oct-2017 06:00 23.74 2,217.98 2,218.78 4.50 1.12 1,067.83 105.42 74.73 221.76
28-Oct-2017 05:55 23.78 2,215.98 2,216.79 4.50 1.12 1,067.15 105.03 74.80 221.05
28-Oct-2017 05:50 23.79 2,216.69 2,217.51 4.52 1.12 1,067.38 105.37 74.82 221.67
28-Oct-2017 05:45 23.79 2,216.95 2,217.77 4.54 1.12 1,067.70 104.96 74.82 220.93
28-Oct-2017 05:35 23.80 2,215.10 2,215.92 4.56 1.12 1,066.55 105.38 74.84 221.68
28-Oct-2017 05:25 23.79 2,212.67 2,213.49 4.60 1.12 1,066.29 105.85 74.82 222.53
28-Oct-2017 05:15 23.74 2,211.66 2,212.46 4.61 1.11 1,065.42 105.80 74.73 222.44
28-Oct-2017 05:10 23.72 2,207.12 2,207.91 4.62 1.11 1,064.16 105.84 74.70 222.51
28-Oct-2017 05:05 23.71 2,207.16 2,207.95 4.63 1.11 1,063.53 105.72 74.68 222.30
28-Oct-2017 04:50 23.70 2,208.69 2,209.49 4.64 1.11 1,063.85 105.81 74.66 222.46
28-Oct-2017 04:45 23.69 2,210.52 2,211.32 4.65 1.11 1,064.42 105.21 74.64 221.38
28-Oct-2017 04:40 23.69 2,211.48 2,212.27 4.65 1.11 1,064.60 105.13 74.64 221.23
28-Oct-2017 04:35 23.69 2,212.31 2,213.10 4.66 1.11 1,064.17 104.23 74.64 219.61
28-Oct-2017 04:30 23.69 2,211.77 2,212.57 4.66 1.11 1,064.60 104.77 74.64 220.59
28-Oct-2017 04:25 23.70 2,210.77 2,211.57 4.66 1.11 1,064.82 104.19 74.66 219.54
28-Oct-2017 04:20 23.70 2,214.95 2,215.74 4.66 1.11 1,064.72 103.96 74.66 219.13
28-Oct-2017 04:15 23.70 2,215.62 2,216.41 4.66 1.11 1,064.93 104.77 74.66 220.59
28-Oct-2017 04:05 23.70 2,217.67 2,218.46 4.67 1.12 1,064.83 104.57 74.66 220.23
28-Oct-2017 03:55 23.71 2,214.45 2,215.25 4.67 1.11 1,063.81 104.39 74.68 219.90
28-Oct-2017 03:50 23.72 2,214.83 2,215.63 4.65 1.11 1,064.16 104.37 74.70 219.87
28-Oct-2017 03:45 23.73 2,208.41 2,209.21 4.65 1.11 1,062.01 104.82 74.71 220.68
28-Oct-2017 03:40 23.73 2,209.65 2,210.45 4.64 1.11 1,062.03 105.00 74.71 221.00
28-Oct-2017 03:35 23.73 2,213.70 2,214.51 4.63 1.11 1,063.64 104.90 74.71 220.82
28-Oct-2017 03:30 23.74 2,211.70 2,212.50 4.61 1.11 1,063.38 105.25 74.73 221.45
28-Oct-2017 03:20 23.77 2,210.37 2,211.18 4.59 1.11 1,061.94 105.40 74.79 221.72
28-Oct-2017 03:15 23.78 2,213.63 2,214.45 4.58 1.11 1,063.49 105.54 74.80 221.97
28-Oct-2017 03:10 23.79 2,210.25 2,211.07 4.56 1.11 1,062.48 105.58 74.82 222.04
28-Oct-2017 03:00 23.82 2,207.26 2,208.08 4.55 1.11 1,060.78 104.49 74.88 220.08
28-Oct-2017 02:55 23.84 2,205.47 2,206.29 4.54 1.11 1,059.99 104.01 74.91 219.22
28-Oct-2017 02:45 23.87 2,195.44 2,196.27 4.52 1.10 1,055.35 29.29 74.97 84.72
28-Oct-2017 02:35 23.88 2,188.37 2,189.20 4.51 1.10 1,051.83 28.22 74.98 82.80
28-Oct-2017 02:30 23.88 2,187.51 2,188.34 4.49 1.10 1,051.04 27.89 74.98 82.20
28-Oct-2017 02:25 23.88 2,184.89 2,185.72 4.48 1.10 1,049.61 27.13 74.98 80.83
28-Oct-2017 02:20 23.89 2,185.58 2,186.41 4.46 1.10 1,050.11 26.79 75.00 80.22
28-Oct-2017 02:15 23.89 2,183.38 2,184.21 4.45 1.10 1,049.17 26.33 75.00 79.39
28-Oct-2017 02:00 23.92 2,163.23 2,164.05 4.40 1.09 1,038.07 26.02 75.06 78.84
28-Oct-2017 01:55 23.93 2,152.37 2,153.19 4.38 1.08 1,034.07 26.10 75.07 78.98
28-Oct-2017 01:50 23.93 2,142.10 2,142.92 4.37 1.08 1,029.42 26.08 75.07 78.94
28-Oct-2017 01:45 23.93 2,124.91 2,125.72 4.36 1.07 1,023.97 26.13 75.07 79.03
28-Oct-2017 01:40 23.93 2,117.82 2,118.63 4.35 1.07 1,019.87 26.04 75.07 78.87
28-Oct-2017 01:30 23.93 2,111.34 2,112.14 4.35 1.06 1,016.55 25.96 75.07 78.73
28-Oct-2017 01:25 23.91 2,093.20 2,094.00 4.33 1.05 1,007.90 25.93 75.04 78.67
28-Oct-2017 01:20 23.86 2,089.92 2,090.71 4.31 1.05 1,005.91 25.89 74.95 78.60
28-Oct-2017 01:15 23.86 2,087.53 2,088.32 4.30 1.05 1,005.31 25.96 74.95 78.73
28-Oct-2017 01:10 23.86 2,087.66 2,088.44 4.28 1.05 1,004.84 25.97 74.95 78.75
28-Oct-2017 01:05 23.84 2,084.22 2,085.00 4.27 1.05 1,002.94 25.90 74.91 78.62
28-Oct-2017 01:00 23.85 2,078.51 2,079.29 4.24 1.04 1,001.30 25.96 74.93 78.73
28-Oct-2017 00:55 23.86 2,076.53 2,077.31 4.24 1.04 999.50 25.97 74.95 78.75
28-Oct-2017 00:50 23.85 2,074.85 2,075.63 4.22 1.04 998.70 25.89 74.93 78.60
28-Oct-2017 00:45 23.85 2,068.61 2,069.38 4.21 1.04 996.00 25.81 74.93 78.46
28-Oct-2017 00:40 23.86 2,061.91 2,062.69 4.19 1.04 993.59 25.79 74.95 78.42
28-Oct-2017 00:35 23.86 2,055.24 2,056.01 4.17 1.03 990.27 25.86 74.95 78.55
28-Oct-2017 00:25 23.88 2,050.14 2,050.91 4.15 1.03 988.78 25.83 74.98 78.49
28-Oct-2017 00:20 23.90 2,044.70 2,045.48 4.13 1.03 984.58 25.83 75.02 78.49
28-Oct-2017 00:15 23.90 2,043.29 2,044.07 4.11 1.03 983.84 25.75 75.02 78.35
28-Oct-2017 00:10 23.91 2,039.44 2,040.22 4.09 1.02 982.78 25.81 75.04 78.46
28-Oct-2017 00:05 23.90 2,040.82 2,041.60 4.09 1.02 982.50 25.84 75.02 78.51
27-Oct-2017 23:55 23.89 2,039.27 2,040.05 4.07 1.02 982.62 25.88 75.00 78.58
27-Oct-2017 23:50 23.89 2,033.11 2,033.88 4.07 1.02 980.19 25.82 75.00 78.48
27-Oct-2017 23:45 23.91 2,028.99 2,029.76 4.06 1.02 978.15 25.82 75.04 78.48
27-Oct-2017 23:40 23.95 2,026.58 2,027.36 4.05 1.02 976.75 25.90 75.11 78.62
27-Oct-2017 23:30 23.99 2,022.66 2,023.44 4.02 1.01 974.87 25.86 75.18 78.55
27-Oct-2017 23:25 24.01 2,018.92 2,019.70 4.02 1.01 973.25 25.85 75.22 78.53
27-Oct-2017 23:20 24.06 2,017.98 2,018.77 4.01 1.01 972.64 25.80 75.31 78.44
27-Oct-2017 23:10 23.92 2,011.22 2,011.98 4.00 1.01 969.89 25.82 75.06 78.48
27-Oct-2017 23:00 23.95 2,008.79 2,009.56 3.98 1.01 967.73 25.77 75.11 78.39
27-Oct-2017 22:55 24.01 2,008.68 2,009.46 3.97 1.01 968.15 25.78 75.22 78.40
27-Oct-2017 22:50 24.03 2,007.94 2,008.72 3.96 1.01 967.62 25.80 75.25 78.44
27-Oct-2017 22:40 24.04 2,007.83 2,008.61 3.96 1.01 967.34 25.78 75.27 78.40
27-Oct-2017 22:35 24.02 2,007.18 2,007.96 3.95 1.01 967.27 25.76 75.24 78.37
27-Oct-2017 22:25 24.00 2,008.96 2,009.74 3.93 1.01 968.38 25.67 75.20 78.21
27-Oct-2017 22:20 24.01 2,011.97 2,012.75 3.94 1.01 970.12 25.65 75.22 78.17
27-Oct-2017 22:15 24.01 2,014.06 2,014.84 3.94 1.01 970.78 25.73 75.22 78.31
27-Oct-2017 22:10 24.02 2,017.76 2,018.55 3.93 1.01 973.28 25.69 75.24 78.24
27-Oct-2017 22:05 24.02 2,019.88 2,020.67 3.94 1.01 973.46 25.67 75.24 78.21
27-Oct-2017 22:00 24.03 2,019.03 2,019.82 3.94 1.01 973.22 25.65 75.25 78.17
27-Oct-2017 21:55 24.03 2,024.64 2,025.43 3.92 1.02 975.06 25.62 75.25 78.12
27-Oct-2017 21:50 24.04 2,027.36 2,028.15 3.93 1.02 976.67 25.66 75.27 78.19
27-Oct-2017 21:45 24.05 2,029.37 2,030.16 3.94 1.02 977.87 25.66 75.29 78.19
27-Oct-2017 21:40 24.05 2,032.93 2,033.73 3.96 1.02 979.14 25.62 75.29 78.12
27-Oct-2017 21:35 24.06 2,032.45 2,033.24 3.95 1.02 979.24 25.67 75.31 78.21
27-Oct-2017 21:30 24.07 2,034.12 2,034.92 3.95 1.02 979.68 25.59 75.33 78.06
27-Oct-2017 21:20 24.09 2,038.54 2,039.34 3.95 1.02 981.34 25.59 75.36 78.06
27-Oct-2017 21:15 24.10 2,038.76 2,039.57 3.96 1.02 980.70 25.62 75.38 78.12
27-Oct-2017 21:10 24.11 2,040.29 2,041.10 3.98 1.02 981.75 25.66 75.40 78.19
27-Oct-2017 21:05 24.12 2,041.26 2,042.07 4.00 1.02 982.30 25.62 75.42 78.12
27-Oct-2017 21:00 24.13 2,043.30 2,044.12 4.01 1.03 982.91 25.62 75.43 78.12
27-Oct-2017 20:55 24.14 2,045.51 2,046.32 4.03 1.03 984.12 25.61 75.45 78.10
27-Oct-2017 20:45 24.17 2,047.13 2,047.95 4.04 1.03 985.46 25.70 75.51 78.26
27-Oct-2017 20:40 24.18 2,059.96 2,060.79 4.06 1.03 990.57 25.58 75.52 78.04
27-Oct-2017 20:30 24.19 2,061.14 2,061.96 4.07 1.03 990.97 25.61 75.54 78.10
27-Oct-2017 20:20 24.23 2,072.67 2,073.50 4.06 1.04 997.09 25.60 75.61 78.08
27-Oct-2017 20:15 24.29 2,086.89 2,087.74 4.11 1.05 1,003.77 25.60 75.72 78.08
27-Oct-2017 20:10 24.30 2,092.32 2,093.17 4.14 1.05 1,006.34 25.49 75.74 77.88
27-Oct-2017 20:05 24.31 2,099.56 2,100.41 4.16 1.05 1,010.00 25.46 75.76 77.83
27-Oct-2017 20:00 24.29 2,110.11 2,110.96 4.16 1.06 1,014.91 25.44 75.72 77.79
27-Oct-2017 19:55 24.28 2,116.18 2,117.04 4.17 1.06 1,017.32 25.53 75.70 77.95
27-Oct-2017 19:50 24.27 2,117.83 2,118.68 4.22 1.06 1,018.94 25.42 75.69 77.76
27-Oct-2017 19:45 24.28 2,123.55 2,124.41 4.21 1.07 1,020.26 25.49 75.70 77.88
27-Oct-2017 19:35 24.30 2,120.28 2,121.14 4.24 1.07 1,020.36 25.47 75.74 77.85
27-Oct-2017 19:30 24.39 2,128.71 2,129.58 4.29 1.07 1,024.12 25.40 75.90 77.72
27-Oct-2017 19:25 24.41 2,132.81 2,133.68 4.29 1.07 1,026.41 25.43 75.94 77.77
27-Oct-2017 19:20 24.42 2,138.40 2,139.28 4.32 1.08 1,029.07 25.45 75.96 77.81
27-Oct-2017 19:15 24.44 2,143.97 2,144.85 4.34 1.08 1,031.66 25.41 75.99 77.74
27-Oct-2017 19:05 24.46 2,155.59 2,156.47 4.37 1.08 1,036.60 25.37 76.03 77.67
27-Oct-2017 18:55 24.48 2,164.64 2,165.52 4.41 1.09 1,041.71 25.48 76.06 77.86
27-Oct-2017 18:45 24.47 2,178.01 2,178.90 4.45 1.10 1,049.61 25.47 76.05 77.85
27-Oct-2017 18:40 24.47 2,188.33 2,189.23 4.46 1.10 1,053.32 25.42 76.05 77.76
27-Oct-2017 18:35 24.47 2,195.49 2,196.38 4.47 1.11 1,057.69 25.48 76.05 77.86
27-Oct-2017 18:30 24.49 2,204.71 2,205.62 4.49 1.11 1,061.96 25.43 76.08 77.77
27-Oct-2017 18:25 24.52 2,212.24 2,213.15 4.49 1.12 1,065.07 25.44 76.14 77.79
27-Oct-2017 18:20 24.54 2,217.14 2,218.05 4.51 1.12 1,067.09 25.48 76.17 77.86
27-Oct-2017 18:15 24.59 2,220.95 2,221.86 4.52 1.12 1,068.69 25.46 76.26 77.83
27-Oct-2017 18:10 24.65 2,221.87 2,222.78 4.52 1.12 1,069.19 25.49 76.37 77.88
27-Oct-2017 18:05 24.65 2,223.25 2,224.16 4.57 1.12 1,069.43 25.47 76.37 77.85
27-Oct-2017 18:00 24.65 2,222.08 2,222.99 4.58 1.12 1,069.37 25.54 76.37 77.97
27-Oct-2017 17:50 24.67 2,224.02 2,224.93 4.59 1.12 1,069.30 25.54 76.41 77.97
27-Oct-2017 17:45 24.76 2,223.45 2,224.35 4.60 1.12 1,069.38 25.52 76.57 77.94
27-Oct-2017 17:40 24.76 2,225.56 2,226.46 4.62 1.12 1,070.39 25.59 76.57 78.06
27-Oct-2017 17:30 24.75 2,227.46 2,228.37 4.67 1.12 1,071.76 25.62 76.55 78.12
27-Oct-2017 17:20 24.80 2,228.95 2,229.85 4.68 1.12 1,072.16 25.80 76.64 78.44
27-Oct-2017 17:10 24.79 2,230.33 2,231.24 4.75 1.12 1,073.33 25.46 76.62 77.83
27-Oct-2017 17:05 24.80 2,229.34 2,230.24 4.74 1.12 1,073.25 25.53 76.64 77.95
27-Oct-2017 17:00 24.84 2,227.84 2,228.74 4.72 1.12 1,072.95 25.67 76.71 78.21
27-Oct-2017 16:55 24.84 2,226.97 2,227.87 4.71 1.12 1,072.64 25.76 76.71 78.37
27-Oct-2017 16:45 24.82 2,224.84 2,225.74 4.69 1.12 1,071.05 25.88 76.68 78.58
27-Oct-2017 16:40 24.82 2,226.96 2,227.86 4.70 1.12 1,071.93 25.99 76.68 78.78
27-Oct-2017 16:35 24.81 2,227.31 2,228.21 4.68 1.12 1,071.89 25.97 76.66 78.75
27-Oct-2017 16:25 24.77 2,223.15 2,224.05 4.72 1.12 1,070.57 25.69 76.59 78.24
27-Oct-2017 16:20 24.77 2,222.93 2,223.84 4.66 1.12 1,070.35 25.89 76.59 78.60
27-Oct-2017 16:15 24.76 2,219.75 2,220.65 4.63 1.12 1,068.95 26.07 76.57 78.93
27-Oct-2017 16:10 24.72 2,219.09 2,220.00 4.68 1.12 1,068.07 26.02 76.50 78.84
27-Oct-2017 16:05 24.69 2,216.01 2,216.91 4.68 1.12 1,067.02 25.87 76.44 78.57
27-Oct-2017 15:55 24.64 2,214.93 2,215.84 4.65 1.12 1,066.11 25.94 76.35 78.69
27-Oct-2017 15:50 24.59 2,212.63 2,213.53 4.64 1.12 1,065.65 25.97 76.26 78.75
27-Oct-2017 15:40 24.53 2,211.90 2,212.81 4.68 1.11 1,065.03 25.94 76.15 78.69
27-Oct-2017 15:35 24.49 2,207.20 2,208.11 4.68 1.11 1,063.13 25.91 76.08 78.64
27-Oct-2017 15:30 24.46 2,207.04 2,207.94 4.72 1.11 1,063.05 25.63 76.03 78.13
27-Oct-2017 15:15 24.39 2,198.06 2,198.95 4.66 1.11 1,058.84 25.81 75.90 78.46
27-Oct-2017 15:10 24.36 2,197.10 2,197.99 4.66 1.11 1,058.09 25.81 75.85 78.46
27-Oct-2017 15:00 24.30 2,190.88 2,191.77 4.65 1.10 1,054.87 25.69 75.74 78.24
27-Oct-2017 14:55 24.28 2,186.87 2,187.76 4.61 1.10 1,053.28 25.70 75.70 78.26
27-Oct-2017 14:45 24.22 2,180.61 2,181.49 4.52 1.10 1,050.16 25.79 75.60 78.42
27-Oct-2017 14:20 24.04 2,153.92 2,154.76 4.43 1.08 1,036.75 25.86 75.27 78.55
27-Oct-2017 14:15 24.00 2,148.96 2,149.79 4.43 1.08 1,033.94 25.74 75.20 78.33
27-Oct-2017 14:05 23.94 2,132.84 2,133.66 4.39 1.07 1,027.07 25.78 75.09 78.40
27-Oct-2017 13:55 23.85 2,107.16 2,107.95 4.38 1.06 1,015.11 25.58 74.93 78.04
27-Oct-2017 13:45 23.78 2,087.42 2,088.19 4.31 1.05 1,004.83 25.74 74.80 78.33
27-Oct-2017 13:40 23.74 2,072.16 2,072.91 4.31 1.04 998.06 25.63 74.73 78.13
27-Oct-2017 13:35 23.71 2,059.33 2,060.07 4.29 1.03 992.35 25.66 74.68 78.19
27-Oct-2017 13:30 23.66 2,049.11 2,049.83 4.29 1.03 987.02 25.53 74.59 77.95
27-Oct-2017 13:25 23.63 2,037.87 2,038.58 4.22 1.02 982.04 25.71 74.53 78.28
27-Oct-2017 13:20 23.61 2,032.41 2,033.12 4.21 1.02 979.79 25.73 74.50 78.31
27-Oct-2017 13:15 23.60 2,024.99 2,025.69 4.22 1.02 975.87 25.59 74.48 78.06
27-Oct-2017 13:10 23.68 2,020.46 2,021.18 4.20 1.01 973.87 25.63 74.62 78.13
27-Oct-2017 13:05 23.65 2,020.83 2,021.54 4.18 1.01 973.62 25.64 74.57 78.15
27-Oct-2017 13:00 23.62 2,021.84 2,022.55 4.17 1.01 974.05 25.63 74.52 78.13
27-Oct-2017 12:55 23.60 2,023.10 2,023.80 4.15 1.01 974.55 25.56 74.48 78.01
27-Oct-2017 12:50 23.58 2,022.46 2,023.16 4.12 1.01 974.91 25.59 74.44 78.06
27-Oct-2017 12:45 23.57 2,019.97 2,020.66 4.10 1.01 973.73 25.56 74.43 78.01
27-Oct-2017 12:40 23.57 2,018.21 2,018.90 4.08 1.01 972.92 25.49 74.43 77.88
27-Oct-2017 12:35 23.58 2,016.03 2,016.72 4.06 1.01 971.77 25.52 74.44 77.94
27-Oct-2017 12:25 23.58 2,013.12 2,013.81 4.03 1.01 970.07 25.46 74.44 77.83
27-Oct-2017 12:20 23.58 2,012.73 2,013.42 4.00 1.01 969.97 25.43 74.44 77.77
27-Oct-2017 12:10 23.56 2,012.28 2,012.97 3.96 1.01 969.77 25.47 74.41 77.85
27-Oct-2017 12:05 23.51 2,010.26 2,010.93 3.92 1.01 969.07 25.49 74.32 77.88
27-Oct-2017 11:55 23.46 2,002.60 2,003.25 3.88 1.01 966.12 25.43 74.23 77.77
27-Oct-2017 11:45 23.38 1,999.26 1,999.89 3.82 1.00 964.88 25.42 74.08 77.76
27-Oct-2017 11:35 23.22 1,998.62 1,999.19 3.77 1.00 964.54 99.95 73.80 211.91
27-Oct-2017 11:30 23.13 2,000.58 2,001.11 3.73 1.00 965.42 100.95 73.63 213.71
27-Oct-2017 11:20 23.02 1,998.62 1,999.11 3.68 1.00 964.83 97.73 73.44 207.91
27-Oct-2017 11:15 23.04 1,993.53 1,994.03 3.67 1.00 962.96 98.47 73.47 209.25
27-Oct-2017 11:10 23.11 1,988.93 1,989.45 3.67 1.00 960.51 26.04 73.60 78.87
27-Oct-2017 11:05 23.13 1,988.56 1,989.09 3.65 1.00 959.69 25.76 73.63 78.37
27-Oct-2017 11:00 23.12 1,987.97 1,988.49 3.62 1.00 959.58 25.74 73.62 78.33
27-Oct-2017 10:55 23.09 1,987.33 1,987.85 3.62 1.00 958.67 25.63 73.56 78.13
27-Oct-2017 10:50 23.08 1,984.29 1,984.80 3.60 1.00 957.60 25.63 73.54 78.13
27-Oct-2017 10:40 23.06 1,982.67 1,983.17 3.56 1.00 957.62 25.49 73.51 77.88
27-Oct-2017 10:30 23.02 1,980.48 1,980.97 3.51 0.99 956.29 29.22 73.44 84.60
27-Oct-2017 10:25 23.03 1,981.04 1,981.52 3.49 0.99 955.76 27.64 73.45 81.75
27-Oct-2017 10:20 23.00 1,978.23 1,978.71 3.46 0.99 955.22 25.87 73.40 78.57
27-Oct-2017 10:15 23.00 1,980.02 1,980.50 3.46 0.99 955.53 25.53 73.40 77.95
27-Oct-2017 10:10 22.98 1,978.78 1,979.24 3.45 0.99 955.79 25.39 73.36 77.70
27-Oct-2017 10:05 22.97 1,977.39 1,977.85 3.45 0.99 955.60 25.37 73.35 77.67
27-Oct-2017 10:00 22.95 1,979.93 1,980.38 3.44 0.99 956.05 25.34 73.31 77.61
27-Oct-2017 09:50 22.92 1,984.86 1,985.30 3.43 1.00 958.40 25.24 73.26 77.43
27-Oct-2017 09:45 22.90 1,986.09 1,986.52 3.43 1.00 959.46 25.22 73.22 77.40
27-Oct-2017 09:40 22.89 1,986.65 1,987.08 3.41 1.00 959.66 25.20 73.20 77.36
27-Oct-2017 09:35 22.87 1,993.67 1,994.08 3.40 1.00 962.84 25.27 73.17 77.49
27-Oct-2017 09:30 22.85 1,996.08 1,996.49 3.39 1.00 963.92 25.28 73.13 77.50
27-Oct-2017 09:25 22.85 1,999.55 1,999.95 3.39 1.00 965.56 25.30 73.13 77.54
27-Oct-2017 09:20 22.82 2,002.42 2,002.81 3.38 1.01 967.19 25.32 73.08 77.58
27-Oct-2017 09:15 22.81 2,007.86 2,008.25 3.37 1.01 969.54 25.30 73.06 77.54
27-Oct-2017 09:05 22.80 2,010.83 2,011.22 3.38 1.01 970.57 25.27 73.04 77.49
27-Oct-2017 09:00 22.78 2,011.42 2,011.80 3.36 1.01 971.08 99.08 73.00 210.34
27-Oct-2017 08:55 22.78 2,016.48 2,016.86 3.36 1.01 973.81 98.69 73.00 209.64
27-Oct-2017 08:45 22.78 2,020.59 2,020.97 3.38 1.01 975.84 98.06 73.00 208.51
27-Oct-2017 08:35 22.78 2,023.96 2,024.34 3.39 1.02 977.35 99.64 73.00 211.35
27-Oct-2017 08:30 22.78 2,025.35 2,025.73 3.40 1.02 978.35 99.76 73.00 211.57
27-Oct-2017 08:25 22.78 2,026.70 2,027.08 3.43 1.02 978.43 100.94 73.00 213.69
27-Oct-2017 08:20 22.77 2,030.61 2,030.98 3.47 1.02 980.46 101.01 72.99 213.82
27-Oct-2017 08:10 22.77 2,033.17 2,033.54 3.56 1.02 981.42 99.44 72.99 210.99
27-Oct-2017 08:00 22.76 2,036.58 2,036.95 3.69 1.02 983.79 98.42 72.97 209.16
27-Oct-2017 07:55 22.76 2,036.73 2,037.10 3.77 1.02 984.20 96.81 72.97 206.26
27-Oct-2017 07:45 22.74 2,044.76 2,045.11 3.86 1.03 986.51 95.06 72.93 203.11
27-Oct-2017 07:40 22.75 2,046.60 2,046.97 3.87 1.03 986.58 95.89 72.95 204.60
27-Oct-2017 07:35 22.77 2,046.93 2,047.30 3.89 1.03 987.29 95.16 72.99 203.29
27-Oct-2017 07:30 22.78 2,046.65 2,047.03 3.92 1.03 987.75 95.28 73.00 203.50
27-Oct-2017 07:25 22.79 2,048.45 2,048.83 3.93 1.03 988.52 95.30 73.02 203.54
27-Oct-2017 07:20 22.79 2,053.04 2,053.43 3.95 1.03 990.37 95.27 73.02 203.49
27-Oct-2017 07:15 22.80 2,056.10 2,056.49 3.96 1.03 992.23 95.57 73.04 204.03
27-Oct-2017 07:05 22.79 2,059.05 2,059.44 3.97 1.03 992.97 95.89 73.02 204.60
27-Oct-2017 07:00 22.78 2,067.35 2,067.74 4.01 1.04 996.65 96.28 73.00 205.30
27-Oct-2017 06:50 22.76 2,074.86 2,075.24 4.06 1.04 1,000.66 95.34 72.97 203.61
27-Oct-2017 06:40 22.75 2,081.97 2,082.34 4.08 1.05 1,004.45 96.09 72.95 204.96
27-Oct-2017 06:35 22.75 2,093.98 2,094.35 4.12 1.05 1,009.98 95.70 72.95 204.26
27-Oct-2017 06:30 22.75 2,098.01 2,098.38 4.15 1.05 1,011.56 96.88 72.95 206.38
27-Oct-2017 06:25 22.74 2,099.94 2,100.31 4.16 1.06 1,012.91 96.60 72.93 205.88
27-Oct-2017 06:15 22.67 2,109.08 2,109.41 4.22 1.06 1,017.27 96.80 72.81 206.24
27-Oct-2017 06:10 22.67 2,118.39 2,118.72 4.26 1.07 1,022.23 96.26 72.81 205.27
27-Oct-2017 06:05 22.69 2,130.85 2,131.20 4.28 1.07 1,027.70 96.42 72.84 205.56
27-Oct-2017 06:00 22.71 2,143.78 2,144.14 4.30 1.08 1,034.19 96.82 72.88 206.28
27-Oct-2017 05:50 22.73 2,161.27 2,161.65 4.32 1.09 1,042.75 96.96 72.91 206.53
27-Oct-2017 05:45 22.79 2,176.60 2,177.01 4.34 1.10 1,048.81 95.79 73.02 204.42
27-Oct-2017 05:35 23.06 2,209.36 2,209.92 4.38 1.11 1,065.95 96.50 73.51 205.70
27-Oct-2017 05:30 23.45 2,225.90 2,226.62 4.42 1.12 1,072.31 96.96 74.21 206.53
27-Oct-2017 05:20 23.60 2,225.69 2,226.46 4.45 1.12 1,072.10 97.04 74.48 206.67
27-Oct-2017 05:15 23.72 2,230.20 2,231.01 4.47 1.12 1,074.20 97.13 74.70 206.83
27-Oct-2017 05:10 23.74 2,231.75 2,232.56 4.47 1.12 1,074.54 97.22 74.73 207.00
27-Oct-2017 05:05 23.74 2,225.60 2,226.41 4.48 1.12 1,074.32 97.12 74.73 206.82
27-Oct-2017 05:00 23.73 2,226.74 2,227.54 4.49 1.12 1,074.77 97.28 74.71 207.10
27-Oct-2017 04:55 23.73 2,230.67 2,231.48 4.50 1.13 1,075.05 97.19 74.71 206.94
27-Oct-2017 04:50 23.77 2,229.81 2,230.63 4.51 1.13 1,074.70 97.12 74.79 206.82
27-Oct-2017 04:45 23.76 2,233.29 2,234.11 4.53 1.13 1,076.27 97.12 74.77 206.82
27-Oct-2017 04:40 23.79 2,232.71 2,233.53 4.54 1.13 1,076.50 97.05 74.82 206.69
27-Oct-2017 04:30 23.86 2,234.68 2,235.52 4.54 1.13 1,077.10 96.95 74.95 206.51
27-Oct-2017 04:25 23.91 2,234.50 2,235.35 4.56 1.13 1,076.69 97.18 75.04 206.92
27-Oct-2017 04:20 23.92 2,236.78 2,237.63 4.57 1.13 1,077.79 97.52 75.06 207.54
27-Oct-2017 04:05 23.91 2,233.86 2,234.71 4.61 1.13 1,076.27 97.52 75.04 207.54
27-Oct-2017 04:00 23.90 2,230.83 2,231.68 4.64 1.13 1,075.44 97.04 75.02 206.67
27-Oct-2017 03:40 23.85 2,222.27 2,223.11 4.68 1.12 1,071.32 96.69 74.93 206.04
27-Oct-2017 02:45 23.51 2,180.89 2,181.62 4.59 1.10 1,052.67 97.93 74.32 208.27
27-Oct-2017 02:30 23.47 2,169.15 2,169.86 4.56 1.09 1,046.61 97.26 74.25 207.07
27-Oct-2017 01:00 22.95 2,058.15 2,058.62 4.37 1.03 992.90 97.92 73.31 208.26
27-Oct-2017 00:10 22.98 2,045.54 2,046.02 4.20 1.03 986.40 98.22 73.36 208.80
26-Oct-2017 12:35 22.98 2,047.30 2,047.78 4.16 1.02 974.63 103.41 73.36 218.14
25-Oct-2017 15:40 25.97 2,297.74 2,298.38 4.54 1.15 1,084.98 105.93 78.75 222.67
25-Oct-2017 13:50 26.34 2,321.01 2,321.48 4.81 1.16 1,092.84 105.93 79.41 222.67
25-Oct-2017 13:40 26.38 2,310.69 2,311.14 4.78 1.15 1,088.03 105.87 79.48 222.57
25-Oct-2017 13:35 26.37 2,311.78 2,312.24 4.80 1.15 1,088.97 105.88 79.47 222.58
25-Oct-2017 13:05 26.42 2,312.93 2,313.35 4.78 1.15 1,089.12 105.93 79.56 222.67
25-Oct-2017 12:55 26.46 2,306.84 2,307.24 4.78 1.15 1,087.32 105.92 79.63 222.66
25-Oct-2017 12:15 26.51 2,259.87 2,260.24 4.61 1.12 1,064.09 105.93 79.72 222.67
25-Oct-2017 11:30 26.59 2,260.66 2,260.98 4.45 1.13 1,068.03 105.93 79.86 222.67
25-Oct-2017 11:05 26.75 2,264.84 2,265.07 4.34 1.13 1,069.41 105.93 80.15 222.67
25-Oct-2017 06:00 27.60 2,382.73 2,382.32 4.48 1.19 1,123.16 23.67 81.68 74.61
25-Oct-2017 04:20 27.87 2,463.85 2,463.17 4.23 1.23 1,162.99 27.63 82.17 81.73
25-Oct-2017 04:00 27.88 2,450.89 2,450.20 4.41 1.23 1,156.41 27.23 82.18 81.01
25-Oct-2017 02:10 27.95 2,427.35 2,426.61 4.71 1.21 1,145.64 27.68 82.31 81.82
25-Oct-2017 02:05 27.95 2,420.31 2,419.57 4.68 1.21 1,142.71 27.79 82.31 82.02
24-Oct-2017 19:05 28.63 2,152.58 2,151.27 4.05 1.08 1,027.54 28.06 83.53 82.51
24-Oct-2017 16:40 28.49 2,192.47 2,191.29 4.14 1.10 1,048.67 29.90 83.28 85.82
24-Oct-2017 12:25 27.82 2,152.45 2,151.90 4.66 1.08 1,027.00 29.36 82.08 84.85
24-Oct-2017 10:50 27.39 2,167.91 2,167.70 3.89 1.09 1,038.75 94.34 81.30 201.81
24-Oct-2017 06:10 27.48 2,186.18 2,185.90 3.71 1.10 1,043.87 104.62 81.46 220.32
24-Oct-2017 05:30 27.53 2,192.18 2,191.86 3.87 1.10 1,046.96 104.78 81.55 220.60
24-Oct-2017 05:00 27.59 2,206.45 2,206.08 3.97 1.11 1,052.09 104.97 81.66 220.95
24-Oct-2017 04:40 27.62 2,209.00 2,208.60 4.04 1.11 1,052.32 104.68 81.72 220.42
24-Oct-2017 04:25 27.65 2,198.73 2,198.31 4.12 1.10 1,051.69 105.09 81.77 221.16
24-Oct-2017 04:05 27.70 2,202.54 2,202.09 4.24 1.11 1,052.92 105.00 81.86 221.00
23-Oct-2017 21:00 27.97 2,153.25 2,152.57 4.29 1.08 1,029.22 104.33 82.35 219.79
23-Oct-2017 06:10 27.08 2,181.95 2,181.96 3.79 1.09 1,042.45 93.35 80.74 200.03
23-Oct-2017 02:50 27.41 2,236.81 2,236.58 4.59 1.12 1,069.30 93.33 81.34 199.99
22-Oct-2017 20:30 27.59 2,149.88 2,149.52 4.48 1.08 1,027.03 99.53 81.66 211.15
22-Oct-2017 20:25 27.60 2,149.80 2,149.43 4.48 1.08 1,027.19 97.58 81.68 207.64
22-Oct-2017 19:00 27.72 2,127.05 2,126.58 4.53 1.07 1,018.07 104.61 81.90 220.30
22-Oct-2017 17:00 27.92 2,183.46 2,182.82 4.24 1.09 1,038.88 103.85 82.26 218.93
22-Oct-2017 10:05 27.18 2,205.69 2,205.62 4.87 1.10 1,047.73 98.63 80.92 209.53
22-Oct-2017 09:45 27.19 2,181.91 2,181.85 4.77 1.09 1,037.81 100.34 80.94 212.61
22-Oct-2017 08:15 27.16 2,175.33 2,175.29 4.44 1.09 1,038.29 101.96 80.89 215.53
22-Oct-2017 08:10 27.18 2,174.01 2,173.95 4.43 1.09 1,037.44 102.33 80.92 216.19
22-Oct-2017 08:00 27.24 2,171.33 2,171.23 4.42 1.09 1,034.29 102.68 81.03 216.82
22-Oct-2017 07:55 27.29 2,168.14 2,168.00 4.41 1.08 1,032.88 101.86 81.12 215.35
22-Oct-2017 07:45 27.34 2,164.06 2,163.88 4.39 1.08 1,030.76 101.77 81.21 215.19
22-Oct-2017 07:35 27.35 2,165.42 2,165.24 4.36 1.08 1,031.59 101.39 81.23 214.50
22-Oct-2017 07:30 27.36 2,164.17 2,163.98 4.34 1.08 1,031.68 101.72 81.25 215.10
22-Oct-2017 07:20 27.38 2,164.78 2,164.58 4.31 1.08 1,031.58 99.76 81.28 211.57
22-Oct-2017 07:00 27.37 2,164.92 2,164.73 4.20 1.08 1,031.35 101.04 81.27 213.87
22-Oct-2017 06:50 27.38 2,163.74 2,163.54 4.16 1.08 1,031.28 101.05 81.28 213.89
22-Oct-2017 06:35 27.39 2,157.62 2,157.41 4.13 1.08 1,028.42 103.48 81.30 218.26
22-Oct-2017 06:20 27.41 2,157.73 2,157.51 4.09 1.08 1,029.80 101.59 81.34 214.86
22-Oct-2017 06:15 27.42 2,159.12 2,158.89 4.10 1.08 1,031.11 100.84 81.36 213.51
22-Oct-2017 06:10 27.41 2,163.17 2,162.94 4.09 1.08 1,032.01 101.08 81.34 213.94
22-Oct-2017 06:05 27.42 2,166.66 2,166.43 4.10 1.08 1,032.43 102.77 81.36 216.99
22-Oct-2017 05:55 27.43 2,169.33 2,169.09 4.08 1.09 1,034.75 102.84 81.37 217.11
22-Oct-2017 05:40 27.44 2,171.22 2,170.97 4.09 1.09 1,035.72 103.68 81.39 218.62
22-Oct-2017 05:25 27.46 2,175.76 2,175.49 4.11 1.09 1,038.03 105.07 81.43 221.13
22-Oct-2017 05:20 27.47 2,177.33 2,177.06 4.11 1.09 1,038.66 104.56 81.45 220.21
22-Oct-2017 05:15 27.48 2,177.88 2,177.60 4.11 1.09 1,039.40 104.99 81.46 220.98
22-Oct-2017 04:55 27.50 2,177.89 2,177.59 4.18 1.09 1,039.90 105.44 81.50 221.79
22-Oct-2017 04:40 27.51 2,171.20 2,170.90 4.22 1.09 1,037.09 105.40 81.52 221.72
22-Oct-2017 04:25 27.48 2,153.45 2,153.17 4.26 1.08 1,029.12 105.44 81.46 221.79
22-Oct-2017 04:20 27.48 2,153.84 2,153.57 4.29 1.08 1,029.33 105.40 81.46 221.72
22-Oct-2017 04:15 27.46 2,156.09 2,155.82 4.30 1.08 1,030.27 105.38 81.43 221.68
22-Oct-2017 04:05 27.46 2,165.52 2,165.25 4.34 1.08 1,032.66 105.12 81.43 221.22
22-Oct-2017 04:00 27.46 2,167.86 2,167.60 4.37 1.09 1,034.47 105.15 81.43 221.27
22-Oct-2017 03:55 27.46 2,168.94 2,168.68 4.38 1.09 1,034.47 105.16 81.43 221.29
22-Oct-2017 03:50 27.46 2,171.55 2,171.29 4.41 1.09 1,035.65 105.21 81.43 221.38
22-Oct-2017 03:40 27.45 2,177.17 2,176.91 4.45 1.09 1,038.39 104.83 81.41 220.69
22-Oct-2017 03:35 27.45 2,181.55 2,181.29 4.48 1.09 1,040.00 104.15 81.41 219.47
22-Oct-2017 03:30 27.46 2,188.00 2,187.74 4.50 1.10 1,043.30 104.29 81.43 219.72
22-Oct-2017 03:25 27.47 2,191.84 2,191.57 4.53 1.10 1,045.59 103.64 81.45 218.55
22-Oct-2017 03:20 27.48 2,197.69 2,197.41 4.55 1.10 1,047.28 103.54 81.46 218.37
22-Oct-2017 03:00 27.53 2,232.64 2,232.32 4.66 1.12 1,063.30 103.41 81.55 218.14
22-Oct-2017 02:55 27.56 2,246.62 2,246.27 4.69 1.13 1,068.59 103.37 81.61 218.07
22-Oct-2017 02:50 27.59 2,271.23 2,270.85 4.71 1.14 1,077.95 103.73 81.66 218.71
22-Oct-2017 02:40 27.64 2,289.39 2,288.96 4.78 1.14 1,085.37 102.55 81.75 216.59
22-Oct-2017 02:35 27.66 2,288.00 2,287.56 4.81 1.14 1,085.40 103.07 81.79 217.53
22-Oct-2017 02:00 27.72 2,280.94 2,280.45 5.01 1.14 1,082.66 102.87 81.90 217.17
22-Oct-2017 01:45 27.73 2,282.25 2,281.75 5.13 1.14 1,085.96 102.36 81.91 216.25
22-Oct-2017 01:05 27.79 2,298.10 2,297.54 5.37 1.15 1,092.62 94.07 82.02 201.33
22-Oct-2017 00:55 27.80 2,297.28 2,296.71 5.42 1.15 1,091.60 85.19 82.04 185.34
22-Oct-2017 00:45 27.78 2,293.05 2,292.51 5.46 1.15 1,090.32 84.49 82.00 184.08
22-Oct-2017 00:05 27.82 2,280.95 2,280.37 5.59 1.14 1,086.94 60.66 82.08 141.19
21-Oct-2017 06:35 27.60 2,079.33 2,078.98 4.39 1.04 994.79 101.51 81.68 214.72
21-Oct-2017 06:25 27.59 2,069.54 2,069.19 4.38 1.04 989.86 101.67 81.66 215.01
21-Oct-2017 06:20 27.59 2,065.17 2,064.82 4.38 1.03 987.62 102.40 81.66 216.32
21-Oct-2017 06:15 27.58 2,059.22 2,058.88 4.40 1.03 984.21 102.18 81.64 215.92
21-Oct-2017 05:45 27.58 2,039.44 2,039.10 4.22 1.02 975.52 103.39 81.64 218.10
21-Oct-2017 05:40 27.58 2,038.26 2,037.93 4.21 1.02 974.90 103.14 81.64 217.65
21-Oct-2017 05:15 27.60 2,070.75 2,070.40 4.33 1.04 990.77 103.94 81.68 219.09
21-Oct-2017 04:55 27.60 2,112.21 2,111.85 4.37 1.06 1,009.09 102.87 81.68 217.17
21-Oct-2017 04:35 27.62 2,125.23 2,124.85 4.51 1.06 1,014.95 103.22 81.72 217.80
21-Oct-2017 04:05 27.66 2,150.72 2,150.30 4.42 1.08 1,026.89 96.99 81.79 206.58
21-Oct-2017 03:40 27.71 2,177.53 2,177.07 4.45 1.09 1,038.21 95.85 81.88 204.53
21-Oct-2017 03:25 27.73 2,212.85 2,212.36 4.45 1.11 1,053.72 96.41 81.91 205.54
21-Oct-2017 03:10 27.76 2,276.34 2,275.82 4.51 1.14 1,077.12 96.51 81.97 205.72
21-Oct-2017 03:05 27.77 2,264.78 2,264.25 4.55 1.13 1,072.16 95.66 81.99 204.19
21-Oct-2017 03:00 27.78 2,268.02 2,267.48 4.56 1.13 1,072.98 95.87 82.00 204.57
21-Oct-2017 02:50 27.79 2,257.44 2,256.89 4.62 1.13 1,069.43 96.53 82.02 205.75
21-Oct-2017 02:25 27.84 2,246.66 2,246.07 4.77 1.12 1,066.95 96.41 82.11 205.54
21-Oct-2017 02:15 27.85 2,236.34 2,235.74 4.82 1.12 1,063.78 97.74 82.13 207.93
21-Oct-2017 01:50 27.84 2,215.92 2,215.34 5.00 1.11 1,056.56 98.49 82.11 209.28
21-Oct-2017 00:45 28.10 2,238.08 2,237.26 5.38 1.13 1,070.16 100.04 82.58 212.07
20-Oct-2017 23:05 28.30 2,238.95 2,237.94 5.72 1.12 1,069.61 94.49 82.94 202.08
20-Oct-2017 22:15 28.46 2,197.14 2,195.99 5.66 1.10 1,047.71 100.18 83.23 212.32
20-Oct-2017 21:40 28.55 2,147.75 2,146.54 5.58 1.08 1,024.73 103.67 83.39 218.61
20-Oct-2017 20:10 28.43 2,068.81 2,067.75 5.20 1.03 986.49 27.94 83.17 82.29
20-Oct-2017 19:50 28.45 2,059.90 2,058.83 5.19 1.03 981.89 26.75 83.21 80.15
20-Oct-2017 16:25 28.85 2,075.31 2,073.83 4.13 1.04 990.99 29.04 83.93 84.27
20-Oct-2017 03:00 27.87 2,122.96 2,122.38 4.06 1.06 1,013.56 29.00 82.17 84.20
20-Oct-2017 02:50 27.89 2,126.66 2,126.06 4.09 1.07 1,016.24 29.01 82.20 84.22
20-Oct-2017 02:20 27.95 2,158.69 2,158.03 4.27 1.08 1,029.83 28.92 82.31 84.06
20-Oct-2017 00:25 28.30 2,282.58 2,281.54 4.86 1.15 1,087.20 28.90 82.94 84.02
18-Oct-2017 13:00 28.66 2,352.04 2,350.59 4.63 1.18 1,112.37 25.25 83.59 77.45
18-Oct-2017 12:20 28.73 2,352.68 2,351.15 4.82 1.18 1,114.17 25.35 83.71 77.63
18-Oct-2017 05:15 28.94 2,369.68 2,367.88 4.27 1.19 1,120.23 27.99 84.09 82.38
15-Oct-2017 07:05 27.81 2,304.76 2,304.18 5.22 1.15 1,090.02 27.86 82.06 82.15
14-Oct-2017 09:50 27.56 2,205.49 2,205.14 4.11 1.11 1,052.18 27.33 81.61 81.19
14-Oct-2017 09:40 27.56 2,210.62 2,210.28 4.14 1.11 1,053.52 27.35 81.61 81.23
14-Oct-2017 09:30 27.54 2,219.97 2,219.63 4.19 1.11 1,057.78 27.29 81.57 81.12
14-Oct-2017 09:25 27.53 2,236.52 2,236.19 4.14 1.12 1,064.92 27.29 81.55 81.12
14-Oct-2017 09:15 27.52 2,304.42 2,304.10 4.21 1.15 1,091.03 27.43 81.54 81.37
14-Oct-2017 08:30 27.49 2,244.44 2,244.14 4.28 1.12 1,067.30 28.55 81.48 83.39
14-Oct-2017 08:15 27.50 2,250.63 2,250.33 4.37 1.13 1,069.96 28.74 81.50 83.73
14-Oct-2017 05:25 27.57 2,324.62 2,324.24 5.03 1.16 1,100.54 28.04 81.63 82.47
14-Oct-2017 02:50 27.75 2,363.05 2,362.51 4.52 1.19 1,120.01 28.18 81.95 82.72
14-Oct-2017 02:00 27.74 2,401.78 2,401.25 4.35 1.21 1,139.98 28.18 81.93 82.72
13-Oct-2017 11:25 27.58 2,962.92 2,962.44 4.04 1.54 1,451.83 26.92 81.64 80.46
13-Oct-2017 09:30 27.26 2,919.90 2,919.75 3.71 1.52 1,428.07 28.71 81.07 83.68
13-Oct-2017 08:50 27.20 3,017.49 3,017.39 4.01 1.57 1,478.53 28.36 80.96 83.05
13-Oct-2017 08:35 27.21 3,062.07 3,061.95 4.03 1.59 1,500.20 28.14 80.98 82.65
13-Oct-2017 07:55 27.22 3,098.99 3,098.86 4.34 1.62 1,519.24 27.92 81.00 82.26
13-Oct-2017 07:20 27.22 3,065.69 3,065.57 4.55 1.60 1,501.55 27.92 81.00 82.26
13-Oct-2017 05:50 27.31 3,031.76 3,031.55 5.01 1.58 1,483.90 27.87 81.16 82.17
13-Oct-2017 05:05 27.32 2,944.07 2,943.85 5.18 1.53 1,438.97 27.08 81.18 80.74
13-Oct-2017 04:40 27.36 2,960.47 2,960.20 5.15 1.54 1,449.36 27.85 81.25 82.13
13-Oct-2017 04:30 27.37 2,942.74 2,942.48 5.15 1.53 1,440.19 27.84 81.27 82.11
13-Oct-2017 04:05 27.40 2,909.78 2,909.49 5.11 1.51 1,422.81 27.81 81.32 82.06
13-Oct-2017 03:00 27.44 2,759.20 2,758.88 4.95 1.42 1,342.51 27.78 81.39 82.00
13-Oct-2017 02:55 27.44 2,743.51 2,743.19 4.94 1.41 1,334.03 27.90 81.39 82.22
13-Oct-2017 02:25 27.41 2,656.15 2,655.87 4.87 1.36 1,289.10 27.43 81.34 81.37
13-Oct-2017 02:20 27.39 2,646.34 2,646.08 4.86 1.36 1,282.43 27.41 81.30 81.34
13-Oct-2017 02:15 27.39 2,633.73 2,633.48 4.84 1.35 1,275.79 27.42 81.30 81.36
13-Oct-2017 01:20 27.38 2,403.01 2,402.78 4.61 1.21 1,146.17 27.48 81.28 81.46
13-Oct-2017 01:05 27.39 2,257.82 2,257.60 4.54 1.13 1,071.14 27.34 81.30 81.21
12-Oct-2017 13:25 27.91 2,247.03 2,246.37 4.57 1.12 1,063.91 26.02 82.24 78.84
12-Oct-2017 03:10 27.94 2,283.59 2,282.90 5.07 1.14 1,079.18 27.66 82.29 81.79
12-Oct-2017 02:55 27.94 2,262.20 2,261.52 5.04 1.13 1,069.97 27.73 82.29 81.91
12-Oct-2017 02:30 27.90 2,236.65 2,236.01 5.02 1.12 1,058.23 27.76 82.22 81.97
12-Oct-2017 02:05 27.81 2,210.02 2,209.47 4.92 1.10 1,046.44 27.70 82.06 81.86
11-Oct-2017 23:00 28.18 2,177.64 2,176.76 4.18 1.09 1,031.65 28.08 82.72 82.54
11-Oct-2017 22:55 28.24 2,175.03 2,174.10 4.18 1.08 1,029.91 28.16 82.83 82.69
11-Oct-2017 22:40 28.26 2,172.74 2,171.80 4.09 1.08 1,029.15 28.22 82.87 82.80
11-Oct-2017 13:15 28.38 2,257.66 2,256.55 4.48 1.13 1,069.86 29.13 83.08 84.43
11-Oct-2017 10:40 27.96 2,234.45 2,233.76 3.54 1.12 1,058.02 28.44 82.33 83.19
11-Oct-2017 05:00 28.17 2,298.15 2,297.23 4.38 1.15 1,088.56 27.88 82.71 82.18
11-Oct-2017 04:10 28.34 2,318.83 2,317.74 4.65 1.16 1,097.42 27.93 83.01 82.27
11-Oct-2017 03:50 28.46 2,327.13 2,325.91 4.76 1.16 1,100.94 27.81 83.23 82.06
11-Oct-2017 03:45 28.46 2,324.20 2,322.97 4.78 1.16 1,100.04 27.82 83.23 82.08
11-Oct-2017 03:40 28.46 2,323.69 2,322.46 4.80 1.16 1,099.71 27.89 83.23 82.20
11-Oct-2017 02:40 28.50 2,313.82 2,312.56 5.04 1.16 1,093.77 28.02 83.30 82.44
11-Oct-2017 02:15 28.51 2,308.60 2,307.34 5.05 1.15 1,090.59 27.99 83.32 82.38
10-Oct-2017 23:00 28.40 2,267.27 2,266.13 4.50 1.13 1,074.73 27.86 83.12 82.15
10-Oct-2017 22:15 28.65 2,235.78 2,234.41 4.36 1.12 1,059.22 27.75 83.57 81.95
10-Oct-2017 22:00 28.63 2,235.79 2,234.44 4.35 1.12 1,059.26 28.05 83.53 82.49
10-Oct-2017 21:50 28.70 2,254.12 2,252.69 4.29 1.13 1,066.33 27.86 83.66 82.15
10-Oct-2017 19:15 28.98 2,296.02 2,294.24 4.05 1.15 1,085.75 28.69 84.16 83.64
10-Oct-2017 12:30 28.48 2,250.63 2,249.42 4.98 1.13 1,067.01 28.29 83.26 82.92
10-Oct-2017 06:40 28.16 2,293.12 2,292.22 3.84 1.14 1,083.22 28.44 82.69 83.19
10-Oct-2017 06:35 28.17 2,291.01 2,290.10 3.86 1.14 1,082.16 28.39 82.71 83.10
10-Oct-2017 05:00 28.34 2,305.99 2,304.90 4.23 1.15 1,091.82 28.40 83.01 83.12
10-Oct-2017 04:50 28.39 2,308.64 2,307.50 4.27 1.16 1,093.32 28.44 83.10 83.19
10-Oct-2017 04:10 28.45 2,304.15 2,302.94 4.54 1.15 1,090.86 28.45 83.21 83.21
10-Oct-2017 03:45 28.54 2,300.28 2,298.99 4.68 1.15 1,088.72 28.64 83.37 83.55
10-Oct-2017 03:25 28.56 2,320.92 2,319.59 4.82 1.16 1,098.83 28.58 83.41 83.44
10-Oct-2017 03:15 28.57 2,325.81 2,324.46 4.87 1.16 1,101.16 28.64 83.43 83.55
10-Oct-2017 03:10 28.56 2,328.44 2,327.11 4.90 1.16 1,101.84 28.58 83.41 83.44
10-Oct-2017 02:00 28.66 2,530.67 2,529.10 5.24 1.28 1,206.07 28.71 83.59 83.68
09-Oct-2017 21:35 28.93 2,231.83 2,230.15 4.54 1.12 1,057.86 29.05 84.07 84.29
08-Oct-2017 10:50 28.13 2,245.20 2,244.35 4.88 1.12 1,064.11 77.36 82.63 171.25
08-Oct-2017 10:10 28.01 2,233.64 2,232.90 4.72 1.12 1,057.91 78.81 82.42 173.86
08-Oct-2017 08:00 27.98 2,223.38 2,222.67 4.10 1.11 1,051.76 79.16 82.36 174.49
08-Oct-2017 06:15 28.10 2,210.38 2,209.56 3.90 1.10 1,044.00 78.59 82.58 173.46
08-Oct-2017 06:05 28.11 2,202.69 2,201.87 3.90 1.10 1,041.41 77.92 82.60 172.26
08-Oct-2017 06:00 28.10 2,204.01 2,203.20 3.89 1.10 1,046.29 77.27 82.58 171.09
08-Oct-2017 05:05 28.11 2,207.68 2,206.86 3.95 1.10 1,046.19 77.16 82.60 170.89
07-Oct-2017 22:10 28.43 2,120.08 2,118.99 5.34 1.06 1,008.70 85.67 83.17 186.21
07-Oct-2017 21:05 28.50 2,115.78 2,114.63 5.10 1.06 1,006.19 89.42 83.30 192.96
07-Oct-2017 20:05 28.42 2,109.33 2,108.26 4.84 1.05 1,003.66 55.82 83.16 132.48
07-Oct-2017 18:25 28.40 2,159.47 2,158.38 4.39 1.08 1,022.37 29.79 83.12 85.62
07-Oct-2017 18:15 28.41 2,191.53 2,190.43 4.32 1.09 1,036.12 29.92 83.14 85.86
07-Oct-2017 06:55 27.17 2,208.64 2,208.59 4.50 1.10 1,043.20 48.85 80.91 119.93
07-Oct-2017 06:25 27.19 2,171.70 2,171.64 4.30 1.08 1,026.93 48.93 80.94 120.07
07-Oct-2017 06:10 27.18 2,161.31 2,161.25 4.21 1.08 1,023.19 48.44 80.92 119.19
07-Oct-2017 04:55 27.22 2,154.83 2,154.75 4.09 1.07 1,020.86 48.24 81.00 118.83
07-Oct-2017 04:15 27.23 2,162.21 2,162.11 4.17 1.08 1,026.00 47.19 81.01 116.94
07-Oct-2017 04:05 27.23 2,163.92 2,163.83 4.20 1.08 1,026.41 47.52 81.01 117.54
07-Oct-2017 03:05 27.25 2,156.58 2,156.47 4.45 1.08 1,024.38 47.18 81.05 116.92
07-Oct-2017 02:35 27.26 2,156.26 2,156.14 4.62 1.08 1,023.06 47.66 81.07 117.79
07-Oct-2017 02:30 27.27 2,150.12 2,150.00 4.64 1.07 1,021.50 47.67 81.09 117.81
06-Oct-2017 18:45 27.30 2,187.38 2,187.24 4.77 1.09 1,036.51 48.71 81.14 119.68
06-Oct-2017 18:10 27.29 2,209.28 2,209.13 4.59 1.10 1,044.61 48.40 81.12 119.12
06-Oct-2017 18:00 27.30 2,217.19 2,217.05 4.54 1.11 1,048.19 49.70 81.14 121.46
06-Oct-2017 17:45 27.31 2,217.28 2,217.13 4.48 1.11 1,048.22 49.13 81.16 120.43
06-Oct-2017 08:15 26.73 2,251.40 2,251.64 5.11 1.13 1,067.18 28.50 80.11 83.30
06-Oct-2017 07:25 26.74 2,250.67 2,250.90 4.92 1.13 1,066.73 28.00 80.13 82.40
06-Oct-2017 05:40 26.84 2,238.09 2,238.26 4.42 1.12 1,061.41 28.15 80.31 82.67
06-Oct-2017 05:30 26.84 2,240.14 2,240.31 4.39 1.12 1,060.07 28.13 80.31 82.63
06-Oct-2017 05:25 26.84 2,241.28 2,241.45 4.37 1.12 1,060.47 28.07 80.31 82.53
06-Oct-2017 05:15 26.85 2,240.41 2,240.58 4.35 1.12 1,059.76 28.15 80.33 82.67
06-Oct-2017 04:45 26.84 2,241.97 2,242.14 4.27 1.12 1,060.39 28.20 80.31 82.76
06-Oct-2017 04:35 26.85 2,255.59 2,255.76 4.25 1.13 1,066.06 28.14 80.33 82.65
06-Oct-2017 03:40 26.86 2,301.65 2,301.81 4.29 1.15 1,091.87 28.14 80.35 82.65
06-Oct-2017 03:15 26.84 2,287.72 2,287.89 4.38 1.14 1,082.74 28.20 80.31 82.76
06-Oct-2017 02:10 26.82 2,314.44 2,314.62 4.65 1.16 1,098.81 28.16 80.28 82.69
06-Oct-2017 01:15 26.91 2,355.62 2,355.75 5.04 1.18 1,118.38 28.18 80.44 82.72
05-Oct-2017 21:20 27.01 2,366.11 2,366.17 5.83 1.19 1,128.69 28.25 80.62 82.85
05-Oct-2017 18:20 27.10 2,223.43 2,223.42 4.99 1.11 1,055.05 28.22 80.78 82.80
05-Oct-2017 05:15 26.53 2,069.51 2,069.84 5.04 1.03 985.10 30.12 79.75 86.22
05-Oct-2017 03:40 26.63 2,073.11 2,073.39 4.82 1.03 986.09 29.47 79.93 85.05
05-Oct-2017 02:45 26.71 2,082.30 2,082.53 4.98 1.04 988.92 29.32 80.08 84.78
05-Oct-2017 02:10 26.75 2,087.12 2,087.33 5.01 1.04 990.93 29.66 80.15 85.39
05-Oct-2017 02:05 26.74 2,087.43 2,087.65 5.04 1.04 991.56 29.81 80.13 85.66
05-Oct-2017 02:00 26.75 2,088.11 2,088.32 5.09 1.04 991.57 29.62 80.15 85.32
05-Oct-2017 01:25 26.81 2,102.09 2,102.26 5.18 1.05 998.14 30.16 80.26 86.29
04-Oct-2017 23:15 27.03 2,224.71 2,224.76 6.04 1.11 1,054.02 29.06 80.65 84.31
04-Oct-2017 16:35 27.45 2,055.70 2,055.46 4.79 1.02 977.40 81.03 81.41 177.85
04-Oct-2017 15:40 27.57 2,040.72 2,040.39 4.67 1.02 969.62 90.53 81.63 194.95
04-Oct-2017 14:40 27.75 2,041.12 2,040.66 4.74 1.02 970.05 101.47 81.95 214.65
04-Oct-2017 06:35 27.52 2,232.78 2,232.46 5.53 1.12 1,061.25 104.20 81.54 219.56
04-Oct-2017 04:15 27.82 2,202.88 2,202.31 4.86 1.10 1,045.83 105.20 82.08 221.36
04-Oct-2017 02:35 28.07 2,251.82 2,251.02 4.58 1.13 1,070.78 105.76 82.53 222.37
04-Oct-2017 02:05 28.17 2,239.23 2,238.34 4.65 1.12 1,063.84 105.90 82.71 222.62
04-Oct-2017 02:00 28.17 2,239.23 2,238.34 4.67 1.12 1,064.06 105.84 82.71 222.51
04-Oct-2017 01:45 28.16 2,242.94 2,242.05 4.80 1.12 1,063.37 105.81 82.69 222.46
04-Oct-2017 01:30 28.13 2,261.33 2,260.46 4.78 1.13 1,072.72 105.92 82.63 222.66
03-Oct-2017 20:50 28.39 2,366.53 2,365.37 5.86 1.19 1,126.78 104.99 83.10 220.98
03-Oct-2017 17:15 28.87 2,191.32 2,189.75 4.99 1.10 1,041.31 52.50 83.97 126.50
03-Oct-2017 13:15 28.47 2,142.20 2,141.06 4.72 1.07 1,015.22 101.38 83.25 214.48
03-Oct-2017 04:55 28.21 2,250.96 2,250.03 5.02 1.13 1,072.06 27.93 82.78 82.27
03-Oct-2017 04:45 28.25 2,244.14 2,243.17 5.00 1.13 1,066.16 27.92 82.85 82.26
03-Oct-2017 04:40 28.26 2,236.67 2,235.69 4.96 1.12 1,062.37 27.90 82.87 82.22
03-Oct-2017 04:30 28.27 2,240.51 2,239.53 4.92 1.12 1,064.71 27.90 82.89 82.22
03-Oct-2017 04:20 28.29 2,244.32 2,243.31 4.90 1.13 1,066.87 27.90 82.92 82.22
03-Oct-2017 04:10 28.32 2,238.71 2,237.67 4.86 1.12 1,064.46 27.96 82.98 82.33
03-Oct-2017 04:00 28.33 2,237.20 2,236.15 4.81 1.12 1,063.88 27.98 82.99 82.36
03-Oct-2017 03:55 28.34 2,231.20 2,230.15 4.79 1.12 1,060.34 28.02 83.01 82.44
03-Oct-2017 03:50 28.35 2,225.71 2,224.65 4.78 1.12 1,056.85 28.05 83.03 82.49
03-Oct-2017 03:45 28.35 2,227.84 2,226.78 4.74 1.12 1,058.03 28.04 83.03 82.47
03-Oct-2017 03:40 28.37 2,223.09 2,222.02 4.74 1.11 1,055.50 28.03 83.07 82.45
03-Oct-2017 03:35 28.37 2,218.70 2,217.62 4.71 1.11 1,052.86 28.05 83.07 82.49
03-Oct-2017 03:30 28.38 2,219.75 2,218.67 4.69 1.11 1,053.24 28.03 83.08 82.45
03-Oct-2017 03:25 28.39 2,225.17 2,224.07 4.68 1.11 1,056.56 28.11 83.10 82.60
03-Oct-2017 03:20 28.40 2,224.37 2,223.26 4.68 1.11 1,055.87 28.11 83.12 82.60
03-Oct-2017 03:15 28.41 2,240.88 2,239.75 4.66 1.12 1,064.64 28.08 83.14 82.54
03-Oct-2017 03:05 28.46 2,284.27 2,283.06 4.64 1.15 1,086.51 28.15 83.23 82.67
03-Oct-2017 02:55 28.50 2,225.33 2,224.12 4.60 1.11 1,055.82 28.16 83.30 82.69
03-Oct-2017 02:50 28.50 2,231.68 2,230.46 4.60 1.12 1,058.52 28.15 83.30 82.67
03-Oct-2017 02:45 28.50 2,234.54 2,233.32 4.59 1.12 1,059.97 28.13 83.30 82.63
03-Oct-2017 02:40 28.51 2,233.92 2,232.69 4.59 1.12 1,059.97 28.14 83.32 82.65
03-Oct-2017 02:35 28.53 2,250.14 2,248.89 4.59 1.13 1,067.54 28.16 83.35 82.69
03-Oct-2017 02:15 28.54 2,255.78 2,254.51 4.58 1.13 1,069.88 28.22 83.37 82.80
03-Oct-2017 02:10 28.55 2,252.81 2,251.53 4.59 1.13 1,069.17 28.09 83.39 82.56
03-Oct-2017 02:05 28.56 2,274.08 2,272.79 4.58 1.14 1,079.30 28.27 83.41 82.89
03-Oct-2017 02:00 28.57 2,288.70 2,287.38 4.58 1.15 1,086.23 57.19 83.43 134.94
03-Oct-2017 01:55 28.58 2,271.41 2,270.10 4.60 1.14 1,077.81 28.42 83.44 83.16
03-Oct-2017 01:50 28.59 2,265.69 2,264.37 4.60 1.13 1,073.98 50.42 83.46 122.76
03-Oct-2017 01:45 28.60 2,260.72 2,259.39 4.61 1.13 1,072.45 28.69 83.48 83.64
03-Oct-2017 01:40 28.60 2,264.92 2,263.58 4.63 1.13 1,074.04 32.05 83.48 89.69
03-Oct-2017 01:15 28.64 2,259.28 2,257.90 4.65 1.13 1,071.11 57.55 83.55 135.59
03-Oct-2017 01:05 28.64 2,265.84 2,264.46 4.68 1.13 1,074.65 52.12 83.55 125.82
03-Oct-2017 01:00 28.65 2,271.72 2,270.33 4.67 1.14 1,075.67 50.85 83.57 123.53
03-Oct-2017 00:55 28.65 2,270.06 2,268.67 4.68 1.13 1,074.67 52.80 83.57 127.04
03-Oct-2017 00:40 28.72 2,282.55 2,281.08 4.75 1.14 1,079.68 48.46 83.70 119.23
03-Oct-2017 00:35 28.74 2,279.81 2,278.31 4.75 1.14 1,079.67 47.35 83.73 117.23
02-Oct-2017 23:10 28.74 2,283.79 2,282.29 5.08 1.14 1,081.47 31.31 83.73 88.36
02-Oct-2017 23:05 28.75 2,291.07 2,289.55 5.10 1.15 1,083.89 31.21 83.75 88.18
02-Oct-2017 22:40 28.84 2,300.84 2,299.22 5.17 1.15 1,091.18 31.00 83.91 87.80
02-Oct-2017 22:20 28.85 2,299.30 2,297.66 5.30 1.15 1,089.75 31.06 83.93 87.91
02-Oct-2017 21:50 28.98 2,315.77 2,313.97 5.42 1.16 1,097.81 31.38 84.16 88.48
02-Oct-2017 21:30 29.04 2,303.04 2,301.18 5.48 1.15 1,091.93 30.81 84.27 87.46
02-Oct-2017 20:40 29.11 2,302.38 2,300.44 5.63 1.15 1,092.02 31.55 84.40 88.79
02-Oct-2017 19:25 29.09 2,247.51 2,245.63 5.49 1.12 1,065.72 31.27 84.36 88.29
02-Oct-2017 19:00 29.15 2,239.67 2,237.73 5.39 1.12 1,062.63 31.12 84.47 88.02
02-Oct-2017 18:35 29.28 2,246.75 2,244.65 5.28 1.12 1,063.49 30.50 84.70 86.90
02-Oct-2017 13:05 29.06 2,267.49 2,265.64 4.33 1.14 1,076.12 30.81 84.31 87.46
02-Oct-2017 12:45 29.09 2,286.29 2,284.39 4.48 1.14 1,081.69 29.67 84.36 85.41
02-Oct-2017 10:10 29.02 2,347.73 2,345.86 5.05 1.18 1,113.37 83.83 84.24 182.89
02-Oct-2017 08:25 28.94 2,647.72 2,645.71 5.48 1.35 1,276.21 78.91 84.09 174.04
02-Oct-2017 05:35 29.05 2,405.62 2,403.67 5.14 1.22 1,149.72 67.32 84.29 153.18
02-Oct-2017 05:15 29.05 2,347.68 2,345.77 5.12 1.18 1,120.00 28.74 84.29 83.73
02-Oct-2017 05:10 29.08 2,333.96 2,332.02 5.14 1.18 1,112.12 30.36 84.34 86.65
02-Oct-2017 05:05 29.10 2,319.04 2,317.10 5.17 1.17 1,104.06 28.91 84.38 84.04
02-Oct-2017 04:55 29.09 2,310.21 2,308.29 5.23 1.16 1,099.14 27.18 84.36 80.92
02-Oct-2017 04:30 29.06 2,364.43 2,362.49 4.89 1.20 1,132.84 74.82 84.31 166.68
02-Oct-2017 04:25 29.03 2,367.46 2,365.56 4.86 1.20 1,133.42 72.99 84.25 163.38
02-Oct-2017 04:20 29.03 2,358.43 2,356.54 4.85 1.19 1,128.28 71.87 84.25 161.37
02-Oct-2017 04:10 29.03 2,352.37 2,350.48 4.81 1.19 1,126.39 72.91 84.25 163.24
02-Oct-2017 04:05 29.04 2,359.35 2,357.44 4.77 1.20 1,131.24 72.45 84.27 162.41
02-Oct-2017 04:00 29.06 2,362.57 2,360.63 4.75 1.20 1,132.99 71.38 84.31 160.48
02-Oct-2017 03:55 29.09 2,363.27 2,361.29 4.73 1.20 1,133.25 72.24 84.36 162.03
02-Oct-2017 03:50 29.09 2,368.33 2,366.35 4.70 1.20 1,137.05 71.13 84.36 160.03
02-Oct-2017 03:45 29.13 2,377.07 2,375.05 4.68 1.21 1,142.17 73.11 84.43 163.60
02-Oct-2017 03:35 29.10 2,408.08 2,406.06 4.63 1.23 1,160.70 71.35 84.38 160.43
02-Oct-2017 03:10 29.21 2,369.95 2,367.82 4.58 1.20 1,140.77 71.89 84.58 161.40
02-Oct-2017 03:05 29.24 2,381.36 2,379.19 4.56 1.21 1,146.92 71.70 84.63 161.06
02-Oct-2017 03:00 29.31 2,376.97 2,374.72 4.56 1.21 1,144.66 69.75 84.76 157.55
02-Oct-2017 02:50 29.32 2,365.54 2,363.29 4.52 1.20 1,138.37 72.33 84.78 162.19
02-Oct-2017 02:40 29.32 2,316.06 2,313.85 4.47 1.17 1,110.45 72.07 84.78 161.73
02-Oct-2017 02:30 29.38 2,273.48 2,271.23 4.44 1.15 1,086.35 73.04 84.88 163.47
02-Oct-2017 02:25 29.36 2,247.57 2,245.38 4.42 1.13 1,072.95 74.51 84.85 166.12
02-Oct-2017 02:20 29.36 2,229.17 2,226.99 4.40 1.12 1,061.94 72.78 84.85 163.00
02-Oct-2017 02:15 29.38 2,226.45 2,224.25 4.39 1.12 1,059.78 74.66 84.88 166.39
02-Oct-2017 01:50 29.41 2,205.32 2,203.11 4.36 1.11 1,049.24 75.09 84.94 167.16
02-Oct-2017 01:45 29.41 2,208.81 2,206.60 4.35 1.11 1,050.02 72.10 84.94 161.78
02-Oct-2017 01:40 29.40 2,215.56 2,213.36 4.37 1.11 1,053.34 71.03 84.92 159.85
02-Oct-2017 01:35 29.39 2,216.42 2,214.22 4.36 1.11 1,053.32 71.06 84.90 159.91
02-Oct-2017 01:15 29.42 2,232.35 2,230.10 4.37 1.12 1,060.94 70.47 84.96 158.85
02-Oct-2017 01:05 29.44 2,241.16 2,238.87 4.36 1.12 1,065.56 70.64 84.99 159.15
02-Oct-2017 01:00 29.46 2,245.64 2,243.33 4.36 1.13 1,067.95 70.10 85.03 158.18
02-Oct-2017 00:50 29.48 2,258.26 2,255.91 4.37 1.13 1,071.53 71.71 85.06 161.08
02-Oct-2017 00:45 29.50 2,257.47 2,255.10 4.35 1.13 1,072.15 68.38 85.10 155.08
02-Oct-2017 00:40 29.51 2,258.84 2,256.45 4.36 1.13 1,072.66 70.40 85.12 158.72
02-Oct-2017 00:35 29.52 2,263.35 2,260.94 4.38 1.13 1,074.09 70.45 85.14 158.81
01-Oct-2017 23:50 29.58 2,315.12 2,312.58 4.52 1.16 1,099.34 70.14 85.24 158.25
01-Oct-2017 23:45 29.58 2,318.99 2,316.44 4.53 1.16 1,101.60 68.99 85.24 156.18
01-Oct-2017 23:05 29.65 2,330.48 2,327.83 4.70 1.17 1,107.18 68.92 85.37 156.06
01-Oct-2017 22:35 29.68 2,353.59 2,350.87 4.81 1.18 1,120.38 68.52 85.42 155.34
01-Oct-2017 22:25 29.68 2,368.61 2,365.87 4.87 1.19 1,127.48 67.19 85.42 152.94
01-Oct-2017 22:20 29.69 2,379.80 2,377.04 4.89 1.20 1,131.87 65.96 85.44 150.73
01-Oct-2017 22:15 29.74 2,387.89 2,385.06 4.92 1.20 1,136.33 68.39 85.53 155.10
01-Oct-2017 22:10 29.75 2,396.57 2,393.71 4.94 1.21 1,141.01 69.72 85.55 157.50
01-Oct-2017 21:55 29.78 2,391.23 2,388.33 5.01 1.21 1,138.87 66.67 85.60 152.01
01-Oct-2017 19:45 30.00 2,402.16 2,398.94 5.29 1.21 1,145.35 61.73 86.00 143.11
01-Oct-2017 13:10 29.83 2,253.30 2,250.50 4.15 1.13 1,072.51 61.27 85.69 142.29
01-Oct-2017 11:00 29.24 2,358.85 2,356.70 4.37 1.19 1,125.80 30.29 84.63 86.52
01-Oct-2017 10:05 29.18 2,496.89 2,494.70 4.63 1.27 1,197.54 29.71 84.52 85.48
01-Oct-2017 10:00 29.23 2,514.43 2,512.15 4.65 1.28 1,207.05 29.71 84.61 85.48
01-Oct-2017 09:50 29.22 2,554.40 2,552.09 4.70 1.30 1,229.92 29.70 84.60 85.46
01-Oct-2017 09:05 29.22 2,672.06 2,669.66 4.89 1.37 1,293.86 28.96 84.60 84.13
01-Oct-2017 08:35 29.19 2,737.65 2,735.24 5.00 1.41 1,329.82 29.08 84.54 84.34
01-Oct-2017 07:20 29.20 2,703.66 2,701.25 5.15 1.39 1,312.99 52.60 84.56 126.68
01-Oct-2017 07:15 29.21 2,720.02 2,717.59 5.15 1.40 1,322.62 52.46 84.58 126.43
01-Oct-2017 07:05 29.21 2,685.99 2,683.58 5.15 1.38 1,303.66 51.35 84.58 124.43
01-Oct-2017 07:00 29.22 2,664.25 2,661.86 5.14 1.37 1,291.85 51.71 84.60 125.08
01-Oct-2017 06:35 29.20 2,642.44 2,640.09 5.11 1.36 1,281.39 50.78 84.56 123.40
01-Oct-2017 06:10 29.15 2,634.67 2,632.39 5.07 1.35 1,278.04 50.40 84.47 122.72
01-Oct-2017 06:05 29.14 2,630.18 2,627.91 5.05 1.35 1,275.20 51.31 84.45 124.36
01-Oct-2017 06:00 29.14 2,646.88 2,644.62 5.04 1.36 1,284.18 50.86 84.45 123.55
01-Oct-2017 05:55 29.13 2,667.28 2,665.01 5.03 1.37 1,296.64 50.29 84.43 122.52
01-Oct-2017 05:50 29.13 2,660.19 2,657.92 5.03 1.37 1,291.92 50.11 84.43 122.20
01-Oct-2017 05:45 29.14 2,653.68 2,651.40 5.01 1.36 1,288.62 50.13 84.45 122.23
01-Oct-2017 05:40 29.15 2,639.87 2,637.59 5.00 1.36 1,281.02 49.43 84.47 120.97
01-Oct-2017 05:30 29.17 2,575.80 2,573.55 4.97 1.32 1,246.53 49.24 84.51 120.63
01-Oct-2017 05:25 29.18 2,548.45 2,546.21 4.95 1.30 1,230.50 49.91 84.52 121.84
01-Oct-2017 05:20 29.18 2,521.67 2,519.45 4.93 1.29 1,215.59 49.31 84.52 120.76
01-Oct-2017 05:10 29.19 2,465.51 2,463.33 4.91 1.25 1,184.84 49.47 84.54 121.05
01-Oct-2017 05:05 29.20 2,430.73 2,428.57 4.90 1.23 1,168.14 49.12 84.56 120.42
01-Oct-2017 04:55 29.22 2,400.95 2,398.79 4.88 1.22 1,151.80 49.72 84.60 121.50
01-Oct-2017 04:50 29.23 2,386.11 2,383.95 4.87 1.21 1,144.08 49.69 84.61 121.44
01-Oct-2017 04:40 29.27 2,366.26 2,364.07 4.84 1.20 1,132.49 48.33 84.69 118.99
01-Oct-2017 03:50 29.36 2,335.91 2,333.63 4.66 1.18 1,119.09 46.66 84.85 115.99
01-Oct-2017 03:05 29.39 2,274.27 2,272.02 4.50 1.15 1,087.41 56.17 84.90 133.11
01-Oct-2017 02:50 29.49 2,256.94 2,254.57 4.45 1.14 1,078.60 56.18 85.08 133.12
01-Oct-2017 02:40 29.51 2,249.82 2,247.44 4.42 1.13 1,074.58 54.88 85.12 130.78
01-Oct-2017 02:35 29.51 2,249.58 2,247.20 4.41 1.13 1,074.50 54.61 85.12 130.30
01-Oct-2017 02:30 29.52 2,254.34 2,251.93 4.39 1.14 1,077.69 53.67 85.14 128.61
01-Oct-2017 02:25 29.52 2,258.20 2,255.80 4.38 1.14 1,080.41 53.76 85.14 128.77
01-Oct-2017 02:20 29.51 2,258.30 2,255.92 4.37 1.14 1,080.12 53.45 85.12 128.21
01-Oct-2017 02:15 29.51 2,251.03 2,248.65 4.37 1.13 1,075.95 54.47 85.12 130.05
01-Oct-2017 01:20 29.66 2,214.37 2,211.84 4.26 1.11 1,057.53 53.38 85.39 128.08
30-Sep-2017 07:40 28.75 2,385.42 2,383.83 4.85 1.20 1,138.45 43.32 83.75 109.98
30-Sep-2017 04:40 29.06 2,414.66 2,412.68 4.92 1.23 1,160.49 44.52 84.31 112.14
30-Sep-2017 04:35 29.04 2,408.17 2,406.23 4.89 1.22 1,156.96 45.06 84.27 113.11
30-Sep-2017 04:30 29.00 2,403.50 2,401.61 4.87 1.22 1,153.90 45.01 84.20 113.02
30-Sep-2017 04:00 28.90 2,379.54 2,377.78 4.84 1.21 1,143.37 44.47 84.02 112.05
30-Sep-2017 03:50 28.88 2,351.64 2,349.94 4.78 1.19 1,127.94 44.56 83.98 112.21
30-Sep-2017 03:45 28.86 2,345.13 2,343.45 4.77 1.19 1,124.60 44.57 83.95 112.23
30-Sep-2017 02:55 28.88 2,309.63 2,307.96 4.59 1.17 1,106.79 43.69 83.98 110.64
30-Sep-2017 02:35 28.88 2,298.12 2,296.45 4.48 1.16 1,100.57 44.06 83.98 111.31
30-Sep-2017 02:15 28.88 2,297.37 2,295.70 4.47 1.16 1,099.38 43.63 83.98 110.53
30-Sep-2017 02:00 28.89 2,290.79 2,289.11 4.44 1.15 1,092.38 43.39 84.00 110.10
30-Sep-2017 01:50 28.93 2,285.05 2,283.33 4.40 1.15 1,095.47 43.35 84.07 110.03
30-Sep-2017 01:45 28.93 2,283.51 2,281.80 4.37 1.15 1,093.01 43.27 84.07 109.89
30-Sep-2017 01:40 28.93 2,280.55 2,278.84 4.36 1.15 1,092.20 43.09 84.07 109.56
30-Sep-2017 01:35 28.93 2,280.60 2,278.88 4.35 1.15 1,092.22 43.05 84.07 109.49
30-Sep-2017 01:30 28.95 2,282.28 2,280.54 4.32 1.15 1,093.81 43.12 84.11 109.62
30-Sep-2017 01:25 28.97 2,288.93 2,287.17 4.30 1.16 1,097.48 43.41 84.15 110.14
30-Sep-2017 01:05 28.97 2,339.57 2,337.77 4.31 1.19 1,126.00 42.73 84.15 108.91
30-Sep-2017 01:00 29.00 2,339.09 2,337.25 4.31 1.19 1,126.23 42.67 84.20 108.81
30-Sep-2017 00:45 29.01 2,311.97 2,310.15 4.27 1.17 1,110.09 43.04 84.22 109.47
29-Sep-2017 04:50 29.42 2,495.00 2,492.49 5.19 1.27 1,200.67 27.48 84.96 81.46
29-Sep-2017 01:05 29.36 2,329.00 2,326.72 4.57 1.18 1,114.36 25.76 84.85 78.37
29-Sep-2017 01:00 29.38 2,307.87 2,305.59 4.57 1.18 1,113.76 25.68 84.88 78.22
29-Sep-2017 00:45 29.34 2,330.99 2,328.74 4.54 1.18 1,105.97 25.16 84.81 77.29
29-Sep-2017 00:40 29.36 2,331.33 2,329.05 4.56 1.18 1,115.84 25.43 84.85 77.77
29-Sep-2017 00:35 29.41 2,327.95 2,325.62 4.56 1.18 1,115.53 25.91 84.94 78.64
28-Sep-2017 04:25 29.52 2,535.34 2,532.65 5.17 1.29 1,219.95 27.29 85.14 81.12
28-Sep-2017 03:20 29.49 2,436.43 2,433.88 5.09 1.23 1,165.69 27.54 85.08 81.57
27-Sep-2017 17:50 29.97 2,358.12 2,355.00 4.89 1.19 1,122.55 27.30 85.95 81.14
27-Sep-2017 17:40 30.00 2,368.21 2,365.04 4.95 1.19 1,127.96 27.01 86.00 80.62
27-Sep-2017 17:25 30.04 2,399.90 2,396.62 5.01 1.21 1,144.43 28.18 86.07 82.72
27-Sep-2017 17:20 30.05 2,407.81 2,404.51 5.04 1.22 1,149.25 28.18 86.09 82.72
27-Sep-2017 17:15 30.06 2,419.87 2,416.54 5.05 1.22 1,156.43 28.42 86.11 83.16
27-Sep-2017 17:00 30.05 2,433.72 2,430.38 5.07 1.23 1,164.77 29.35 86.09 84.83
27-Sep-2017 08:55 29.27 2,227.02 2,224.97 4.01 1.11 1,054.59 28.52 84.69 83.34
27-Sep-2017 08:50 29.26 2,225.75 2,223.71 4.00 1.11 1,054.67 28.42 84.67 83.16
27-Sep-2017 08:30 29.26 2,236.49 2,234.43 4.04 1.12 1,057.40 28.01 84.67 82.42
27-Sep-2017 03:05 29.75 2,247.87 2,245.19 5.09 1.12 1,064.11 28.30 85.55 82.94
27-Sep-2017 02:55 29.75 2,247.87 2,245.19 5.07 1.12 1,063.35 28.42 85.55 83.16
27-Sep-2017 02:30 29.74 2,226.76 2,224.12 5.01 1.11 1,051.86 28.42 85.53 83.16
27-Sep-2017 02:20 29.73 2,214.28 2,211.67 5.00 1.10 1,046.94 28.42 85.51 83.16
27-Sep-2017 01:40 29.66 2,183.70 2,181.21 4.91 1.09 1,032.38 27.71 85.39 81.88
27-Sep-2017 00:35 29.57 2,136.84 2,134.50 4.68 1.07 1,013.66 27.33 85.23 81.19
26-Sep-2017 04:40 30.33 2,193.12 2,189.74 4.77 1.10 1,038.77 25.76 86.59 78.37
26-Sep-2017 04:35 30.28 2,192.51 2,189.19 4.82 1.10 1,038.64 25.91 86.50 78.64
26-Sep-2017 04:10 30.29 2,201.24 2,197.90 4.87 1.10 1,043.17 27.12 86.52 80.82
26-Sep-2017 04:05 30.29 2,205.02 2,201.67 4.89 1.10 1,044.48 27.06 86.52 80.71
26-Sep-2017 04:00 30.30 2,203.25 2,199.88 4.91 1.10 1,043.54 27.04 86.54 80.67
26-Sep-2017 03:55 30.28 2,207.11 2,203.77 4.94 1.10 1,045.66 26.92 86.50 80.46
26-Sep-2017 03:50 30.32 2,214.82 2,211.41 4.95 1.11 1,050.04 26.83 86.58 80.29
26-Sep-2017 03:45 30.40 2,221.48 2,217.95 4.95 1.11 1,053.25 26.71 86.72 80.08
26-Sep-2017 03:40 30.41 2,227.11 2,223.57 4.95 1.11 1,056.07 26.65 86.74 79.97
26-Sep-2017 03:35 30.36 2,235.13 2,231.65 4.95 1.12 1,059.76 26.54 86.65 79.77
26-Sep-2017 02:15 30.50 2,226.99 2,223.31 5.18 1.11 1,054.05 28.64 86.90 83.55
25-Sep-2017 07:50 29.68 2,107.69 2,105.25 4.00 1.05 998.14 30.36 85.42 86.65
25-Sep-2017 07:35 29.67 2,107.60 2,105.19 3.99 1.05 997.32 29.53 85.41 85.15
25-Sep-2017 07:25 29.66 2,107.55 2,105.14 4.01 1.05 998.29 29.40 85.39 84.92
25-Sep-2017 07:20 29.66 2,109.04 2,106.63 4.03 1.05 998.79 29.19 85.39 84.54
25-Sep-2017 07:10 29.67 2,114.22 2,111.80 4.06 1.05 1,001.24 29.03 85.41 84.25
25-Sep-2017 07:05 29.67 2,115.33 2,112.90 4.06 1.05 1,000.66 29.04 85.41 84.27
25-Sep-2017 07:00 29.67 2,114.50 2,112.06 4.06 1.05 1,000.96 28.99 85.41 84.18
25-Sep-2017 06:55 29.67 2,116.22 2,113.78 4.08 1.05 1,002.45 28.96 85.41 84.13
25-Sep-2017 04:50 29.90 2,160.11 2,157.34 4.54 1.07 1,019.73 29.15 85.82 84.47
25-Sep-2017 04:45 29.91 2,161.80 2,159.01 4.56 1.08 1,021.30 29.21 85.84 84.58
25-Sep-2017 04:35 29.96 2,165.51 2,162.66 4.64 1.08 1,022.44 29.18 85.93 84.52
25-Sep-2017 04:20 30.04 2,168.88 2,165.92 4.69 1.08 1,025.04 29.14 86.07 84.45
25-Sep-2017 04:10 30.06 2,171.53 2,168.54 4.75 1.08 1,025.39 29.10 86.11 84.38
25-Sep-2017 03:50 30.10 2,178.01 2,174.96 4.86 1.09 1,028.66 28.93 86.18 84.07
25-Sep-2017 03:35 30.11 2,183.62 2,180.56 4.93 1.09 1,031.31 28.96 86.20 84.13
25-Sep-2017 03:30 30.11 2,186.21 2,183.13 4.95 1.09 1,032.77 28.87 86.20 83.97
25-Sep-2017 03:25 30.12 2,189.73 2,186.64 4.97 1.09 1,033.96 28.90 86.22 84.02
25-Sep-2017 02:55 30.15 2,194.19 2,191.05 5.10 1.09 1,035.32 29.01 86.27 84.22
25-Sep-2017 02:45 30.17 2,196.46 2,193.29 5.14 1.09 1,036.14 29.15 86.31 84.47
25-Sep-2017 02:40 30.16 2,183.84 2,180.70 5.16 1.09 1,034.34 29.21 86.29 84.58
25-Sep-2017 02:10 30.16 2,186.39 2,183.24 5.25 1.09 1,033.88 29.62 86.29 85.32
24-Sep-2017 07:35 29.14 2,105.33 2,103.52 4.01 1.05 996.35 29.66 84.45 85.39
24-Sep-2017 06:45 29.14 2,109.29 2,107.48 4.07 1.05 997.09 29.00 84.45 84.20
24-Sep-2017 06:40 29.14 2,106.57 2,104.76 4.07 1.05 996.43 29.13 84.45 84.43
24-Sep-2017 06:35 29.14 2,103.79 2,101.99 4.07 1.05 995.63 29.16 84.45 84.49
24-Sep-2017 06:30 29.13 2,106.30 2,104.50 4.07 1.05 996.02 29.28 84.43 84.70
24-Sep-2017 05:55 29.10 2,103.17 2,101.41 4.16 1.05 994.13 28.64 84.38 83.55
23-Sep-2017 17:35 30.07 2,088.70 2,085.81 4.24 1.04 986.32 30.87 86.13 87.57
23-Sep-2017 17:25 30.09 2,089.26 2,086.34 4.27 1.04 986.63 30.92 86.16 87.66
23-Sep-2017 17:20 30.10 2,093.52 2,090.59 4.28 1.04 988.20 30.99 86.18 87.78
23-Sep-2017 07:45 29.35 2,076.30 2,074.29 4.11 1.03 981.91 28.70 84.83 83.66
23-Sep-2017 07:15 29.38 2,067.06 2,065.02 4.03 1.03 978.13 28.21 84.88 82.78
23-Sep-2017 06:45 29.38 2,062.34 2,060.31 3.97 1.03 976.25 28.55 84.88 83.39
23-Sep-2017 06:30 29.37 2,058.44 2,056.42 3.98 1.02 974.57 28.64 84.87 83.55
23-Sep-2017 05:15 29.39 2,078.41 2,076.35 4.09 1.03 982.08 28.82 84.90 83.88
23-Sep-2017 05:10 29.39 2,079.24 2,077.18 4.11 1.03 982.27 28.66 84.90 83.59
23-Sep-2017 04:20 29.46 2,090.64 2,088.50 4.29 1.04 987.80 28.53 85.03 83.35
23-Sep-2017 03:50 29.51 2,084.72 2,082.51 4.44 1.04 987.73 27.92 85.12 82.26
23-Sep-2017 02:20 29.83 2,107.11 2,104.49 4.91 1.05 996.80 27.16 85.69 80.89
23-Sep-2017 01:55 29.86 2,113.76 2,111.10 5.03 1.05 1,000.11 26.93 85.75 80.47
22-Sep-2017 23:00 29.99 2,041.23 2,038.50 5.09 1.01 965.02 29.26 85.98 84.67
22-Sep-2017 22:55 29.96 2,039.05 2,036.37 5.06 1.01 963.59 29.45 85.93 85.01
22-Sep-2017 22:50 29.97 2,038.11 2,035.41 5.05 1.01 962.78 29.00 85.95 84.20
22-Sep-2017 22:45 29.94 2,034.36 2,031.71 5.03 1.01 962.01 28.83 85.89 83.89
22-Sep-2017 21:00 30.02 2,058.02 2,055.24 4.51 1.02 973.87 29.21 86.04 84.58
22-Sep-2017 01:45 30.66 2,121.77 2,118.04 4.86 1.06 1,002.54 70.35 87.19 158.63
22-Sep-2017 00:30 30.81 2,122.43 2,118.50 5.22 1.06 1,002.35 70.34 87.46 158.61
21-Sep-2017 21:35 30.66 2,027.90 2,024.34 4.91 1.01 960.35 71.19 87.19 160.14
21-Sep-2017 21:25 30.63 2,033.23 2,029.70 4.86 1.01 963.56 70.57 87.13 159.03
21-Sep-2017 19:15 30.86 2,030.09 2,026.26 4.30 1.01 959.39 70.54 87.55 158.97
21-Sep-2017 03:05 30.36 2,079.54 2,076.28 4.24 1.03 983.19 70.61 86.65 159.10
21-Sep-2017 02:45 30.41 2,090.16 2,086.83 4.35 1.04 986.16 71.59 86.74 160.86
20-Sep-2017 08:35 29.98 2,059.87 2,057.14 4.92 1.02 973.25 71.21 85.96 160.18
20-Sep-2017 07:10 29.86 2,033.21 2,030.66 4.46 1.01 961.99 70.31 85.75 158.56
20-Sep-2017 06:55 29.86 2,033.63 2,031.07 4.39 1.01 961.81 71.26 85.75 160.27
20-Sep-2017 06:45 29.87 2,032.65 2,030.09 4.34 1.01 961.74 71.25 85.77 160.25
20-Sep-2017 06:40 29.90 2,033.79 2,031.19 4.32 1.01 962.04 70.92 85.82 159.66
20-Sep-2017 06:25 30.01 2,030.48 2,027.74 4.26 1.01 960.46 70.83 86.02 159.49
20-Sep-2017 06:20 30.05 2,028.44 2,025.66 4.24 1.01 959.88 71.14 86.09 160.05
20-Sep-2017 05:55 30.11 2,038.51 2,035.64 4.16 1.01 964.16 70.38 86.20 158.68
20-Sep-2017 05:25 30.15 2,034.66 2,031.75 4.02 1.01 962.56 71.48 86.27 160.66
20-Sep-2017 04:50 30.07 2,037.36 2,034.53 3.90 1.01 963.66 70.63 86.13 159.13
20-Sep-2017 03:30 30.11 2,013.22 2,010.39 3.92 1.00 950.11 93.34 86.20 200.01
20-Sep-2017 03:15 30.12 2,017.40 2,014.55 3.96 1.00 952.08 94.21 86.22 201.58
20-Sep-2017 02:05 30.19 2,038.65 2,035.69 4.26 1.01 964.18 91.00 86.34 195.80
19-Sep-2017 18:35 31.40 1,921.88 1,917.53 4.44 0.95 909.91 82.28 88.52 180.10
19-Sep-2017 18:00 31.34 1,925.29 1,921.01 4.28 0.95 911.00 79.72 88.41 175.50
18-Sep-2017 20:50 30.46 1,974.13 1,970.93 5.12 0.98 933.84 93.99 86.83 201.18
18-Sep-2017 20:45 30.50 1,973.31 1,970.05 5.10 0.98 932.73 93.46 86.90 200.23
18-Sep-2017 20:40 30.54 1,966.57 1,963.28 5.09 0.98 930.85 93.31 86.97 199.96
18-Sep-2017 20:35 30.61 1,960.92 1,957.54 5.07 0.97 927.79 91.88 87.10 197.38
18-Sep-2017 20:30 30.66 1,956.89 1,953.46 5.05 0.97 926.09 92.70 87.19 198.86
18-Sep-2017 20:25 30.73 1,953.87 1,950.35 5.03 0.97 924.84 90.28 87.31 194.50
18-Sep-2017 19:50 31.04 1,935.32 1,931.43 4.90 0.96 915.50 90.41 87.87 194.74
18-Sep-2017 19:40 31.10 1,926.03 1,922.07 4.86 0.95 911.73 89.23 87.98 192.61
18-Sep-2017 19:30 31.16 1,913.54 1,909.53 4.82 0.95 906.56 90.37 88.09 194.67
18-Sep-2017 19:20 31.16 1,909.92 1,905.92 4.76 0.95 904.08 92.50 88.09 198.50
18-Sep-2017 19:05 31.12 1,910.23 1,906.28 4.68 0.95 904.16 92.83 88.02 199.09
18-Sep-2017 19:00 31.12 1,911.14 1,907.18 4.65 0.95 904.98 92.50 88.02 198.50
18-Sep-2017 18:55 31.14 1,914.60 1,910.61 4.63 0.95 906.23 93.29 88.05 199.92
18-Sep-2017 18:50 31.17 1,916.09 1,912.06 4.59 0.95 906.97 91.42 88.11 196.56
18-Sep-2017 18:45 31.18 1,916.65 1,912.61 4.55 0.95 907.64 92.23 88.12 198.01
18-Sep-2017 18:40 31.19 1,917.75 1,913.70 4.53 0.95 907.56 92.98 88.14 199.36
18-Sep-2017 18:35 31.22 1,916.88 1,912.79 4.49 0.95 907.06 92.48 88.20 198.46
18-Sep-2017 18:30 31.30 1,917.35 1,913.15 4.46 0.95 907.73 92.10 88.34 197.78
18-Sep-2017 18:25 31.29 1,920.08 1,915.88 4.43 0.95 908.06 92.19 88.32 197.94
18-Sep-2017 18:20 31.31 1,923.23 1,918.99 4.39 0.95 908.81 93.49 88.36 200.28
18-Sep-2017 18:10 31.36 1,926.43 1,922.12 4.35 0.95 909.24 93.64 88.45 200.55
18-Sep-2017 18:05 31.43 1,926.71 1,922.30 4.33 0.95 910.33 95.60 88.57 204.08
18-Sep-2017 17:55 31.44 1,927.84 1,923.41 4.27 0.95 910.58 95.27 88.59 203.49
18-Sep-2017 16:50 30.85 1,932.58 1,928.95 3.99 0.96 913.95 98.04 87.53 208.47
18-Sep-2017 01:55 29.96 1,928.00 1,925.46 3.94 0.95 912.30 87.51 85.93 189.52
18-Sep-2017 01:45 29.98 1,928.22 1,925.66 3.96 0.96 911.48 87.11 85.96 188.80
18-Sep-2017 01:35 30.01 1,926.29 1,923.70 3.99 0.95 911.24 87.45 86.02 189.41
18-Sep-2017 00:25 30.16 1,968.02 1,965.19 4.28 0.97 929.08 87.02 86.29 188.64
18-Sep-2017 00:10 30.20 1,978.90 1,976.01 4.35 0.98 933.31 84.41 86.36 183.94
18-Sep-2017 00:00 30.21 1,979.70 1,976.80 4.40 0.98 934.88 84.46 86.38 184.03
17-Sep-2017 23:55 30.20 1,986.76 1,983.85 4.43 0.98 937.31 83.45 86.36 182.21
17-Sep-2017 23:50 30.21 1,988.33 1,985.40 4.45 0.99 938.11 83.36 86.38 182.05
17-Sep-2017 23:40 30.22 1,988.53 1,985.60 4.50 0.99 938.46 82.29 86.40 180.12
17-Sep-2017 23:30 30.27 1,984.47 1,981.48 4.55 0.98 936.31 81.77 86.49 179.19
17-Sep-2017 21:40 30.30 2,036.92 2,033.81 5.07 1.01 961.93 75.72 86.54 168.30
17-Sep-2017 21:20 30.30 2,025.07 2,021.98 5.12 1.01 957.91 72.75 86.54 162.95
17-Sep-2017 06:05 29.36 1,940.89 1,939.00 4.85 0.96 915.68 100.37 84.85 212.67
17-Sep-2017 06:00 29.36 1,928.36 1,926.48 4.82 0.96 913.88 100.75 84.85 213.35
17-Sep-2017 05:35 29.42 1,933.49 1,931.54 4.70 0.96 915.05 100.40 84.96 212.72
17-Sep-2017 02:45 29.88 1,902.68 1,900.26 4.01 0.94 900.69 99.04 85.78 210.27
17-Sep-2017 02:25 29.85 1,899.84 1,897.46 3.96 0.94 899.49 99.21 85.73 210.58
17-Sep-2017 01:25 29.77 1,887.45 1,885.18 3.97 0.93 891.67 99.84 85.59 211.71
17-Sep-2017 00:30 29.96 1,908.77 1,906.26 4.08 0.94 901.90 99.01 85.93 210.22
17-Sep-2017 00:00 30.05 1,908.91 1,906.30 4.18 0.95 903.12 96.97 86.09 206.55
16-Sep-2017 23:55 30.05 1,910.33 1,907.71 4.20 0.95 904.49 97.14 86.09 206.85
16-Sep-2017 23:45 30.07 1,918.17 1,915.52 4.23 0.95 907.50 97.30 86.13 207.14
16-Sep-2017 23:40 30.08 1,916.06 1,913.39 4.25 0.95 907.26 97.89 86.14 208.20
16-Sep-2017 23:35 30.08 1,920.52 1,917.85 4.26 0.95 908.40 97.56 86.14 207.61
16-Sep-2017 23:15 30.16 1,931.28 1,928.50 4.33 0.96 914.42 97.55 86.29 207.59
16-Sep-2017 23:10 30.17 1,923.91 1,921.13 4.35 0.95 910.30 96.30 86.31 205.34
16-Sep-2017 22:50 30.27 1,925.34 1,922.45 4.41 0.95 911.07 97.65 86.49 207.77
16-Sep-2017 22:45 30.30 1,930.65 1,927.71 4.45 0.96 913.97 95.24 86.54 203.43
16-Sep-2017 22:35 30.36 1,936.77 1,933.75 4.49 0.96 916.99 93.52 86.65 200.34
16-Sep-2017 22:30 30.36 1,945.40 1,942.37 4.52 0.96 920.52 93.85 86.65 200.93
16-Sep-2017 22:25 30.36 1,946.34 1,943.30 4.53 0.96 921.11 92.84 86.65 199.11
16-Sep-2017 22:20 30.37 1,946.92 1,943.86 4.56 0.97 922.13 94.25 86.67 201.65
16-Sep-2017 22:15 30.38 1,952.69 1,949.61 4.58 0.97 923.32 94.62 86.68 202.32
16-Sep-2017 22:10 30.39 1,954.58 1,951.48 4.61 0.97 924.51 93.63 86.70 200.53
16-Sep-2017 22:05 30.41 1,956.86 1,953.74 4.63 0.97 925.03 92.47 86.74 198.45
16-Sep-2017 22:00 30.43 1,958.39 1,955.25 4.64 0.97 925.89 93.93 86.77 201.07
16-Sep-2017 21:35 30.48 1,967.00 1,963.78 4.72 0.98 929.61 83.67 86.86 182.61
16-Sep-2017 21:25 30.49 1,969.48 1,966.24 4.76 0.98 931.08 80.46 86.88 176.83
16-Sep-2017 21:10 30.55 1,972.87 1,969.55 4.82 0.98 933.20 76.86 86.99 170.35
16-Sep-2017 20:15 30.65 1,983.69 1,980.22 5.00 0.98 936.67 71.28 87.17 160.30
16-Sep-2017 20:10 30.70 1,982.30 1,978.76 5.03 0.98 934.86 71.99 87.26 161.58
16-Sep-2017 20:05 30.75 1,989.23 1,985.61 5.03 0.99 938.77 71.10 87.35 159.98
16-Sep-2017 20:00 30.79 1,987.58 1,983.93 5.05 0.98 938.09 70.74 87.42 159.33
16-Sep-2017 19:55 30.80 1,986.27 1,982.59 5.05 0.98 937.31 69.62 87.44 157.32
16-Sep-2017 19:40 30.88 1,975.49 1,971.73 5.04 0.98 932.97 68.73 87.58 155.71
16-Sep-2017 19:30 30.94 1,972.39 1,968.55 5.04 0.98 931.43 71.07 87.69 159.93
16-Sep-2017 19:15 31.05 1,967.49 1,963.52 5.02 0.97 928.95 80.31 87.89 176.56
16-Sep-2017 19:10 31.11 1,964.20 1,960.15 5.01 0.97 927.68 84.70 88.00 184.46
16-Sep-2017 18:50 31.17 1,953.13 1,949.03 4.96 0.97 923.21 86.26 88.11 187.27
16-Sep-2017 18:45 31.19 1,949.78 1,945.66 4.94 0.97 921.33 84.92 88.14 184.86
16-Sep-2017 18:30 31.12 1,928.44 1,924.46 4.90 0.96 914.50 86.60 88.02 187.88
16-Sep-2017 18:25 31.19 1,927.63 1,923.56 4.87 0.96 913.67 87.21 88.14 188.98
16-Sep-2017 18:20 31.16 1,928.51 1,924.47 4.87 0.96 913.42 85.21 88.09 185.38
16-Sep-2017 18:15 31.03 1,925.55 1,921.69 4.84 0.95 911.55 86.41 87.85 187.54
16-Sep-2017 18:10 30.92 1,924.28 1,920.57 4.81 0.96 910.95 83.26 87.66 181.87
16-Sep-2017 18:00 30.90 1,926.62 1,922.93 4.79 0.96 912.03 84.11 87.62 183.40
16-Sep-2017 17:55 30.92 1,928.85 1,925.13 4.74 0.96 913.12 70.86 87.66 159.55
16-Sep-2017 17:50 30.89 1,931.36 1,927.68 4.74 0.96 913.95 63.33 87.60 145.99
16-Sep-2017 17:45 30.89 1,929.16 1,925.48 4.71 0.96 913.20 55.91 87.60 132.64
16-Sep-2017 17:35 31.03 1,932.35 1,928.47 4.66 0.96 914.07 54.05 87.85 129.29
16-Sep-2017 17:25 31.27 1,929.24 1,925.05 4.63 0.96 913.01 51.67 88.29 125.01
16-Sep-2017 17:10 31.33 1,930.26 1,925.98 4.55 0.96 913.19 47.87 88.39 118.17
16-Sep-2017 17:05 31.33 1,930.63 1,926.35 4.48 0.96 913.86 49.54 88.39 121.17
16-Sep-2017 17:00 31.34 1,929.71 1,925.43 4.49 0.96 914.03 48.09 88.41 118.56
16-Sep-2017 16:55 31.32 1,930.61 1,926.35 4.45 0.96 914.46 49.04 88.38 120.27
16-Sep-2017 16:50 31.32 1,931.16 1,926.90 4.43 0.96 914.54 49.65 88.38 121.37
16-Sep-2017 16:45 31.29 1,930.74 1,926.52 4.40 0.96 914.54 49.28 88.32 120.70
16-Sep-2017 16:10 31.03 1,931.06 1,927.19 4.20 0.96 914.15 48.27 87.85 118.89
16-Sep-2017 15:25 30.66 1,930.96 1,927.57 4.02 0.96 913.65 46.77 87.19 116.19
16-Sep-2017 11:00 30.05 1,960.40 1,957.72 4.13 0.97 927.21 63.03 86.09 145.45
16-Sep-2017 08:40 29.56 2,017.15 2,014.96 4.80 1.00 951.27 98.17 85.21 208.71
16-Sep-2017 07:55 29.53 2,031.18 2,029.00 4.96 1.01 957.74 103.99 85.15 219.18
16-Sep-2017 07:50 29.53 2,033.14 2,030.97 5.00 1.01 958.65 103.53 85.15 218.35
16-Sep-2017 07:15 29.58 2,024.67 2,022.45 5.09 1.00 954.68 102.68 85.24 216.82
16-Sep-2017 06:15 29.96 1,983.68 1,981.07 5.03 0.98 937.97 101.41 85.93 214.54
16-Sep-2017 06:00 29.92 1,959.71 1,957.17 5.01 0.97 926.80 101.37 85.86 214.47
16-Sep-2017 05:55 29.90 1,957.42 1,954.91 4.99 0.97 925.52 94.89 85.82 202.80
16-Sep-2017 05:45 29.89 1,952.96 1,950.47 4.96 0.97 924.00 98.64 85.80 209.55
16-Sep-2017 05:40 29.89 1,951.29 1,948.81 4.94 0.97 922.82 100.41 85.80 212.74
16-Sep-2017 05:35 29.90 1,949.85 1,947.35 4.94 0.97 922.40 100.08 85.82 212.14
16-Sep-2017 05:15 29.95 1,938.64 1,936.10 4.88 0.96 917.25 101.33 85.91 214.39
16-Sep-2017 04:45 29.91 1,930.25 1,927.76 4.75 0.96 912.86 98.97 85.84 210.15
16-Sep-2017 04:15 29.90 1,932.01 1,929.54 4.62 0.96 913.26 89.60 85.82 193.28
16-Sep-2017 04:05 29.85 1,931.55 1,929.13 4.58 0.96 913.58 89.63 85.73 193.33
16-Sep-2017 04:00 29.84 1,930.45 1,928.05 4.56 0.96 912.34 88.55 85.71 191.39
16-Sep-2017 03:55 29.82 1,927.90 1,925.52 4.54 0.96 912.01 34.16 85.68 93.49
16-Sep-2017 03:50 29.82 1,925.93 1,923.55 4.52 0.95 911.03 31.50 85.68 88.70
16-Sep-2017 03:40 29.88 1,922.64 1,920.20 4.47 0.95 909.17 30.66 85.78 87.19
16-Sep-2017 03:30 29.91 1,917.71 1,915.24 4.42 0.95 905.36 30.68 85.84 87.22
16-Sep-2017 03:15 29.96 1,912.13 1,909.61 4.37 0.95 902.95 30.55 85.93 86.99
16-Sep-2017 03:10 29.97 1,911.07 1,908.55 4.35 0.95 902.54 30.45 85.95 86.81
16-Sep-2017 03:05 29.99 1,912.54 1,909.98 4.33 0.95 903.51 30.42 85.98 86.76
16-Sep-2017 03:00 29.99 1,915.55 1,912.99 4.31 0.95 905.05 30.23 85.98 86.41
16-Sep-2017 02:50 30.03 1,914.02 1,911.41 4.30 0.95 904.09 30.06 86.05 86.11
16-Sep-2017 02:30 30.24 1,918.64 1,915.79 4.25 0.95 905.98 31.09 86.43 87.96
16-Sep-2017 02:20 30.13 1,906.38 1,903.68 4.22 0.94 899.91 31.02 86.23 87.84
16-Sep-2017 02:05 30.11 1,898.80 1,896.13 4.15 0.94 896.71 31.00 86.20 87.80
16-Sep-2017 01:55 30.12 1,894.28 1,891.60 4.12 0.94 896.15 30.96 86.22 87.73
16-Sep-2017 01:30 30.15 1,901.14 1,898.42 4.06 0.94 897.59 31.12 86.27 88.02
16-Sep-2017 00:50 30.29 1,911.06 1,908.15 3.99 0.95 904.61 31.18 86.52 88.12
16-Sep-2017 00:35 30.28 1,911.04 1,908.15 3.99 0.95 904.68 31.22 86.50 88.20
16-Sep-2017 00:30 30.28 1,912.45 1,909.57 3.98 0.95 905.17 31.21 86.50 88.18
15-Sep-2017 22:55 30.22 1,935.58 1,932.73 4.19 0.96 914.94 31.08 86.40 87.94
15-Sep-2017 22:50 30.25 1,938.01 1,935.12 4.21 0.96 916.45 31.07 86.45 87.93
15-Sep-2017 18:25 30.53 1,973.38 1,970.09 4.96 0.98 932.49 31.78 86.95 89.20
15-Sep-2017 18:05 30.65 1,968.96 1,965.51 4.90 0.98 930.92 31.88 87.17 89.38
15-Sep-2017 14:55 31.25 1,932.54 1,928.36 4.12 0.96 912.92 31.69 88.25 89.04
15-Sep-2017 06:40 29.31 1,991.53 1,989.64 4.91 0.99 942.14 29.37 84.76 84.87
15-Sep-2017 06:10 29.32 1,985.72 1,983.82 4.94 0.98 938.79 29.16 84.78 84.49
15-Sep-2017 05:40 29.37 1,979.12 1,977.18 4.91 0.98 935.83 93.54 84.87 200.37
14-Sep-2017 18:50 29.98 2,005.49 2,002.83 4.88 1.00 947.57 83.17 85.96 181.71
14-Sep-2017 07:40 28.79 1,968.13 1,966.79 4.14 0.98 930.85 99.87 83.82 211.77
14-Sep-2017 07:30 28.80 1,967.61 1,966.26 4.20 0.98 930.61 97.10 83.84 206.78
14-Sep-2017 07:15 28.80 1,970.56 1,969.20 4.33 0.98 931.87 93.28 83.84 199.90
14-Sep-2017 07:10 28.81 1,970.20 1,968.85 4.37 0.98 932.20 93.62 83.86 200.52
14-Sep-2017 05:55 28.81 1,982.59 1,981.22 4.70 0.98 937.18 93.05 83.86 199.49
14-Sep-2017 05:50 28.81 1,988.18 1,986.81 4.71 0.99 939.48 93.85 83.86 200.93
14-Sep-2017 05:45 28.82 1,985.24 1,983.86 4.74 0.98 938.47 92.72 83.88 198.90
14-Sep-2017 05:15 28.85 1,973.67 1,972.26 4.82 0.98 931.07 95.12 83.93 203.22
14-Sep-2017 02:45 29.06 1,940.66 1,939.08 4.57 0.96 918.30 88.40 84.31 191.12
14-Sep-2017 01:45 29.17 1,930.94 1,929.25 4.37 0.96 913.55 88.83 84.51 191.89
13-Sep-2017 19:30 29.36 1,947.93 1,946.03 4.35 0.97 921.02 83.92 84.85 183.06
13-Sep-2017 18:45 29.44 1,946.32 1,944.34 4.54 0.96 920.49 84.77 84.99 184.59
13-Sep-2017 17:35 29.27 1,950.43 1,948.62 4.82 0.97 922.22 83.68 84.69 182.62
13-Sep-2017 03:10 28.54 1,955.18 1,954.08 4.77 0.97 923.04 78.29 83.37 172.92
09-Sep-2017 17:40 28.11 1,886.05 1,885.35 5.20 0.93 892.28 87.00 82.60 188.60
09-Sep-2017 15:10 28.55 1,900.27 1,899.20 5.99 0.94 900.21 93.66 83.39 200.59
09-Sep-2017 09:20 28.89 1,889.66 1,888.28 5.34 0.94 895.30 97.64 84.00 207.75
09-Sep-2017 08:20 29.14 1,881.23 1,879.61 4.98 0.93 891.68 97.89 84.45 208.20
09-Sep-2017 07:15 29.25 1,885.77 1,884.04 4.76 0.93 893.24 98.24 84.65 208.83
09-Sep-2017 07:00 29.27 1,885.28 1,883.54 4.87 0.93 893.39 98.48 84.69 209.26
09-Sep-2017 06:50 29.29 1,886.16 1,884.39 4.82 0.93 893.24 98.37 84.72 209.07
09-Sep-2017 06:45 29.28 1,889.73 1,887.96 4.81 0.93 893.71 98.40 84.70 209.12
09-Sep-2017 06:40 29.30 1,889.41 1,887.63 4.77 0.94 893.94 98.60 84.74 209.48
09-Sep-2017 00:45 30.48 1,931.73 1,928.56 5.86 0.96 913.36 25.43 86.86 77.77
07-Sep-2017 04:50 31.24 1,941.45 1,937.27 3.71 0.96 918.01 100.23 88.23 212.41
03-Sep-2017 08:40 30.56 1,939.75 1,936.47 4.56 0.96 916.05 105.19 87.01 221.34
03-Sep-2017 08:25 30.55 1,934.22 1,930.97 4.56 0.96 914.21 105.19 86.99 221.34
03-Sep-2017 08:20 30.54 1,936.60 1,933.35 4.56 0.96 914.96 105.19 86.97 221.34
03-Sep-2017 08:10 30.54 1,936.40 1,933.16 4.55 0.96 915.29 105.15 86.97 221.27
03-Sep-2017 06:50 30.53 1,915.35 1,912.15 4.44 0.95 907.74 105.10 86.95 221.18
03-Sep-2017 06:35 30.55 1,917.53 1,914.31 4.39 0.95 907.66 105.10 86.99 221.18
03-Sep-2017 06:30 30.56 1,918.09 1,914.85 4.37 0.95 908.24 105.10 87.01 221.18
02-Sep-2017 11:40 30.67 1,930.07 1,926.66 3.74 0.95 912.32 104.90 87.21 220.82
02-Sep-2017 11:35 30.66 1,929.32 1,925.93 3.76 0.95 911.90 104.86 87.19 220.75
02-Sep-2017 11:20 30.63 1,930.36 1,927.01 3.82 0.96 912.23 104.81 87.13 220.66
02-Sep-2017 11:15 30.62 1,928.69 1,925.36 3.86 0.96 911.81 104.83 87.12 220.69
02-Sep-2017 10:50 30.64 1,931.47 1,928.11 3.99 0.96 913.23 104.78 87.15 220.60
02-Sep-2017 10:45 30.63 1,932.55 1,929.19 4.02 0.96 913.48 104.72 87.13 220.50
02-Sep-2017 10:40 30.64 1,933.30 1,929.93 4.05 0.96 913.73 104.70 87.15 220.46
02-Sep-2017 10:35 30.65 1,933.31 1,929.94 4.07 0.96 913.98 104.65 87.17 220.37
02-Sep-2017 05:45 31.00 1,949.20 1,945.34 4.45 0.97 920.84 104.58 87.80 220.24
02-Sep-2017 05:40 31.00 1,952.02 1,948.15 4.43 0.97 921.61 104.55 87.80 220.19
30-Aug-2017 05:05 30.52 1,961.07 1,957.80 4.40 0.97 927.65 105.04 86.94 221.07
30-Aug-2017 04:55 30.53 1,962.60 1,959.32 4.40 0.97 927.83 105.09 86.95 221.16
30-Aug-2017 04:50 30.56 1,962.47 1,959.16 4.39 0.97 927.76 105.19 87.01 221.34
30-Aug-2017 04:30 30.61 1,956.60 1,953.22 4.37 0.97 925.73 105.20 87.10 221.36
30-Aug-2017 04:20 30.65 1,956.87 1,953.45 4.36 0.97 925.40 105.24 87.17 221.43
30-Aug-2017 04:10 30.67 1,957.47 1,954.03 4.36 0.97 925.33 105.32 87.21 221.58
30-Aug-2017 04:05 30.68 1,958.45 1,954.98 4.35 0.97 924.91 105.30 87.22 221.54
30-Aug-2017 03:55 30.74 1,954.82 1,951.29 4.32 0.97 923.73 105.37 87.33 221.67
30-Aug-2017 03:45 30.80 1,954.78 1,951.16 4.32 0.97 923.16 105.30 87.44 221.54
30-Aug-2017 03:40 30.82 1,954.44 1,950.80 4.30 0.97 923.00 105.36 87.48 221.65
30-Aug-2017 03:35 30.84 1,953.74 1,950.07 4.30 0.97 922.49 105.36 87.51 221.65
30-Aug-2017 03:25 30.85 1,951.88 1,948.21 4.28 0.97 921.56 105.44 87.53 221.79
30-Aug-2017 03:20 30.89 1,952.72 1,948.99 4.26 0.97 922.00 105.51 87.60 221.92
30-Aug-2017 03:15 30.90 1,949.00 1,945.26 4.26 0.97 920.72 105.60 87.62 222.08
30-Aug-2017 03:05 30.95 1,949.85 1,946.05 4.24 0.97 920.65 105.59 87.71 222.06
30-Aug-2017 02:55 31.03 1,944.97 1,941.07 4.23 0.96 918.63 105.60 87.85 222.08
30-Aug-2017 02:50 31.06 1,943.34 1,939.40 4.20 0.96 917.96 105.65 87.91 222.17
30-Aug-2017 02:35 31.07 1,943.93 1,939.97 4.16 0.96 918.14 105.63 87.93 222.13
28-Aug-2017 18:55 30.42 1,967.39 1,964.25 3.90 0.98 930.18 77.38 86.76 171.28
28-Aug-2017 18:30 30.47 1,974.57 1,971.34 4.03 0.98 931.51 75.36 86.85 167.65
28-Aug-2017 18:00 30.54 1,976.65 1,973.34 4.15 0.98 932.59 77.15 86.97 170.87
28-Aug-2017 01:30 29.16 1,950.12 1,948.43 4.32 0.97 923.38 93.97 84.49 201.15
28-Aug-2017 01:20 29.17 1,949.78 1,948.08 4.30 0.97 922.73 94.21 84.51 201.58
27-Aug-2017 18:55 29.48 1,954.63 1,952.60 3.71 0.97 924.51 103.98 85.06 219.16
27-Aug-2017 18:35 29.50 1,958.17 1,956.11 3.77 0.97 924.52 104.49 85.10 220.08
27-Aug-2017 15:50 29.64 1,964.68 1,962.45 4.36 0.97 928.31 105.52 85.35 221.94
26-Aug-2017 14:15 29.31 1,955.81 1,953.96 4.27 0.97 925.56 52.09 84.76 125.76
26-Aug-2017 13:45 29.15 1,953.71 1,952.03 4.33 0.97 924.38 55.82 84.47 132.48
26-Aug-2017 13:35 29.09 1,949.92 1,948.30 4.26 0.97 922.93 56.51 84.36 133.72
26-Aug-2017 13:20 28.95 1,945.03 1,943.55 4.19 0.96 920.94 56.25 84.11 133.25
26-Aug-2017 05:05 28.21 1,951.46 1,950.65 3.79 0.97 922.05 105.18 82.78 221.32
26-Aug-2017 05:00 28.21 1,952.02 1,951.20 3.81 0.97 923.36 105.44 82.78 221.79
26-Aug-2017 04:40 28.25 1,951.42 1,950.58 3.93 0.97 923.72 105.48 82.85 221.86
26-Aug-2017 03:40 28.37 1,953.76 1,952.81 4.14 0.97 924.79 104.77 83.07 220.59
24-Aug-2017 12:30 30.49 1,995.59 1,992.31 4.64 0.99 941.22 71.65 86.88 160.97
23-Aug-2017 04:50 31.14 2,023.04 2,018.83 3.36 1.01 956.17 103.48 88.05 218.26
23-Aug-2017 04:45 31.15 2,022.45 2,018.24 3.37 1.01 955.90 103.54 88.07 218.37
23-Aug-2017 04:40 31.15 2,023.46 2,019.25 3.37 1.01 956.64 103.72 88.07 218.70
23-Aug-2017 04:35 31.15 2,023.46 2,019.25 3.39 1.01 956.82 103.81 88.07 218.86
23-Aug-2017 04:30 31.14 2,021.61 2,017.41 3.40 1.00 955.16 103.97 88.05 219.15
23-Aug-2017 04:25 31.14 2,024.44 2,020.23 3.42 1.00 956.53 103.97 88.05 219.15
23-Aug-2017 03:55 31.13 2,022.38 2,018.19 3.49 1.00 955.69 104.43 88.03 219.97
23-Aug-2017 02:00 31.24 2,025.24 2,020.88 4.06 1.00 955.35 103.86 88.23 218.95
23-Aug-2017 01:50 31.24 2,024.63 2,020.27 4.08 1.00 954.98 103.90 88.23 219.02
23-Aug-2017 01:40 31.24 2,026.26 2,021.89 4.14 1.01 955.73 103.90 88.23 219.02
23-Aug-2017 01:30 31.27 2,027.98 2,023.57 4.19 1.01 957.23 104.32 88.29 219.78
23-Aug-2017 01:25 31.25 2,028.33 2,023.95 4.22 1.01 956.75 103.75 88.25 218.75
23-Aug-2017 01:10 31.27 2,031.65 2,027.24 4.31 1.01 958.44 104.30 88.29 219.74
20-Aug-2017 11:15 30.59 2,040.59 2,037.10 4.31 1.01 963.97 59.88 87.06 139.78
20-Aug-2017 10:55 30.65 2,043.51 2,039.93 4.44 1.02 966.66 55.51 87.17 131.92
13-Aug-2017 08:10 31.31 2,134.03 2,129.33 3.25 1.07 1,012.13 65.56 88.36 150.01
13-Aug-2017 07:30 31.34 2,139.88 2,135.12 3.32 1.07 1,013.64 66.21 88.41 151.18
13-Aug-2017 06:45 31.44 2,136.63 2,131.72 3.44 1.07 1,012.19 68.34 88.59 155.01
13-Aug-2017 06:35 31.47 2,137.46 2,132.52 3.49 1.07 1,012.56 68.05 88.65 154.49
13-Aug-2017 05:50 31.52 2,138.02 2,132.99 3.68 1.07 1,013.31 68.64 88.74 155.55
13-Aug-2017 05:30 31.54 2,138.60 2,133.54 3.75 1.07 1,013.56 68.05 88.77 154.49
13-Aug-2017 05:25 31.58 2,134.97 2,129.86 3.79 1.07 1,012.60 66.96 88.84 152.53
13-Aug-2017 05:20 31.59 2,134.12 2,128.99 3.82 1.07 1,012.42 67.90 88.86 154.22
13-Aug-2017 05:10 31.61 2,133.56 2,128.40 3.84 1.07 1,012.68 67.38 88.90 153.28
13-Aug-2017 04:55 31.67 2,134.60 2,129.34 3.92 1.07 1,012.69 67.78 89.01 154.00
13-Aug-2017 04:35 31.76 2,136.74 2,131.33 4.03 1.07 1,013.62 67.54 89.17 153.57
13-Aug-2017 04:30 31.76 2,137.65 2,132.24 4.06 1.07 1,014.67 68.03 89.17 154.45
13-Aug-2017 04:20 31.75 2,138.51 2,133.11 4.08 1.07 1,015.58 67.78 89.15 154.00
13-Aug-2017 04:10 31.75 2,138.05 2,132.65 4.14 1.07 1,015.49 67.69 89.15 153.84
13-Aug-2017 04:00 31.79 2,139.40 2,133.95 4.19 1.07 1,016.10 67.57 89.22 153.63
11-Aug-2017 03:30 30.27 2,156.27 2,153.02 3.89 1.08 1,023.69 61.23 86.49 142.21
11-Aug-2017 03:20 30.33 2,157.62 2,154.29 3.95 1.08 1,023.86 62.07 86.59 143.73
11-Aug-2017 02:20 30.41 2,159.98 2,156.54 4.21 1.08 1,025.43 60.74 86.74 141.33
10-Aug-2017 22:30 30.29 2,150.35 2,147.08 4.15 1.08 1,019.30 59.94 86.52 139.89
10-Aug-2017 17:10 30.72 2,163.59 2,159.70 3.33 1.08 1,026.14 54.04 87.30 129.27
06-Aug-2017 03:45 30.55 2,238.35 2,234.59 3.79 1.13 1,065.75 105.54 86.99 221.97
02-Aug-2017 16:05 31.74 2,282.50 2,276.76 3.85 1.15 1,089.34 44.24 89.13 111.63
02-Aug-2017 15:25 31.54 2,275.85 2,270.47 3.83 1.15 1,086.21 43.57 88.77 110.43
02-Aug-2017 15:20 31.51 2,275.82 2,270.49 3.79 1.15 1,085.63 49.51 88.72 121.12
02-Aug-2017 03:45 29.43 2,296.78 2,294.45 4.12 1.16 1,094.26 69.92 84.97 157.86
02-Aug-2017 03:40 29.43 2,297.99 2,295.67 4.11 1.16 1,094.20 69.25 84.97 156.65
02-Aug-2017 03:35 29.41 2,298.09 2,295.78 4.10 1.16 1,094.67 69.76 84.94 157.57
02-Aug-2017 02:25 29.64 2,297.11 2,294.52 3.88 1.16 1,095.24 69.78 85.35 157.60
02-Aug-2017 02:20 29.67 2,299.76 2,297.12 3.86 1.16 1,096.07 68.42 85.41 155.16
02-Aug-2017 02:00 29.74 2,298.51 2,295.79 3.79 1.16 1,097.37 67.20 85.53 152.96
02-Aug-2017 01:55 29.79 2,300.42 2,297.61 3.75 1.16 1,097.37 68.32 85.62 154.98
02-Aug-2017 01:45 29.82 2,302.27 2,299.42 3.72 1.16 1,098.69 67.13 85.68 152.83
02-Aug-2017 01:20 29.76 2,302.09 2,299.33 3.70 1.16 1,097.74 62.96 85.57 145.33
02-Aug-2017 01:15 29.78 2,302.30 2,299.51 3.67 1.16 1,098.00 62.71 85.60 144.88
02-Aug-2017 01:10 29.78 2,299.44 2,296.66 3.64 1.16 1,096.12 62.28 85.60 144.10
02-Aug-2017 01:05 29.74 2,298.06 2,295.32 3.64 1.16 1,095.95 62.47 85.53 144.45
02-Aug-2017 00:50 29.74 2,295.26 2,292.53 3.64 1.16 1,093.00 64.18 85.53 147.52
02-Aug-2017 00:45 29.76 2,290.60 2,287.86 3.64 1.15 1,091.19 63.67 85.57 146.61
02-Aug-2017 00:30 29.76 2,291.11 2,288.36 3.66 1.15 1,091.80 63.27 85.57 145.89
01-Aug-2017 21:45 29.98 2,293.63 2,290.58 3.90 1.16 1,093.17 60.45 85.96 140.81
01-Aug-2017 21:35 30.01 2,293.63 2,290.55 3.91 1.16 1,093.73 60.10 86.02 140.18
01-Aug-2017 21:30 30.01 2,295.42 2,292.33 3.93 1.16 1,094.34 59.58 86.02 139.24
01-Aug-2017 21:25 30.00 2,296.13 2,293.05 3.94 1.16 1,095.05 59.26 86.00 138.67
01-Aug-2017 21:10 30.01 2,296.44 2,293.35 3.98 1.16 1,095.17 59.31 86.02 138.76
01-Aug-2017 20:20 30.02 2,306.09 2,302.97 4.10 1.16 1,100.12 57.73 86.04 135.91
01-Aug-2017 20:10 30.03 2,306.71 2,303.57 4.10 1.16 1,101.84 59.66 86.05 139.39
01-Aug-2017 19:55 30.05 2,316.04 2,312.86 4.20 1.17 1,106.66 56.84 86.09 134.31
01-Aug-2017 19:50 30.06 2,313.50 2,310.31 4.22 1.17 1,105.47 55.94 86.11 132.69
01-Aug-2017 19:45 30.05 2,312.56 2,309.39 4.23 1.17 1,104.31 55.45 86.09 131.81
01-Aug-2017 19:25 30.09 2,324.26 2,321.02 4.33 1.17 1,109.86 53.69 86.16 128.64
01-Aug-2017 19:05 30.12 2,321.45 2,318.17 4.38 1.17 1,108.92 53.55 86.22 128.39
01-Aug-2017 15:10 30.70 2,291.63 2,287.55 3.86 1.16 1,094.23 60.25 87.26 140.45
30-Jul-2017 20:10 30.84 2,350.64 2,346.24 4.78 1.19 1,128.48 24.64 87.51 76.35
30-Jul-2017 19:30 31.19 2,357.59 2,352.60 4.98 1.20 1,132.74 25.58 88.14 78.04
30-Jul-2017 19:00 31.31 2,365.51 2,360.29 4.85 1.20 1,135.66 27.26 88.36 81.07
30-Jul-2017 18:55 31.32 2,362.85 2,357.63 4.87 1.20 1,135.29 27.04 88.38 80.67
30-Jul-2017 18:10 31.39 2,375.64 2,370.28 4.97 1.21 1,142.37 26.21 88.50 79.18
30-Jul-2017 18:05 31.40 2,375.48 2,370.10 5.00 1.21 1,141.47 26.00 88.52 78.80
30-Jul-2017 17:50 31.41 2,375.89 2,370.49 5.17 1.21 1,143.28 25.56 88.54 78.01
30-Jul-2017 07:15 30.92 2,366.67 2,362.10 4.02 1.20 1,137.12 28.47 87.66 83.25
30-Jul-2017 07:10 30.94 2,366.97 2,362.37 4.06 1.20 1,136.58 28.46 87.69 83.23
30-Jul-2017 07:05 30.95 2,367.92 2,363.31 4.09 1.20 1,137.70 28.43 87.71 83.17
30-Jul-2017 05:00 31.26 2,394.38 2,389.19 4.68 1.22 1,153.66 27.94 88.27 82.29
30-Jul-2017 04:55 </